[[{"header":{"parameterUnit":"m.s-1","parameterCategory":1,"la1":31.0,"la2":29.5877,"lo1":-88.7671,"lo2":-86.6584,"dy":0.0162,"dx":0.0185,"nx":115,"ny":88,"refTime":"2026-05-05T00:00:00:Z","depth":0,"parameterNumber":2,"parameterNumberName":"U-component_of_WINDS"},"data":[0.0,0.0,0.0,0.0,0.0,0.0,0.0,0.0,0.0,0.0,0.0,0.0,0.0,0.0,0.0,0.0,0.0,0.0,0.0,0.0,0.0,0.0,0.0,0.0,0.0,0.0,0.0,0.0,0.0,0.0,0.0,0.0,0.0,0.0,0.0,0.0,0.0,0.0,0.0,0.0,0.0,0.0,0.0,0.0,0.0,0.0,0.0,0.0,0.0,0.0,0.0,0.0,0.0,0.0,0.0,0.0,0.0,0.0,0.0,0.0,0.0,0.0,0.0,0.0,0.0,0.0,0.0,0.0,0.0,0.0,0.0,0.0,0.0,0.0,0.0,0.0,0.0,0.0,0.0,0.0,0.0,0.0,0.0,0.0,0.0,0.0,0.0,0.0,0.0,0.0,0.0,0.0,0.0,0.0,0.0,0.0,0.0,0.0,0.0,0.0,0.0,0.0,0.0,0.0,0.0,0.0,0.0,0.0,0.0,0.0,0.0,0.0,0.0,0.0,0.0,0.0,0.0,0.0,0.0,0.0,0.0,0.0,0.0,0.0,0.0,0.0,0.0,0.0,0.0,0.0,0.0,0.0,0.0,0.0,0.0,0.0,0.0,0.0,0.0,0.0,0.0,0.0,0.0,0.0,0.0,0.0,0.0,0.0,0.0,0.0,0.0,0.0,0.0,0.0,0.0,0.0,0.0,0.0,0.0,0.0,0.0,0.0,0.0,0.0,0.0,0.0,0.0,0.0,0.0,0.0,0.0,0.0,0.0,0.0,0.0,0.0,0.0,0.0,0.0,0.0,0.0,0.0,0.0,0.0,0.0,0.0,0.0,0.0,0.0,0.0,0.0,0.0,0.0,0.0,0.0,0.0,0.0,0.0,0.0,0.0,0.0,0.0,0.0,0.0,0.0,0.0,0.0,0.0,0.0,0.0,0.0,0.0,0.0,0.0,0.0,0.0,0.0,0.0,0.0,0.0,0.0,0.0,0.0,0.0,0.0,0.0,0.0,0.0,0.0,0.0,0.0,0.0,0.0,0.0,0.0,0.0,0.0,0.0,0.0,0.0,0.0,0.0,0.0,0.0,0.0,0.0,0.0,0.0,0.0,0.0,0.0,0.0,0.0,0.0,0.0,0.0,0.0,0.0,0.0,0.0,0.0,0.0,0.0,0.0,0.0,0.0,0.0,0.0,0.0,0.0,0.0,0.0,0.0,0.0,0.0,0.0,0.0,0.0,0.0,0.0,0.0,0.0,0.0,0.0,0.0,0.0,0.0,0.0,0.0,0.0,0.0,0.0,0.0,0.0,0.0,0.0,0.0,0.0,0.0,0.0,0.0,0.0,0.0,0.0,0.0,0.0,0.0,0.0,0.0,0.0,0.0,0.0,0.0,0.0,0.0,0.0,0.0,0.0,0.0,0.0,0.0,0.0,0.0,0.0,0.0,0.0,0.0,0.0,0.0,0.0,0.0,0.0,0.0,0.0,0.0,0.0,0.0,0.0,0.0,0.0,0.0,0.0,0.0,0.0,0.0,0.0,0.0,0.0,0.0,0.0,0.0,0.0,0.0,0.0,0.0,0.0,0.0,0.0,0.0,0.0,0.0,0.0,0.0,0.0,0.0,0.0,0.0,0.0,0.0,0.0,0.0,0.0,0.0,0.0,0.0,0.0,0.0,0.0,0.0,0.0,0.0,0.0,0.0,0.0,0.0,0.0,0.0,0.0,0.0,0.0,0.0,0.0,0.0,0.0,0.0,0.0,0.0,0.0,0.0,0.0,0.0,0.0,0.0,0.0,0.0,0.0,0.0,0.0,0.0,0.0,0.0,0.0,0.0,0.0,0.0,0.0,0.0,0.0,0.0,0.0,0.0,0.0,0.0,0.0,0.0,0.0,0.0,0.0,0.0,0.0,0.0,0.0,0.0,0.0,0.0,0.0,0.0,0.0,0.0,0.0,0.0,0.0,0.0,0.0,0.0,0.0,0.0,0.0,0.0,0.0,0.0,0.0,0.0,0.0,0.0,0.0,0.0,0.0,0.0,0.0,0.0,0.0,0.0,0.0,0.0,0.0,0.0,0.0,0.0,0.0,0.0,0.0,0.0,0.0,0.0,0.0,0.0,0.0,0.0,0.0,0.0,0.0,0.0,0.0,0.0,0.0,0.0,0.0,0.0,0.0,0.0,0.0,0.0,0.0,0.0,0.0,0.0,0.0,0.0,0.0,0.0,0.0,0.0,0.0,0.0,0.0,0.0,0.0,0.0,0.0,0.0,0.0,0.0,0.0,0.0,0.0,0.0,0.0,0.0,0.0,0.0,0.0,0.0,0.0,0.0,0.0,0.0,0.0,0.0,0.0,0.0,0.0,0.0,0.0,0.0,0.0,0.0,0.0,0.0,0.0,0.0,0.0,0.0,0.0,0.0,0.0,0.0,0.0,0.0,0.0,0.0,0.0,0.0,0.0,0.0,0.0,0.0,0.0,0.0,0.0,0.0,0.0,0.0,0.0,0.0,0.0,0.0,0.0,0.0,0.0,0.0,0.0,0.0,0.0,0.0,0.0,0.0,0.0,0.0,0.0,0.0,0.0,0.0,0.0,0.0,0.0,0.0,0.0,0.0,0.0,0.0,0.0,0.0,0.0,0.0,0.0,0.0,0.0,0.0,0.0,0.0,0.0,0.0,0.0,0.0,0.0,0.0,0.0,0.0,0.0,0.0,0.0,0.0,0.0,0.0,0.0,0.0,0.0,0.0,0.0,0.0,0.0,0.0,0.0,0.0,0.0,0.0,0.0,0.0,0.0,0.0,0.0,0.0,0.0,0.0,0.0,0.0,0.0,0.0,0.0,0.0,0.0,0.0,0.0,0.0,0.0,0.0,0.0,0.0,0.0,0.0,0.0,0.0,0.0,0.0,0.0,0.0,0.0,0.0,0.0,0.0,0.0,0.0,0.0,0.0,0.0,0.0,0.0,0.0,0.0,0.0,0.0,0.0,0.0,0.0,0.0,0.0,0.0,0.0,0.0,0.0,0.0,0.0,0.0,0.0,0.0,0.0,0.0,0.0,0.0,0.0,0.0,0.0,0.0,0.0,0.0,0.0,0.0,0.0,0.0,0.0,0.0,0.0,0.0,0.0,0.0,0.0,0.0,0.0,0.0,0.0,0.0,0.0,0.0,0.0,0.0,0.0,0.0,0.0,0.0,0.0,0.0,0.0,0.0,0.0,0.0,0.0,0.0,0.0,0.0,0.0,0.0,0.0,0.0,0.0,0.0,0.0,0.0,0.0,0.0,0.0,0.0,0.0,0.0,0.0,0.0,0.0,0.0,0.0,0.0,0.0,0.0,0.0,0.0,0.0,0.0,0.0,0.0,0.0,0.0,0.0,0.0,0.0,0.0,0.0,0.0,0.0,0.0,0.0,0.0,0.0,0.0,0.0,0.0,0.0,0.0,0.0,0.0,0.0,0.0,0.0,0.0,0.0,0.0,0.0,0.0,0.0,0.0,0.0,0.0,0.0,0.0,0.0,0.0,0.0,0.0,0.0,0.0,0.0,0.0,0.0,0.0,0.0,0.0,0.0,0.0,0.0,0.0,0.0,0.0,0.0,0.0,0.0,0.0,0.0,0.0,0.0,0.0,0.0,0.0,0.0,0.0,0.0,0.0,0.0,0.0,0.0,0.0,0.0,0.0,0.0,0.0,0.0,0.0,0.0,0.0,0.0,0.0,0.0,0.0,0.0,0.0,0.0,0.0,0.0,0.0,0.0,0.0,0.0,0.0,0.0,0.0,0.0,0.0,0.0,0.0,0.0,0.0,0.0,0.0,0.0,0.0,0.0,0.0,0.0,0.0,0.0,0.0,0.0,0.0,0.0,0.0,0.0,0.0,0.0,0.0,0.0,0.0,0.0,0.0,0.0,0.0,0.0,0.0,0.0,0.0,0.0,0.0,0.0,0.0,0.0,0.0,0.0,0.0,0.0,0.0,0.0,0.0,0.0,0.0,0.0,0.0,0.0,0.0,0.0,0.0,0.0,0.0,0.0,0.0,0.0,0.0,0.0,0.0,0.0,0.0,0.0,0.0,0.0,0.0,0.0,0.0,0.0,0.0,0.0,0.0,0.0,0.0,0.0,0.0,0.0,0.0,0.0,0.0,0.0,0.0,0.0,0.0,0.0,0.0,0.0,0.0,0.0,0.0,0.0,0.0,0.0,0.0,0.0,0.0,0.0,0.0,0.0,0.0,0.0,0.0,0.0,0.0,0.0,0.0,0.0,0.0,0.0,0.0,0.0,0.0,-2.696,0.0,0.0,0.0,0.0,0.0,0.0,0.0,0.0,0.0,0.0,0.0,0.0,0.0,0.0,0.0,0.0,0.0,0.0,0.0,0.0,0.0,0.0,0.0,0.0,0.0,0.0,0.0,0.0,0.0,0.0,0.0,0.0,0.0,0.0,0.0,0.0,0.0,0.0,0.0,0.0,0.0,0.0,0.0,0.0,0.0,0.0,0.0,0.0,0.0,0.0,0.0,0.0,0.0,0.0,0.0,0.0,0.0,0.0,0.0,0.0,0.0,0.0,0.0,0.0,0.0,0.0,0.0,0.0,0.0,0.0,0.0,0.0,0.0,0.0,0.0,0.0,0.0,0.0,0.0,0.0,0.0,0.0,0.0,0.0,0.0,0.0,0.0,0.0,0.0,0.0,0.0,0.0,0.0,0.0,0.0,0.0,0.0,0.0,0.0,0.0,0.0,0.0,0.0,0.0,0.0,0.0,0.0,0.0,0.0,0.0,-3.0221,-2.9857,-2.9489,-2.876,-2.7619,0.0,0.0,0.0,0.0,0.0,0.0,0.0,0.0,0.0,0.0,0.0,0.0,0.0,0.0,0.0,0.0,0.0,0.0,0.0,0.0,0.0,0.0,0.0,0.0,0.0,0.0,0.0,0.0,0.0,0.0,0.0,0.0,0.0,0.0,0.0,0.0,0.0,0.0,0.0,0.0,0.0,0.0,0.0,0.0,0.0,0.0,0.0,0.0,0.0,0.0,0.0,0.0,0.0,0.0,0.0,0.0,0.0,0.0,0.0,0.0,0.0,0.0,0.0,0.0,0.0,0.0,0.0,0.0,0.0,0.0,0.0,0.0,0.0,0.0,0.0,0.0,0.0,0.0,0.0,0.0,0.0,0.0,0.0,0.0,0.0,0.0,0.0,0.0,0.0,0.0,0.0,0.0,0.0,0.0,0.0,0.0,0.0,0.0,0.0,0.0,0.0,0.0,0.0,0.0,0.0,0.0,0.0,0.0,0.0,0.0,0.0,0.0,-3.0754,-3.0014,-2.9106,0.0,0.0,0.0,0.0,0.0,0.0,0.0,0.0,0.0,0.0,0.0,0.0,0.0,0.0,0.0,0.0,0.0,0.0,0.0,0.0,0.0,0.0,0.0,0.0,0.0,0.0,0.0,0.0,0.0,0.0,0.0,0.0,0.0,0.0,0.0,0.0,0.0,0.0,0.0,0.0,0.0,0.0,0.0,0.0,0.0,0.0,0.0,0.0,0.0,0.0,0.0,0.0,0.0,0.0,0.0,0.0,0.0,0.0,0.0,0.0,0.0,0.0,0.0,0.0,0.0,0.0,0.0,0.0,0.0,0.0,0.0,0.0,0.0,0.0,0.0,0.0,0.0,0.0,0.0,0.0,0.0,0.0,0.0,0.0,0.0,0.0,0.0,0.0,0.0,0.0,0.0,0.0,0.0,0.0,0.0,0.0,0.0,0.0,0.0,0.0,0.0,0.0,0.0,0.0,0.0,0.0,0.0,0.0,0.0,0.0,-3.15,-3.3789,-3.3925,0.0,-3.1951,0.0,0.0,0.0,0.0,0.0,0.0,0.0,0.0,0.0,0.0,0.0,0.0,0.0,0.0,0.0,0.0,0.0,0.0,0.0,0.0,0.0,0.0,0.0,0.0,0.0,0.0,0.0,0.0,0.0,0.0,0.0,0.0,0.0,0.0,0.0,0.0,0.0,0.0,0.0,0.0,0.0,0.0,0.0,0.0,0.0,0.0,0.0,0.0,0.0,0.0,0.0,0.0,0.0,0.0,0.0,0.0,0.0,0.0,0.0,0.0,0.0,0.0,0.0,0.0,0.0,0.0,0.0,0.0,0.0,0.0,0.0,0.0,0.0,0.0,0.0,0.0,0.0,0.0,0.0,0.0,0.0,0.0,0.0,0.0,0.0,0.0,0.0,0.0,0.0,0.0,0.0,0.0,0.0,0.0,0.0,0.0,0.0,0.0,0.0,0.0,0.0,0.0,0.0,0.0,0.0,0.0,0.0,0.0,0.0,0.0,0.0,-3.416,-3.3378,-3.2742,0.0,0.0,0.0,0.0,0.0,0.0,0.0,0.0,0.0,0.0,0.0,0.0,0.0,0.0,0.0,0.0,0.0,0.0,0.0,0.0,0.0,0.0,0.0,0.0,0.0,0.0,0.0,0.0,0.0,0.0,0.0,0.0,0.0,0.0,0.0,0.0,0.0,0.0,0.0,0.0,0.0,0.0,0.0,0.0,0.0,0.0,0.0,0.0,0.0,0.0,0.0,0.0,0.0,0.0,0.0,0.0,0.0,0.0,0.0,0.0,0.0,0.0,0.0,0.0,0.0,0.0,0.0,0.0,0.0,0.0,0.0,0.0,0.0,0.0,0.0,0.0,0.0,0.0,0.0,0.0,0.0,0.0,0.0,0.0,0.0,0.0,0.0,0.0,0.0,0.0,0.0,0.0,0.0,0.0,0.0,0.0,0.0,0.0,0.0,0.0,0.0,0.0,0.0,0.0,0.0,0.0,0.0,0.0,0.0,0.0,-3.3622,0.0,-3.4886,-3.4111,-3.3091,-3.1875,0.0,0.0,0.0,0.0,0.0,0.0,0.0,0.0,0.0,0.0,0.0,0.0,0.0,0.0,0.0,0.0,0.0,0.0,0.0,0.0,0.0,0.0,0.0,0.0,0.0,0.0,0.0,0.0,0.0,0.0,0.0,0.0,0.0,0.0,0.0,0.0,0.0,0.0,0.0,0.0,0.0,0.0,0.0,0.0,0.0,0.0,0.0,0.0,0.0,0.0,0.0,0.0,0.0,0.0,0.0,0.0,0.0,0.0,0.0,0.0,0.0,0.0,0.0,0.0,0.0,0.0,0.0,0.0,0.0,0.0,0.0,0.0,0.0,0.0,0.0,0.0,0.0,0.0,0.0,0.0,0.0,0.0,0.0,0.0,0.0,0.0,0.0,0.0,0.0,0.0,0.0,0.0,0.0,0.0,0.0,0.0,0.0,0.0,0.0,0.0,0.0,0.0,0.0,0.0,0.0,0.0,0.0,0.0,0.0,-3.536,-3.5085,-3.6857,-3.7618,-3.581,0.0,0.0,0.0,0.0,0.0,0.0,0.0,0.0,0.0,0.0,0.0,0.0,0.0,0.0,0.0,0.0,0.0,0.0,0.0,0.0,0.0,0.0,0.0,0.0,0.0,0.0,0.0,0.0,0.0,0.0,0.0,0.0,0.0,0.0,0.0,0.0,0.0,0.0,0.0,0.0,0.0,0.0,0.0,0.0,0.0,0.0,0.0,0.0,0.0,0.0,0.0,0.0,0.0,0.0,0.0,0.0,0.0,0.0,0.0,0.0,0.0,0.0,0.0,0.0,0.0,0.0,0.0,0.0,0.0,0.0,0.0,0.0,0.0,0.0,0.0,0.0,0.0,0.0,0.0,0.0,0.0,0.0,0.0,0.0,0.0,0.0,0.0,0.0,0.0,0.0,0.0,0.0,0.0,0.0,0.0,0.0,0.0,0.0,0.0,0.0,0.0,0.0,0.0,0.0,0.0,0.0,0.0,0.0,0.0,-3.3,-3.3814,-3.6131,-3.9883,-3.634,-3.4161,0.0,0.0,0.0,0.0,0.0,0.0,0.0,0.0,0.0,0.0,0.0,0.0,0.0,0.0,0.0,0.0,0.0,0.0,0.0,0.0,0.0,0.0,0.0,0.0,0.0,0.0,0.0,0.0,0.0,0.0,0.0,0.0,0.0,0.0,0.0,0.0,0.0,0.0,0.0,0.0,0.0,0.0,0.0,0.0,0.0,0.0,0.0,0.0,0.0,0.0,0.0,0.0,0.0,0.0,0.0,0.0,0.0,0.0,0.0,0.0,0.0,0.0,0.0,0.0,0.0,0.0,0.0,0.0,0.0,0.0,0.0,0.0,0.0,0.0,0.0,0.0,0.0,0.0,0.0,0.0,0.0,0.0,0.0,0.0,0.0,0.0,0.0,0.0,0.0,0.0,0.0,0.0,0.0,0.0,0.0,0.0,0.0,0.0,0.0,0.0,0.0,0.0,0.0,0.0,0.0,0.0,0.0,0.0,0.0,-3.2808,0.0,-3.7867,0.0,-3.5912,-3.3329,0.0,0.0,0.0,0.0,0.0,0.0,0.0,0.0,0.0,0.0,0.0,0.0,0.0,0.0,0.0,0.0,0.0,0.0,0.0,0.0,0.0,0.0,0.0,0.0,0.0,0.0,0.0,0.0,0.0,0.0,0.0,0.0,0.0,0.0,0.0,0.0,0.0,0.0,0.0,0.0,0.0,0.0,0.0,0.0,0.0,0.0,0.0,0.0,0.0,0.0,0.0,0.0,0.0,0.0,0.0,0.0,0.0,0.0,0.0,0.0,0.0,0.0,0.0,0.0,0.0,0.0,0.0,0.0,0.0,0.0,0.0,0.0,0.0,0.0,0.0,0.0,0.0,0.0,0.0,0.0,0.0,0.0,0.0,0.0,0.0,0.0,0.0,0.0,0.0,0.0,0.0,0.0,0.0,0.0,0.0,0.0,0.0,0.0,0.0,0.0,0.0,0.0,0.0,0.0,0.0,0.0,0.0,0.0,-3.2012,-3.7623,-4.0239,-4.0022,-3.7061,-3.6792,-3.3724,0.0,0.0,0.0,0.0,0.0,0.0,0.0,0.0,0.0,0.0,0.0,0.0,0.0,0.0,0.0,0.0,0.0,0.0,0.0,0.0,0.0,0.0,0.0,0.0,0.0,0.0,0.0,0.0,0.0,0.0,0.0,0.0,0.0,0.0,0.0,0.0,0.0,0.0,0.0,0.0,0.0,0.0,0.0,0.0,0.0,0.0,0.0,0.0,0.0,0.0,0.0,0.0,0.0,0.0,0.0,0.0,0.0,0.0,0.0,0.0,0.0,0.0,0.0,0.0,0.0,0.0,0.0,0.0,0.0,0.0,0.0,0.0,0.0,0.0,0.0,0.0,0.0,0.0,0.0,0.0,0.0,0.0,0.0,0.0,0.0,0.0,0.0,0.0,0.0,0.0,0.0,0.0,0.0,0.0,0.0,0.0,0.0,0.0,0.0,0.0,0.0,0.0,0.0,0.0,0.0,0.0,0.0,0.0,0.0,-3.5391,-3.7853,-3.9792,-4.0915,-3.663,-3.4075,0.0,0.0,0.0,0.0,0.0,0.0,0.0,0.0,0.0,0.0,0.0,0.0,0.0,0.0,0.0,0.0,0.0,0.0,0.0,0.0,0.0,0.0,0.0,0.0,0.0,0.0,0.0,0.0,0.0,0.0,0.0,0.0,0.0,0.0,0.0,0.0,0.0,0.0,0.0,0.0,0.0,0.0,0.0,0.0,0.0,0.0,0.0,0.0,0.0,0.0,0.0,0.0,0.0,0.0,0.0,0.0,0.0,0.0,0.0,0.0,0.0,0.0,0.0,0.0,0.0,0.0,0.0,0.0,0.0,0.0,0.0,0.0,0.0,0.0,0.0,0.0,0.0,0.0,0.0,0.0,0.0,0.0,0.0,0.0,0.0,0.0,0.0,0.0,0.0,0.0,0.0,0.0,0.0,0.0,0.0,0.0,0.0,0.0,0.0,0.0,0.0,0.0,0.0,0.0,0.0,0.0,0.0,0.0,0.0,-3.8507,-4.0623,-4.22,-4.3085,-3.8355,-3.5544,-3.4947,0.0,0.0,0.0,0.0,0.0,0.0,0.0,0.0,0.0,0.0,0.0,0.0,0.0,0.0,0.0,0.0,0.0,0.0,0.0,0.0,0.0,0.0,0.0,0.0,0.0,0.0,0.0,0.0,0.0,0.0,0.0,0.0,0.0,0.0,0.0,0.0,0.0,0.0,0.0,0.0,0.0,0.0,0.0,0.0,0.0,0.0,0.0,0.0,0.0,0.0,0.0,0.0,0.0,0.0,0.0,0.0,0.0,0.0,0.0,0.0,0.0,0.0,0.0,0.0,0.0,0.0,0.0,0.0,0.0,0.0,0.0,0.0,0.0,0.0,0.0,0.0,0.0,0.0,0.0,0.0,0.0,0.0,0.0,0.0,0.0,0.0,0.0,0.0,0.0,0.0,0.0,0.0,0.0,0.0,0.0,0.0,0.0,0.0,0.0,0.0,0.0,0.0,0.0,0.0,0.0,0.0,0.0,0.0,-4.5748,-4.7586,-4.6971,-4.3778,-4.167,-3.8016,0.0,0.0,0.0,0.0,0.0,0.0,0.0,0.0,0.0,0.0,0.0,0.0,0.0,0.0,0.0,0.0,0.0,0.0,0.0,0.0,0.0,0.0,0.0,0.0,0.0,0.0,0.0,0.0,0.0,0.0,0.0,0.0,0.0,0.0,0.0,0.0,0.0,0.0,0.0,0.0,0.0,0.0,0.0,0.0,0.0,0.0,0.0,0.0,0.0,0.0,0.0,0.0,0.0,0.0,0.0,0.0,0.0,0.0,0.0,0.0,0.0,0.0,0.0,0.0,0.0,0.0,0.0,0.0,0.0,0.0,0.0,0.0,0.0,0.0,0.0,0.0,0.0,0.0,0.0,0.0,0.0,0.0,0.0,0.0,0.0,0.0,0.0,0.0,0.0,0.0,0.0,0.0,0.0,0.0,0.0,0.0,0.0,0.0,0.0,0.0,0.0,0.0,0.0,0.0,0.0,0.0,0.0,0.0,0.0,-4.8317,-5.1895,-5.2395,-4.9615,-4.497,-4.086,0.0,0.0,0.0,0.0,0.0,0.0,0.0,0.0,0.0,0.0,0.0,0.0,0.0,0.0,0.0,0.0,0.0,0.0,0.0,0.0,0.0,0.0,0.0,0.0,0.0,0.0,0.0,0.0,0.0,0.0,0.0,0.0,0.0,0.0,0.0,0.0,0.0,0.0,0.0,0.0,0.0,0.0,0.0,0.0,0.0,0.0,0.0,0.0,0.0,0.0,0.0,0.0,0.0,0.0,0.0,0.0,0.0,0.0,0.0,0.0,0.0,0.0,0.0,0.0,0.0,0.0,0.0,0.0,0.0,0.0,0.0,0.0,0.0,0.0,0.0,0.0,0.0,0.0,0.0,0.0,0.0,0.0,0.0,0.0,0.0,0.0,0.0,0.0,0.0,0.0,0.0,0.0,0.0,0.0,0.0,0.0,0.0,0.0,0.0,0.0,0.0,0.0,0.0,0.0,0.0,0.0,0.0,0.0,-4.6394,-5.0933,-5.5126,-5.6434,-5.4615,-4.9548,-4.4606,0.0,0.0,0.0,0.0,0.0,0.0,0.0,0.0,0.0,0.0,0.0,0.0,0.0,0.0,0.0,0.0,0.0,0.0,0.0,0.0,0.0,0.0,0.0,0.0,0.0,0.0,0.0,0.0,0.0,0.0,0.0,0.0,0.0,0.0,0.0,0.0,0.0,0.0,0.0,0.0,0.0,0.0,0.0,0.0,0.0,0.0,0.0,0.0,0.0,0.0,0.0,0.0,0.0,0.0,0.0,0.0,0.0,0.0,0.0,0.0,0.0,0.0,0.0,0.0,0.0,0.0,0.0,0.0,0.0,0.0,0.0,0.0,0.0,0.0,0.0,0.0,0.0,0.0,0.0,0.0,0.0,0.0,0.0,0.0,0.0,0.0,0.0,0.0,0.0,0.0,0.0,0.0,0.0,0.0,0.0,0.0,0.0,0.0,0.0,0.0,0.0,0.0,0.0,0.0,0.0,0.0,0.0,0.0,-4.8394,-5.3395,-5.7319,-5.9088,-5.8319,-5.4115,-4.839,0.0,0.0,0.0,0.0,0.0,0.0,0.0,0.0,0.0,0.0,0.0,0.0,0.0,0.0,0.0,0.0,0.0,0.0,0.0,0.0,0.0,0.0,0.0,0.0,0.0,0.0,0.0,0.0,0.0,0.0,0.0,0.0,0.0,0.0,0.0,0.0,0.0,0.0,0.0,0.0,0.0,0.0,0.0,0.0,0.0,0.0,0.0,0.0,0.0,0.0,0.0,0.0,0.0,0.0,0.0,0.0,0.0,0.0,0.0,0.0,0.0,0.0,0.0,0.0,0.0,0.0,0.0,0.0,0.0,0.0,0.0,0.0,0.0,0.0,0.0,0.0,0.0,0.0,0.0,0.0,0.0,0.0,0.0,0.0,0.0,0.0,0.0,0.0,0.0,0.0,0.0,0.0,0.0,0.0,0.0,0.0,0.0,0.0,0.0,0.0,0.0,0.0,0.0,0.0,0.0,0.0,0.0,0.0,-5.0702,-5.5049,-5.7396,-5.8781,-5.9204,-5.3857,-4.8668,0.0,0.0,0.0,0.0,0.0,0.0,0.0,0.0,0.0,0.0,0.0,0.0,0.0,0.0,0.0,0.0,0.0,0.0,0.0,0.0,0.0,0.0,0.0,0.0,0.0,0.0,0.0,0.0,0.0,0.0,0.0,0.0,0.0,0.0,0.0,0.0,0.0,0.0,0.0,0.0,0.0,0.0,0.0,0.0,0.0,0.0,0.0,0.0,-3.0115,0.0,0.0,0.0,0.0,0.0,0.0,0.0,0.0,0.0,0.0,0.0,0.0,0.0,0.0,0.0,0.0,0.0,0.0,0.0,0.0,0.0,0.0,0.0,0.0,0.0,0.0,0.0,0.0,0.0,0.0,0.0,0.0,0.0,0.0,0.0,0.0,0.0,0.0,0.0,0.0,0.0,0.0,0.0,0.0,0.0,0.0,0.0,0.0,0.0,0.0,0.0,0.0,0.0,0.0,0.0,0.0,0.0,0.0,0.0,-5.1856,-5.5588,-5.778,-5.9242,-5.9896,-5.5164,-5.0364,0.0,0.0,0.0,0.0,0.0,0.0,0.0,0.0,0.0,0.0,0.0,0.0,0.0,0.0,0.0,0.0,0.0,0.0,0.0,0.0,0.0,0.0,0.0,0.0,0.0,0.0,0.0,0.0,0.0,0.0,0.0,0.0,0.0,0.0,0.0,0.0,0.0,0.0,0.0,0.0,0.0,0.0,0.0,0.0,0.0,0.0,0.0,0.0,0.0,0.0,0.0,0.0,0.0,0.0,0.0,0.0,0.0,0.0,0.0,0.0,0.0,0.0,0.0,0.0,0.0,0.0,0.0,0.0,0.0,0.0,0.0,0.0,0.0,0.0,0.0,0.0,0.0,0.0,0.0,0.0,0.0,0.0,0.0,0.0,0.0,0.0,0.0,0.0,0.0,0.0,0.0,0.0,0.0,0.0,0.0,0.0,0.0,0.0,0.0,0.0,0.0,0.0,0.0,0.0,0.0,0.0,0.0,-4.7095,-5.2318,-5.5972,-5.8088,-5.9665,-6.0704,-5.6549,-5.2068,-4.7393,0.0,0.0,0.0,0.0,0.0,0.0,0.0,0.0,0.0,0.0,0.0,0.0,0.0,0.0,0.0,0.0,0.0,0.0,0.0,0.0,0.0,0.0,0.0,0.0,0.0,0.0,0.0,0.0,0.0,0.0,0.0,0.0,0.0,0.0,0.0,0.0,0.0,0.0,-2.7765,-3.0815,0.0,0.0,0.0,0.0,0.0,0.0,0.0,0.0,-3.2891,0.0,0.0,0.0,0.0,0.0,0.0,0.0,0.0,0.0,0.0,0.0,0.0,0.0,0.0,0.0,0.0,0.0,0.0,0.0,0.0,0.0,0.0,0.0,0.0,0.0,0.0,0.0,0.0,0.0,0.0,0.0,0.0,0.0,0.0,0.0,0.0,0.0,0.0,0.0,0.0,0.0,0.0,0.0,0.0,0.0,0.0,0.0,0.0,0.0,0.0,0.0,0.0,0.0,0.0,0.0,0.0,-4.5538,-4.8279,-5.2279,-5.7703,-5.755,-5.8473,-6.055,-5.6011,-5.1776,-4.8212,0.0,0.0,0.0,0.0,0.0,0.0,0.0,0.0,0.0,0.0,0.0,0.0,0.0,0.0,0.0,0.0,0.0,0.0,0.0,0.0,0.0,0.0,0.0,0.0,0.0,0.0,0.0,0.0,0.0,0.0,0.0,0.0,0.0,0.0,0.0,0.0,0.0,0.0,0.0,-3.6002,-3.799,0.0,0.0,0.0,0.0,0.0,0.0,0.0,0.0,-3.3859,0.0,0.0,0.0,0.0,0.0,0.0,0.0,0.0,0.0,0.0,0.0,0.0,0.0,0.0,0.0,0.0,0.0,0.0,0.0,0.0,0.0,0.0,0.0,0.0,0.0,0.0,0.0,0.0,0.0,0.0,0.0,0.0,0.0,0.0,0.0,0.0,0.0,0.0,0.0,0.0,0.0,0.0,0.0,0.0,0.0,0.0,0.0,0.0,0.0,0.0,0.0,0.0,0.0,0.0,0.0,-4.5393,-5.024,-5.4511,-5.8127,-5.7896,-5.8665,-6.0589,-5.5065,-5.0827,0.0,0.0,0.0,0.0,0.0,0.0,0.0,0.0,0.0,0.0,0.0,0.0,0.0,0.0,0.0,0.0,0.0,0.0,0.0,0.0,0.0,0.0,0.0,0.0,0.0,0.0,0.0,0.0,0.0,0.0,0.0,0.0,0.0,0.0,0.0,0.0,0.0,0.0,0.0,0.0,-3.7797,-3.9665,-4.0516,0.0,0.0,0.0,0.0,0.0,0.0,-3.7084,-3.543,0.0,0.0,0.0,0.0,0.0,0.0,0.0,0.0,0.0,0.0,0.0,0.0,0.0,0.0,0.0,0.0,0.0,0.0,0.0,0.0,0.0,0.0,0.0,0.0,0.0,0.0,0.0,0.0,0.0,0.0,0.0,0.0,0.0,0.0,0.0,0.0,0.0,0.0,0.0,0.0,0.0,0.0,0.0,0.0,0.0,0.0,0.0,0.0,0.0,0.0,0.0,0.0,0.0,0.0,0.0,-4.4355,-5.151,-5.6126,-5.7934,-5.8204,-5.8934,-6.0127,-5.4303,-5.0061,0.0,0.0,0.0,0.0,0.0,0.0,0.0,0.0,0.0,0.0,0.0,0.0,0.0,0.0,0.0,0.0,0.0,0.0,0.0,0.0,0.0,0.0,0.0,0.0,0.0,0.0,0.0,0.0,0.0,0.0,0.0,0.0,0.0,0.0,0.0,0.0,0.0,0.0,0.0,0.0,0.0,-4.1546,-4.2893,-4.1354,0.0,0.0,0.0,0.0,-4.1285,-3.9969,0.0,0.0,0.0,0.0,0.0,0.0,0.0,0.0,0.0,0.0,0.0,0.0,0.0,0.0,0.0,0.0,0.0,0.0,0.0,0.0,0.0,0.0,0.0,0.0,0.0,0.0,0.0,0.0,0.0,0.0,0.0,0.0,0.0,0.0,0.0,0.0,0.0,0.0,0.0,0.0,0.0,0.0,0.0,0.0,0.0,0.0,0.0,0.0,0.0,0.0,0.0,0.0,0.0,0.0,0.0,0.0,-4.4278,-5.0356,-5.4664,-5.7022,-5.7896,-5.8396,-5.8511,-5.4262,-5.0129,0.0,0.0,0.0,0.0,0.0,0.0,0.0,0.0,0.0,0.0,0.0,0.0,0.0,0.0,0.0,0.0,0.0,0.0,0.0,0.0,0.0,0.0,0.0,0.0,0.0,0.0,0.0,0.0,0.0,0.0,0.0,0.0,0.0,0.0,0.0,0.0,0.0,0.0,0.0,0.0,0.0,-4.6124,-4.347,-4.2854,-4.2624,0.0,0.0,-4.3085,-4.4748,-4.5393,0.0,0.0,0.0,0.0,0.0,0.0,0.0,0.0,0.0,0.0,0.0,0.0,0.0,0.0,0.0,0.0,0.0,0.0,0.0,0.0,0.0,0.0,0.0,0.0,0.0,0.0,0.0,0.0,0.0,0.0,0.0,0.0,0.0,0.0,0.0,0.0,0.0,0.0,0.0,0.0,0.0,0.0,0.0,0.0,0.0,0.0,0.0,0.0,0.0,0.0,0.0,0.0,0.0,0.0,0.0,-4.0546,-4.5094,-5.1856,-5.5895,-5.6945,-5.7357,-5.778,-5.828,-5.2893,-4.8643,0.0,0.0,0.0,0.0,0.0,0.0,0.0,0.0,0.0,0.0,0.0,0.0,0.0,0.0,0.0,0.0,0.0,0.0,0.0,0.0,0.0,0.0,0.0,0.0,0.0,0.0,0.0,0.0,0.0,0.0,0.0,0.0,0.0,0.0,0.0,0.0,0.0,0.0,0.0,0.0,0.0,0.0,-4.5932,-4.5547,0.0,0.0,0.0,-4.6201,-4.6894,0.0,0.0,0.0,0.0,0.0,0.0,0.0,0.0,0.0,0.0,0.0,0.0,0.0,0.0,0.0,0.0,0.0,0.0,0.0,0.0,0.0,0.0,0.0,0.0,0.0,0.0,0.0,0.0,0.0,0.0,0.0,0.0,0.0,0.0,0.0,0.0,0.0,0.0,0.0,0.0,0.0,0.0,0.0,0.0,0.0,0.0,0.0,0.0,0.0,0.0,0.0,0.0,0.0,0.0,0.0,0.0,0.0,-4.5633,-5.3136,-5.6907,-5.6676,-5.6907,-5.7236,-5.7569,-5.2235,0.0,0.0,0.0,0.0,0.0,0.0,0.0,0.0,0.0,0.0,0.0,0.0,0.0,0.0,0.0,0.0,0.0,0.0,0.0,0.0,0.0,0.0,0.0,0.0,0.0,0.0,0.0,-2.2829,0.0,0.0,0.0,0.0,0.0,0.0,0.0,0.0,0.0,0.0,0.0,0.0,0.0,0.0,-4.6163,-4.7894,-4.8125,-4.8538,0.0,0.0,-4.9125,-4.9346,-4.9933,-4.8471,0.0,0.0,0.0,0.0,0.0,0.0,0.0,0.0,0.0,0.0,0.0,0.0,0.0,0.0,0.0,0.0,0.0,0.0,0.0,0.0,0.0,0.0,0.0,0.0,0.0,0.0,0.0,0.0,0.0,0.0,0.0,0.0,0.0,0.0,0.0,0.0,0.0,0.0,0.0,0.0,0.0,0.0,0.0,0.0,0.0,0.0,0.0,0.0,0.0,0.0,0.0,0.0,0.0,0.0,0.0,-4.571,-5.3097,-5.6599,-5.5818,-5.6588,-5.6675,-5.6046,-5.3463,-4.9382,0.0,0.0,0.0,0.0,0.0,0.0,0.0,0.0,0.0,0.0,0.0,0.0,0.0,0.0,0.0,0.0,0.0,0.0,0.0,0.0,0.0,0.0,0.0,0.0,0.0,0.0,0.0,0.0,0.0,0.0,0.0,0.0,0.0,0.0,0.0,0.0,0.0,0.0,0.0,0.0,0.0,-4.8817,-4.8202,-5.0077,-5.2154,0.0,0.0,-5.1923,-5.2741,-5.4818,-5.3356,-4.447,0.0,0.0,0.0,0.0,0.0,0.0,0.0,0.0,0.0,0.0,0.0,0.0,0.0,0.0,0.0,0.0,0.0,0.0,0.0,0.0,0.0,0.0,0.0,0.0,0.0,0.0,0.0,0.0,0.0,0.0,0.0,0.0,0.0,0.0,0.0,0.0,0.0,0.0,0.0,0.0,0.0,0.0,0.0,0.0,0.0,0.0,0.0,0.0,0.0,0.0,0.0,0.0,0.0,-4.217,-4.5594,-5.2597,-5.6011,-5.5752,-5.6022,-5.6107,-5.5915,-5.3466,-4.9709,0.0,0.0,0.0,0.0,0.0,0.0,0.0,0.0,0.0,0.0,0.0,0.0,0.0,0.0,0.0,0.0,0.0,0.0,0.0,0.0,0.0,0.0,0.0,0.0,0.0,0.0,0.0,0.0,-2.7888,-2.8163,-2.7168,0.0,0.0,0.0,0.0,0.0,0.0,0.0,0.0,0.0,0.0,-5.0048,-5.1779,-5.3318,0.0,0.0,-5.5483,-5.478,-5.4126,-5.4357,-5.2395,-4.5701,-4.3316,0.0,0.0,0.0,0.0,0.0,0.0,0.0,0.0,0.0,0.0,0.0,0.0,0.0,0.0,0.0,0.0,0.0,0.0,0.0,0.0,0.0,0.0,0.0,0.0,0.0,0.0,0.0,0.0,0.0,0.0,0.0,0.0,0.0,0.0,0.0,0.0,0.0,0.0,0.0,0.0,0.0,0.0,0.0,0.0,0.0,0.0,0.0,0.0,0.0,0.0,0.0,0.0,-4.217,-4.5594,-5.2241,-5.5703,-5.5703,-5.5703,-5.5798,-5.5923,-5.403,-5.0664,0.0,0.0,0.0,0.0,0.0,0.0,0.0,0.0,0.0,0.0,0.0,0.0,0.0,0.0,0.0,0.0,0.0,0.0,0.0,0.0,0.0,0.0,0.0,0.0,0.0,0.0,0.0,0.0,-2.9378,-2.9205,-2.7772,0.0,0.0,0.0,0.0,0.0,0.0,0.0,0.0,0.0,0.0,-5.151,-5.4126,-5.5164,-5.6099,-5.7253,-5.6511,-5.5511,-5.4626,-5.4164,-5.2125,-4.6855,0.0,0.0,0.0,0.0,0.0,0.0,0.0,0.0,0.0,0.0,0.0,0.0,0.0,0.0,0.0,0.0,0.0,0.0,0.0,0.0,0.0,0.0,0.0,0.0,0.0,0.0,0.0,0.0,0.0,0.0,-3.0462,0.0,0.0,0.0,0.0,0.0,0.0,0.0,0.0,0.0,0.0,0.0,0.0,0.0,0.0,0.0,0.0,0.0,0.0,0.0,0.0,0.0,0.0,-4.2209,-4.5633,-5.2279,-5.5703,-5.5703,-5.5703,-5.5834,-5.6131,-5.5286,-5.2504,-4.7578,0.0,0.0,0.0,0.0,0.0,0.0,0.0,0.0,0.0,0.0,0.0,0.0,0.0,0.0,0.0,0.0,0.0,0.0,0.0,0.0,0.0,0.0,0.0,0.0,0.0,0.0,-2.8027,-2.8018,-2.7772,0.0,0.0,0.0,0.0,0.0,0.0,0.0,0.0,0.0,0.0,-4.9394,-5.3433,-5.4395,-5.5203,-5.6357,-5.805,-5.5511,-5.3626,-5.4434,-5.5088,-5.3664,0.0,0.0,0.0,0.0,0.0,0.0,0.0,0.0,0.0,0.0,0.0,0.0,0.0,0.0,0.0,0.0,0.0,0.0,0.0,0.0,0.0,0.0,0.0,0.0,0.0,0.0,0.0,-3.9738,-3.8361,0.0,0.0,0.0,0.0,0.0,0.0,0.0,0.0,0.0,0.0,0.0,-4.5509,-4.5547,0.0,0.0,0.0,0.0,0.0,0.0,0.0,0.0,0.0,0.0,0.0,0.0,-4.3047,-4.6586,-5.2549,-5.5703,-5.5703,-5.5703,-5.5564,-5.5319,-5.4508,-5.1179,-4.5195,0.0,0.0,0.0,0.0,0.0,0.0,0.0,0.0,0.0,0.0,0.0,0.0,0.0,0.0,0.0,0.0,0.0,0.0,0.0,0.0,0.0,0.0,0.0,0.0,0.0,-2.8939,0.0,0.0,0.0,0.0,0.0,0.0,0.0,0.0,0.0,0.0,0.0,-4.3278,-4.7163,-5.0894,-5.3703,-5.5088,-5.6511,-5.7819,0.0,0.0,0.0,0.0,0.0,0.0,0.0,0.0,0.0,0.0,0.0,0.0,0.0,0.0,-4.5009,-3.8007,-3.6469,-3.6392,-3.6661,0.0,0.0,0.0,0.0,0.0,0.0,0.0,0.0,0.0,0.0,0.0,0.0,0.0,0.0,-4.447,0.0,-4.1978,0.0,0.0,0.0,0.0,0.0,0.0,0.0,0.0,-4.6663,-4.8856,-4.9856,-5.0164,-4.9586,0.0,-4.597,-4.2277,0.0,0.0,0.0,0.0,0.0,0.0,0.0,0.0,-4.3615,-4.7346,-5.2549,-5.5434,-5.5665,-5.5395,-5.5177,-5.4886,-5.3576,-5.0538,-4.5664,-4.2187,-3.8748,0.0,0.0,0.0,0.0,0.0,0.0,0.0,0.0,0.0,0.0,0.0,0.0,0.0,0.0,0.0,0.0,0.0,0.0,0.0,0.0,0.0,0.0,0.0,-2.9775,0.0,0.0,0.0,0.0,0.0,0.0,0.0,0.0,0.0,-3.97,-4.3278,-4.6971,-5.0279,-5.2933,-5.4818,-5.5588,0.0,0.0,0.0,0.0,0.0,0.0,0.0,-5.3126,-5.1433,-5.101,-5.0664,-5.001,-5.0818,-5.1279,-5.0404,0.0,0.0,-4.3192,-4.1731,-4.1623,-4.1931,-4.3047,-4.3893,-4.3671,-4.5133,-4.6394,0.0,0.0,0.0,0.0,0.0,0.0,0.0,0.0,-5.0125,-4.9202,0.0,-4.6624,0.0,0.0,0.0,0.0,0.0,-4.3401,0.0,0.0,-5.2549,-5.4857,-5.3472,-5.4164,-5.4087,-5.3203,-5.151,-4.898,-4.5518,-3.9154,0.0,0.0,0.0,0.0,0.0,0.0,-4.4008,-4.8163,-5.2395,-5.4857,-5.5588,-5.4895,-5.4598,-5.4736,-5.2587,-5.0625,-4.8906,-4.5625,-4.2224,-3.8814,-3.5427,0.0,0.0,0.0,0.0,0.0,0.0,0.0,0.0,0.0,0.0,0.0,0.0,0.0,0.0,0.0,0.0,0.0,0.0,0.0,0.0,-2.9967,0.0,0.0,0.0,0.0,0.0,0.0,0.0,0.0,0.0,0.0,-4.3393,-4.7586,-5.1366,-5.2972,0.0,0.0,0.0,0.0,-5.6088,-5.7022,-5.5703,-5.4934,-5.5703,-5.6395,-5.6329,-5.478,0.0,0.0,-5.3895,-5.3346,-5.2587,-5.0164,-5.1164,-5.2,-5.1846,-4.9625,-4.8394,-4.9125,-4.8702,-4.8625,-4.9356,-5.0058,-5.0789,-5.8731,0.0,0.0,0.0,0.0,-5.378,-5.5203,-5.7857,-5.6973,-5.5126,-5.2626,-5.2164,0.0,0.0,0.0,0.0,0.0,0.0,-4.9625,-5.201,-5.4559,-5.6088,-5.6819,-5.6434,-5.5818,-5.4934,-5.3895,-5.2279,-5.001,-4.6932,-4.1816,-3.4885,0.0,0.0,0.0,0.0,-4.6317,-4.9904,-5.2972,-5.4626,-5.4818,-5.4626,-5.4057,-5.3063,-5.1885,-5.0808,-4.9844,-4.8154,-4.568,-4.2286,-3.9481,0.0,0.0,0.0,0.0,0.0,0.0,0.0,0.0,0.0,0.0,0.0,0.0,0.0,0.0,0.0,0.0,0.0,0.0,0.0,-2.989,-3.1314,-3.2199,0.0,0.0,0.0,0.0,0.0,0.0,0.0,0.0,0.0,-4.8394,-5.0279,-5.2202,0.0,0.0,-5.5357,-5.5665,-5.6242,-5.7126,-5.8588,-5.7896,0.0,0.0,-5.6742,-5.6137,-5.6242,-5.7434,-5.7973,-5.7011,-5.6319,-5.5675,-5.4867,-5.4703,-5.4626,-5.4511,-5.3087,-5.1895,-5.2087,-5.2395,-5.2702,-5.301,-5.3703,-5.4241,-6.5221,-6.1089,-5.91,-5.8704,-5.9423,-5.8934,-6.0281,-6.2743,-6.1897,-6.0396,-5.8434,-5.7434,-5.4164,-4.924,-4.7932,0.0,0.0,0.0,-5.2895,-5.5511,-5.6319,-5.728,-5.8242,-5.8088,-5.7357,-5.6203,-5.5357,-5.428,-5.2895,-5.1202,-4.7048,-4.0692,0.0,0.0,-4.1085,-4.4393,-4.7625,-5.0635,-5.251,-5.3626,-5.3972,-5.3781,-5.3056,-5.1862,-5.1464,-5.108,-5.0617,-4.9752,-4.8033,-4.5305,-4.2729,-3.936,0.0,0.0,0.0,0.0,0.0,0.0,0.0,0.0,0.0,0.0,0.0,-2.9037,0.0,0.0,0.0,0.0,-2.9852,-3.1352,-3.3699,-3.4507,0.0,0.0,0.0,0.0,0.0,0.0,0.0,-4.4932,-4.8163,-5.0664,-5.2049,-5.3203,-5.4318,-5.5357,-5.578,-5.6203,-5.6665,0.0,-5.7973,-5.9319,-5.9088,-5.8896,-5.9204,-5.8396,-5.7896,-5.8407,-5.8934,-5.9127,-5.8819,-5.8319,-5.7791,-5.7137,-5.656,-5.6099,-5.5742,-5.4857,-5.4203,-5.4203,-5.4587,-5.4972,-5.4972,-5.5357,-5.5703,-7.0126,-6.9513,-6.4743,-6.3128,-6.3692,-6.3705,-6.4628,-6.6013,-6.5166,-6.4705,-6.4436,-6.205,-5.9561,-5.6907,-5.3895,0.0,-5.3626,-5.4511,-5.578,-5.733,-5.8127,-5.8511,-5.855,-5.9165,-5.8665,-5.7099,-5.6214,-5.5395,-5.4511,-5.2933,-5.0923,-4.8586,-4.6201,-4.524,-4.571,-4.6624,-4.8317,-5.075,-5.1548,-5.2328,-5.3089,-5.2537,-5.1877,-5.1133,-5.1301,-5.1282,-5.1091,-5.0499,-4.9375,-4.7617,-4.5156,-4.1874,-3.772,0.0,0.0,0.0,0.0,0.0,0.0,0.0,0.0,0.0,0.0,0.0,0.0,0.0,0.0,0.0,-3.3311,0.0,-3.9207,-3.8815,0.0,0.0,0.0,-3.9277,-4.1016,-4.4055,-4.6317,-4.7201,0.0,0.0,-5.4511,-5.6126,-5.7214,-5.7176,-5.7819,-5.8308,-5.8396,-5.8357,-5.8665,-5.955,-5.9627,-5.9896,-6.0512,-6.055,-6.0473,-6.055,-6.0781,-6.0435,-5.9742,-5.9473,-5.8819,-5.7599,-5.7176,-5.683,-5.5972,-5.5791,-5.5791,-5.5626,-5.5626,-5.5665,-5.5626,-5.5665,-5.5703,-7.1832,-7.1437,-6.959,-6.8167,-6.7205,-6.7192,-6.7436,-6.7744,-6.6859,-6.5782,-6.4512,-6.3281,-6.0973,-5.7973,-5.778,-5.7473,-5.7126,-5.7934,-5.8858,-5.9896,-6.0127,-6.0204,-6.0204,-5.9704,-5.8973,-5.7973,-5.7099,-5.6242,-5.5395,-5.4395,-5.3587,-5.2933,-5.1702,-4.9586,-4.6778,-4.8048,-4.974,-5.1577,-5.1808,-5.2059,-5.2321,-5.1765,-5.1335,-5.1094,-5.118,-5.0943,-5.0304,-5.0122,-4.9283,-4.7656,-4.5742,-4.3319,-4.0217,-3.5661,0.0,0.0,0.0,0.0,0.0,0.0,0.0,0.0,0.0,-3.3612,-2.9288,0.0,-3.4626,0.0,-3.8137,-4.0315,-4.1115,-4.1623,0.0,0.0,-4.394,-4.4701,-4.7009,-4.8596,-4.9779,-5.0615,-5.3318,-5.5203,-5.5395,-5.7434,-5.8896,-5.8896,-5.855,-5.8511,-5.9088,-5.9204,-5.9511,-6.0281,-6.0435,-6.055,-6.0742,-6.0781,-6.0781,-6.0781,-6.0781,-6.0742,-6.0512,-5.9935,-5.9358,-5.8934,-5.8396,-5.7703,-5.6868,-5.6714,-5.6406,-5.5857,-5.5703,-5.5703,-5.5703,-5.5703,-5.5703,-7.3231,-7.2706,-7.1822,-7.0744,-6.9513,-6.9513,-6.9513,-6.9436,-6.8205,-6.7167,-6.6205,-6.4589,-6.2627,-6.0589,-6.0627,-6.0396,-6.0012,-6.005,-6.0319,-6.0781,-6.0781,-6.0781,-6.0781,-6.0319,-5.9473,-5.828,-5.7819,-5.6934,-5.5742,-5.5241,-5.4857,-5.4511,-5.401,-5.2433,-4.9856,-5.024,-5.0971,-5.1885,-5.1615,-5.1509,-5.1625,-5.1367,-5.1011,-5.0524,-5.0689,-5.0319,-4.9361,-4.9066,-4.8352,-4.707,-4.5742,-4.3788,-4.1205,-3.7694,-3.5115,0.0,0.0,0.0,0.0,0.0,0.0,0.0,0.0,0.0,0.0,0.0,-3.716,-3.8284,-4.1123,-4.3239,-4.4008,-4.4816,-4.6009,-4.7711,-4.7865,-4.8702,-5.0856,-5.1856,-5.2702,-5.351,-5.5164,-5.6549,-5.7319,-5.8627,-5.9627,-6.0012,-5.9704,-5.9588,-5.9973,-6.0089,-6.0242,-6.0742,-6.0781,-6.0781,-6.0781,-6.0781,-6.0781,-6.0781,-6.0781,-6.0781,-6.0781,-6.0396,-5.9973,-5.9588,-5.9127,-5.855,-5.7742,-5.7242,-5.683,-5.6406,-5.5945,-5.5703,-5.5703,-5.5703,-5.5703,-7.4245,-7.3437,-7.2552,-7.1668,-7.0898,-7.0898,-7.0898,-7.0783,-6.9244,-6.8436,-6.809,-6.5782,-6.4282,-6.3423,-6.2743,-6.2332,-6.2062,-6.1293,-6.0896,-6.0781,-6.0781,-6.0781,-6.0781,-6.0781,-5.9935,-5.8319,-5.8269,-5.7396,-5.5703,-5.5703,-5.5357,-5.4664,-5.4626,-5.428,-5.351,-5.2538,-5.1962,-5.1741,-5.1191,-5.0959,-5.1089,-5.1174,-5.0751,-4.988,-5.0056,-4.9553,-4.8236,-4.7788,-4.7148,-4.6172,-4.5391,-4.3945,-4.1641,-3.9766,-3.8357,0.0,-3.5701,0.0,0.0,0.0,0.0,0.0,0.0,0.0,0.0,-3.9304,-3.97,-4.1054,-4.347,-4.5624,-4.7231,-4.8125,-4.924,-5.0818,-5.1125,-5.1779,-5.3203,-5.4126,-5.4934,-5.578,-5.6637,-5.778,-5.9165,-5.955,-5.9973,-6.0589,-6.0704,-6.0666,-6.0781,-6.0742,-6.0742,-6.0781,-6.0781,-6.0781,-6.0781,-6.0781,-6.0781,-6.0781,-6.0781,-6.0781,-6.0781,-6.0781,-6.055,-5.9858,-5.9704,-5.9396,-5.8627,-5.778,-5.7176,-5.6945,-5.6291,-5.5703,-5.5703,-5.5703,-5.5703,-7.4245,-7.3437,-7.2552,-7.1706,-7.0898,-7.0898,-7.0898,-7.0821,-6.986,-6.8667,-6.7282,-6.6128,-6.5166,-6.4359,-6.4205,-6.3397,-6.2101,-6.1947,-6.1485,-6.0781,-6.0781,-6.0781,-6.0781,-6.0781,-5.9935,-5.8346,-5.8269,-5.7396,-5.5703,-5.5703,-5.5626,-5.5472,-5.5472,-5.5395,-5.5164,0.0,0.0,0.0,-5.1023,-5.1069,-5.1099,-5.1295,-5.0873,-4.9876,-5.0056,0.0,-4.6593,-4.7164,-4.6875,-4.5351,-4.5078,0.0,0.0,0.0,0.0,0.0,0.0,0.0,0.0,0.0,0.0,0.0,-4.1894,-4.1124,-4.0431,-4.3294,-4.5086,-4.4748,-4.6932,-4.8856,-4.9856,-5.0702,-5.1615,-5.2626,-5.3356,-5.3933,-5.428,-5.4972,-5.578,-5.6637,-5.7511,-5.8434,-5.9396,-6.0089,-6.0589,-6.0742,-6.0781,-6.0781,-6.0781,-6.0781,-6.0781,-6.0781,-6.0781,-6.0781,-6.0781,-6.0781,-6.0781,-6.0781,-6.0781,-6.0781,-6.0781,-6.0781,-6.0781,-6.0512,-6.055,-6.0281,-5.9435,-5.8627,-5.7857,-5.7137,-5.6329,-5.5703,-5.5703,-5.5703,-5.5703,-7.463,0.0,-7.3014,-7.2091,0.0,-7.0898,-7.0898,-7.086,-7.0052,-6.8744,-6.7064,-6.6244,-6.5667,-6.5205,-6.4782,-6.3897,-6.2666,-6.2293,-6.1639,-6.0819,-6.0781,-6.0781,-6.0781,-6.0781,-6.0127,-5.8896,-5.8462,-5.7627,-5.6368,-5.5906,-5.5703,-5.5703,-5.5703,-5.5703,-5.5626,-5.4049,-5.2356,-5.0712,-5.0889,-5.102,-5.1094,-5.124,-5.0869,-4.9949,0.0,0.0,0.0,0.0,0.0,0.0,0.0,0.0,0.0,0.0,0.0,-4.2804,-4.2022,-4.1795,-4.2434,-4.2873,-4.3849,-4.5449,-4.597,-4.547,-4.3816,-4.6394,-4.7971,-4.7595,-4.9394,-5.0818,-5.1241,-5.2049,-5.2895,-5.3741,-5.4241,-5.4626,-5.5088,-5.5818,-5.6676,-5.7511,-5.8396,-5.9204,-6.005,-6.0473,-6.0781,-6.0781,-6.0781,-6.0781,-6.0781,-6.0781,-6.0781,-6.0781,-6.0781,-6.0781,-6.0781,-6.0781,-6.0781,-6.0781,-6.0781,-6.0781,-6.0781,-6.0781,-6.0781,-6.0781,-6.0781,-6.0627,-6.0204,-5.9473,-5.8627,-5.778,-5.6934,-5.6165,-5.5818,-5.5703,-5.5703,-7.5014,-7.3514,-7.35,-7.2514,-7.0898,-7.0898,-7.0898,-7.0821,0.0,0.0,0.0,-6.632,-6.5897,-6.582,-6.5166,-6.4282,-6.3281,-6.2627,-6.1743,-6.0819,-6.0781,-6.0781,-6.0781,-6.0781,-6.0358,-5.9473,-5.8704,-5.7857,-5.6983,-5.6126,-5.5703,-5.5703,-5.5703,-5.5626,-5.5395,-5.3972,-5.2433,-5.0991,-5.0897,-5.0966,-5.1053,-5.1154,-5.0808,-4.9981,-5.011,-4.9332,-4.7461,-4.6987,-4.6367,-4.5508,-4.4922,-4.4883,-4.543,-4.5586,-4.6206,-4.7301,-4.7533,-4.759,-4.7507,-4.8121,-4.8268,-4.7619,-4.8845,-4.9048,-4.7663,-4.8971,-4.9817,-4.9856,-5.1241,-5.2192,-5.2346,-5.3,-5.378,-5.4626,-5.4703,-5.5049,-5.5829,-5.6522,-5.7357,-5.8357,-5.9088,-5.9819,-6.0627,-6.0781,-6.0781,-6.0781,-6.0781,-6.0781,-6.0781,-6.0781,-6.0781,-6.0781,-6.0781,-6.0781,-6.0781,-6.0781,-6.0781,-6.0781,-6.0781,-6.0781,-6.0781,-6.0781,-6.0781,-6.0781,-6.0781,-6.0781,-6.0742,-6.005,-5.9242,-5.8434,-5.7588,-5.6753,-5.5934,-5.5703,-5.5703,-7.5014,-7.35,-7.35,-7.2514,-7.0898,-7.0898,-7.0898,-7.0783,-6.9244,-6.8423,-6.8129,-6.659,-6.5897,-6.5897,-6.5743,-6.482,-6.3308,-6.3205,-6.232,-6.0819,-6.0781,-6.0781,-6.0781,-6.0781,-6.0358,-5.9511,-5.8704,-5.7857,-5.6983,-5.6137,-5.5703,-5.5703,-5.5703,-5.5357,-5.4626,-5.3703,-5.2741,-5.1741,-5.1167,-5.0903,-5.0932,-5.1082,-5.0745,-4.9901,-5.01,-4.9332,-4.75,-4.8119,-4.8125,-4.7305,-4.7851,-4.7891,-4.7305,-4.793,-4.8082,-4.7502,-4.8084,-4.8791,-4.9338,-4.9401,-4.9681,-5.0264,-5.0438,-5.0404,-5.0202,-5.101,-5.1548,-5.1577,-5.2433,-5.3318,-5.401,-5.4203,-5.4626,-5.5357,-5.5511,-5.5857,-5.6676,-5.6983,-5.7676,-5.9088,-5.9435,-5.9858,-6.0627,-6.0781,-6.0781,-6.0781,-6.0781,-6.0781,-6.0781,-6.0781,-6.0781,-6.0781,-6.0781,-6.0781,-6.0781,-6.0781,-6.0781,-6.0781,-6.0781,-6.0781,-6.0781,-6.0781,-6.0781,-6.0781,-6.0781,-6.0781,-6.0781,-6.0089,-5.9319,-5.855,-5.7703,-5.683,-5.5983,-5.5742,-5.5703,-7.4591,-7.3514,-7.3014,-7.2052,-7.0898,-7.0898,-7.0898,-7.0744,-6.9129,-6.8398,-6.8205,-6.6628,-6.5897,-6.5897,-6.5897,-6.5205,-6.3974,-6.3512,-6.2666,-6.1512,-6.1012,-6.0781,-6.0781,-6.0781,-6.0589,-6.0127,-5.8896,-5.8088,-5.7627,-5.6357,-5.5703,-5.5703,-5.5703,-5.5511,-5.5126,-5.4318,-5.3472,-5.2587,-5.1393,-5.0819,-5.0889,-5.1045,-5.0945,-5.0566,-5.0731,-5.0273,-4.8976,-4.9335,-4.9219,-4.832,-4.8672,-4.8906,-4.9023,-4.9375,-4.9566,-4.9493,-4.9903,-5.0276,-5.0485,-5.0453,-5.0571,-5.0896,-5.1269,-5.1481,-5.1443,-5.1741,-5.2115,-5.2577,-5.3395,-5.4049,-5.4472,-5.4895,-5.5318,-5.5665,-5.6088,-5.6549,-5.7022,-5.7896,-5.8665,-5.9396,-5.9935,-6.0358,-6.0742,-6.0781,-6.0781,-6.0781,-6.0781,-6.0781,-6.0781,-6.0781,-6.0781,-6.0781,-6.0781,-6.0781,-6.0781,-6.0781,-6.0781,-6.0781,-6.0781,-6.0781,-6.0781,-6.0781,-6.0781,-6.0781,-6.0781,-6.0781,-6.0781,-6.0512,-5.9896,-5.9127,-5.828,-5.7434,-5.6676,-5.606,-5.5703,-7.4245,-7.3423,-7.2552,-7.1668,-7.0898,-7.0898,-7.0898,-7.0706,-6.9115,-6.8398,-6.8167,-6.6628,-6.5897,-6.5897,-6.5897,-6.5436,-6.4551,-6.3705,-6.2858,-6.2062,-6.1204,-6.0781,-6.0781,-6.0781,-6.0781,-6.0627,-5.9281,-5.8473,-5.8127,-5.6742,-5.5857,-5.5742,-5.5703,-5.5703,-5.5703,-5.4895,-5.4157,-5.3485,-5.1866,-5.1001,-5.0889,-5.102,-5.1113,-5.1201,-5.1322,-5.1094,-5.0508,-5.0469,-5.0156,-4.9531,-4.9453,-4.9766,-5.0391,-5.0469,-5.0701,-5.119,-5.1324,-5.1315,-5.1156,-5.133,-5.1366,-5.1301,-5.1987,-5.2503,-5.2722,-5.263,-5.2847,-5.3504,-5.4304,-5.4843,-5.4911,-5.5312,-5.5742,-5.5972,-5.6599,-5.7176,-5.7638,-5.8742,-5.9588,-5.9819,-6.0396,-6.0781,-6.0781,-6.0781,-6.0781,-6.0781,-6.0781,-6.0781,-6.0781,-6.0781,-6.0781,-6.0781,-6.0781,-6.0781,-6.0781,-6.0781,-6.0781,-6.0781,-6.0781,-6.0781,-6.0781,-6.0781,-6.0781,-6.0781,-6.0781,-6.0781,-6.0781,-6.0781,-6.0396,-5.9627,-5.8934,-5.8242,-5.7137,-5.6252,-5.5742,-7.4245,-7.3423,-7.2514,-7.1706,-7.0937,-7.0898,-7.0898,-7.0667,-6.9129,-6.8398,-6.8244,-6.6628,-6.5897,-6.5897,-6.5897,-6.5436,-6.4589,-6.3705,-6.2897,-6.2101,-6.1204,-6.0781,-6.0781,-6.0781,-6.0781,-6.0666,-5.9819,-5.8973,-5.828,-5.7291,-5.6445,-5.578,-5.5703,-5.5703,-5.5626,-5.4934,-5.4516,-5.4544,-5.288,-5.1641,-5.0935,-5.102,-5.1109,-5.1201,-5.1322,-5.1367,-5.125,-5.1289,-5.125,-5.1172,-5.1133,-5.1172,-5.125,-5.1289,-5.1289,-5.1367,-5.1406,-5.1323,-5.1279,-5.1935,-5.2361,-5.2392,-5.3013,-5.3768,-5.4458,-5.4602,-5.4582,-5.4723,-5.528,-5.5681,-5.5758,-5.5779,-5.606,-5.6714,-5.7022,-5.7599,-5.8896,-5.9396,-5.9781,-6.0589,-6.0704,-6.0781,-6.0816,-6.0827,-6.0804,-6.08,-6.0804,-6.0781,-6.0781,-6.0781,-6.0781,-6.0781,-6.0781,-6.0781,-6.0781,-6.0781,-6.0781,-6.0781,-6.0781,-6.0781,-6.0781,-6.0781,-6.0781,-6.0781,-6.0781,-6.0781,-6.0781,-6.0781,-6.0512,-5.9935,-5.9396,-5.8858,-5.7407,-5.6368,-5.5857,-7.3822,-7.336,-7.2014,-7.1245,-7.0937,-7.0898,-7.0898,-7.0744,-6.9115,-6.8398,-6.8167,-6.6628,-6.5897,-6.5897,-6.5897,-6.5667,-6.532,-6.4474,-6.3628,-6.2781,-6.1985,-6.132,-6.0819,-6.0781,-6.0781,-6.0704,-5.9896,-5.9088,-5.8204,-5.6896,-5.6049,-5.5742,-5.5703,-5.5703,-5.5665,-5.5357,-5.5037,-5.4684,-5.3995,-5.3048,-5.194,-5.1406,-5.1171,-5.1206,-5.1322,-5.1406,-5.1406,-5.1406,-5.1406,-5.1406,-5.1406,-5.1406,-5.1406,-5.1406,-5.1406,-5.1445,-5.1914,-5.2106,-5.1989,-5.2833,-5.3344,-5.3277,-5.4024,-5.466,-5.5007,-5.5478,-5.5775,-5.576,-5.5831,-5.5924,-5.5946,-5.6213,-5.6599,-5.706,-5.7857,-5.8742,-5.9396,-5.9973,-6.0435,-6.0742,-6.0781,-6.0861,-6.0884,-6.0925,-6.0925,-6.0895,-6.0877,-6.087,-6.0819,-6.0781,-6.0781,-6.0781,-6.0781,-6.0781,-6.0781,-6.0781,-6.0781,-6.0781,-6.0781,-6.0781,-6.0781,-6.0781,-6.0781,-6.0781,-6.0781,-6.0781,-6.0781,-6.0781,-6.0627,-6.0165,-5.9627,-5.9011,-5.733,-5.6714,-5.6329,-7.35,-7.3245,-7.1629,-7.0898,-7.0898,-7.0898,-7.0898,-7.0706,-6.936,-6.8629,-6.8244,-6.6859,-6.609,-6.5897,-6.5897,-6.5897,-6.5782,-6.5013,-6.4128,-6.3269,-6.2474,-6.1639,-6.0858,-6.0781,-6.0781,-6.0704,-6.0165,-5.9319,-5.8242,-5.6819,-5.5934,-5.5742,-5.5703,-5.5703,-5.5703,-5.5703,-5.5528,-5.5147,-5.489,-5.4274,-5.3279,-5.2397,-5.1734,-5.1345,-5.1364,-5.1406,-5.1406,-5.1406,-5.1406,-5.1406,-5.1406,-5.1406,-5.1406,-5.1601,-5.1875,-5.2148,-5.2695,-5.3006,-5.2908,-5.3825,-5.4295,-5.4277,-5.5011,-5.5472,-5.5577,-5.6055,-5.6406,-5.6377,-5.637,-5.6357,-5.6373,-5.6715,-5.7148,-5.7676,-5.8858,-5.955,-5.9858,-6.0473,-6.0781,-6.0781,-6.0781,-6.0823,-6.0935,-6.0973,-6.0961,-6.0896,-6.107,-6.1177,-6.1166,-6.1166,-6.1166,-6.1127,-6.0973,-6.0781,-6.0781,-6.0781,-6.0781,-6.0781,-6.0781,-6.0781,-6.0781,-6.0781,-6.0781,-6.0781,-6.0781,-6.0781,-6.0781,-6.0781,-6.0781,-6.0627,-6.0089,-5.9127,-5.7742,-5.7291,-5.6637,-7.35,-7.3192,-7.1591,-7.0898,-7.0898,-7.0898,-7.0898,-7.0821,-6.9975,-6.9167,-6.8359,-6.7398,-6.6628,-6.5897,-6.5897,-6.5897,-6.5782,-6.5051,-6.4243,-6.3346,-6.2512,-6.1678,-6.0819,-6.0781,-6.0781,-6.0781,-6.0704,-5.9858,-5.8357,-5.7357,-5.6522,-5.578,-5.5703,-5.5703,-5.5703,-5.5703,-5.5843,-5.594,-5.5347,-5.4968,-5.5,-5.4258,-5.3047,-5.168,-5.1406,-5.1445,-5.1406,-5.1406,-5.1406,-5.1406,-5.1445,-5.1445,-5.1484,-5.2187,-5.2969,-5.3672,-5.3906,-5.3945,-5.4023,-5.4765,-5.5234,-5.5312,-5.5937,-5.644,-5.6252,-5.6512,-5.6632,-5.6436,-5.7044,-5.7348,-5.7417,-5.7378,-5.7802,-5.9011,-5.9396,-5.9935,-6.0627,-6.0704,-6.0781,-6.0816,-6.0845,-6.0882,-6.0867,-6.0935,-6.1022,-6.1124,-6.1559,-6.2024,-6.2024,-6.2062,-6.2012,-6.1858,-6.1485,-6.0858,-6.0819,-6.0781,-6.0781,-6.0781,-6.0781,-6.0781,-6.0781,-6.0781,-6.0781,-6.0781,-6.0781,-6.0781,-6.0781,-6.0781,-6.0781,-6.0589,-6.0165,-5.9242,-5.8396,-5.755,-5.6907,-7.2822,-7.1783,-7.1168,-7.0898,-7.0898,-7.0898,-7.0898,-7.0821,-7.0052,-6.9206,-6.8359,-6.7475,-6.6628,-6.5897,-6.5897,-6.5897,-6.5859,-6.5551,-6.4974,-6.4128,-6.3243,-6.2435,-6.1627,-6.1089,-6.0781,-6.0781,-6.0781,-6.0204,-5.905,-5.7676,-5.6868,-5.6483,-5.5945,-5.5703,-5.5703,-5.5703,-5.5852,-5.6119,-5.588,-5.5603,-5.5312,-5.5,-5.4258,-5.3125,-5.25,-5.1953,-5.1406,-5.1406,-5.1406,-5.1406,-5.1914,-5.2226,-5.2305,-5.3047,-5.3672,-5.3984,-5.4531,-5.4844,-5.4922,-5.5625,-5.6133,-5.6133,-5.6406,-5.6601,-5.6636,-5.7069,-5.7421,-5.749,-5.7955,-5.8507,-5.8907,-5.8788,-5.8819,-5.9396,-6.0012,-6.0408,-6.0704,-6.0781,-6.0811,-6.0945,-6.1105,-6.1271,-6.1324,-6.1655,-6.1942,-6.1965,-6.2439,-6.2817,-6.2858,-6.2897,-6.2858,-6.2858,-6.2589,-6.2204,-6.1627,-6.1089,-6.0819,-6.0781,-6.0781,-6.0781,-6.0781,-6.0781,-6.0781,-6.0781,-6.0781,-6.0781,-6.0781,-6.0781,-6.0781,-6.0704,-6.0281,-5.9858,-5.9242,-5.8319,-5.7511,-7.2245,-7.1014,-7.0898,-7.0898,-7.0898,-7.0898,-7.0898,-7.0821,-7.0321,-6.9475,-6.8436,-6.7782,-6.6936,-6.6013,-6.5897,-6.5897,-6.5897,-6.5859,-6.5436,-6.4589,-6.3705,-6.2858,-6.2062,-6.1204,-6.0781,-6.0781,-6.0781,-6.0358,-5.9435,-5.8088,-5.7291,-5.6945,-5.6126,-5.5703,-5.5703,-5.5703,-5.5852,-5.6135,-5.623,-5.5996,-5.5742,-5.5703,-5.5312,-5.4492,-5.3828,-5.3125,-5.2266,-5.2226,-5.2266,-5.2305,-5.2812,-5.3242,-5.3594,-5.4101,-5.4531,-5.4844,-5.539,-5.5703,-5.5781,-5.625,-5.6601,-5.6601,-5.6601,-5.668,-5.6992,-5.7539,-5.7969,-5.8359,-5.8925,-5.9552,-5.9877,-5.9981,-5.9969,-6.0019,-6.0487,-6.0845,-6.0816,-6.092,-6.102,-6.1112,-6.1339,-6.1537,-6.1768,-6.2207,-6.2496,-6.2719,-6.3306,-6.3678,-6.3743,-6.3743,-6.3705,-6.3666,-6.3397,-6.3012,-6.2474,-6.1908,-6.11,-6.0997,-6.0781,-6.0781,-6.0781,-6.0781,-6.0781,-6.0781,-6.0781,-6.0781,-6.0781,-6.0781,-6.0781,-6.0781,-6.0627,-6.0281,-5.9665,-5.9088,-5.828,-7.1706,-7.0937,-7.0898,-7.0898,-7.0898,-7.0898,-7.0898,-7.0898,-7.086,-6.9937,-6.8667,-6.8346,-6.7436,-6.6205,-6.5936,-6.5897,-6.5897,-6.5897,-6.5474,-6.4705,-6.382,-6.2974,-6.2166,-6.1358,-6.0858,-6.0781,-6.0781,-6.0396,-5.9588,-5.8742,-5.7934,-5.706,-5.6242,-5.5818,-5.5703,-5.5724,-5.5891,-5.6128,-5.623,-5.6312,-5.6562,-5.6523,-5.6133,-5.539,-5.5234,-5.4844,-5.4062,-5.3906,-5.3789,-5.3828,-5.3945,-5.4414,-5.5039,-5.5273,-5.5625,-5.625,-5.6523,-5.6562,-5.6562,-5.6562,-5.664,-5.6758,-5.668,-5.707,-5.7773,-5.8047,-5.8437,-5.914,-5.9787,-6.0226,-6.0222,-6.0614,-6.0847,-6.0795,-6.0884,-6.0906,-6.0902,-6.1103,-6.1322,-6.1423,-6.1603,-6.1758,-6.2196,-6.2641,-6.3006,-6.3487,-6.4108,-6.4651,-6.4671,-6.4671,-6.4626,-6.4511,-6.427,-6.3934,-6.3334,-6.2651,-6.1855,-6.1162,-6.0908,-6.0781,-6.0781,-6.0781,-6.0781,-6.0781,-6.0781,-6.0781,-6.0781,-6.0781,-6.0781,-6.0781,-6.0704,-6.0627,-6.0089,-5.9511,-5.905,-7.1706,-7.0937,-7.0898,-7.0898,-7.0898,-7.0898,-7.0898,-7.0898,-7.0898,-7.0283,-6.9321,-6.8667,-6.7782,-6.6782,-6.6167,-6.5897,-6.5897,-6.5897,-6.5743,-6.5359,-6.4589,-6.3705,-6.2858,-6.205,-6.1396,-6.0896,-6.0781,-6.0666,-6.0281,-5.9511,-5.8704,-5.7896,-5.7011,-5.6291,-5.5742,-5.5724,-5.5852,-5.6152,-5.623,-5.6347,-5.6562,-5.6601,-5.6445,-5.625,-5.6172,-5.6015,-5.5781,-5.4648,-5.4023,-5.4062,-5.457,-5.5312,-5.6015,-5.6211,-5.6328,-5.6562,-5.6601,-5.6601,-5.6601,-5.664,-5.6914,-5.7344,-5.7461,-5.793,-5.8711,-5.9258,-5.9648,-6.0078,-6.0742,-6.1151,-6.1127,-6.1201,-6.1207,-6.0861,-6.0925,-6.1044,-6.1074,-6.1298,-6.1716,-6.2243,-6.2382,-6.2715,-6.338,-6.378,-6.4116,-6.4455,-6.5097,-6.5516,-6.5702,-6.5606,-6.5603,-6.5564,-6.5277,-6.4936,-6.4397,-6.3855,-6.3187,-6.2151,-6.1544,-6.0931,-6.0843,-6.0781,-6.0781,-6.0781,-6.0781,-6.0781,-6.0781,-6.0781,-6.0781,-6.0781,-6.0742,-6.0589,-6.0358,-6.0012,-5.955,-7.1398,-7.0898,-7.0898,-7.0898,-7.0898,-7.0898,-7.0898,-7.0898,-7.0898,-7.0475,-6.9667,-6.9129,-6.8205,-6.7205,-6.6551,-6.6167,-6.5897,-6.5897,-6.5897,-6.5743,-6.5013,-6.4128,-6.3243,-6.2127,-6.1358,-6.0896,-6.0781,-6.0781,-6.0742,-5.9935,-5.9242,-5.8665,-5.7588,-5.6753,-5.6165,-5.5878,-5.5852,-5.6146,-5.6236,-5.6308,-5.6562,-5.6601,-5.6601,-5.6601,-5.6601,-5.6601,-5.6523,-5.5508,-5.4961,-5.5039,-5.5508,-5.6055,-5.6562,-5.6601,-5.6601,-5.6601,-5.6601,-5.6601,-5.664,-5.6953,-5.7265,-5.7812,-5.8203,-5.875,-5.9531,-6.0195,-6.0469,-6.0937,-6.1328,-6.1636,-6.1517,-6.1504,-6.1466,-6.1492,-6.1322,-6.1402,-6.1634,-6.1876,-6.2413,-6.3054,-6.3336,-6.3752,-6.4404,-6.4764,-6.5185,-6.5531,-6.5868,-6.6099,-6.6305,-6.6237,-6.6236,-6.6212,-6.6074,-6.5732,-6.546,-6.501,-6.4496,-6.343,-6.2317,-6.1477,-6.0954,-6.0843,-6.0781,-6.0781,-6.0781,-6.0781,-6.0781,-6.0781,-6.0781,-6.0781,-6.0781,-6.0704,-6.055,-6.0396,-6.005,-7.0975,-7.0898,-7.0898,-7.0898,-7.0898,-7.0898,-7.0898,-7.0898,-7.0898,-7.0514,-6.9898,-6.9667,-6.8744,-6.7475,-6.7051,-6.659,-6.6013,-6.5897,-6.5897,-6.5705,-6.5089,-6.4359,-6.3435,-6.1935,-6.1177,-6.1012,-6.0858,-6.0781,-6.0742,-6.0089,-5.955,-5.9242,-5.805,-5.7159,-5.6988,-5.6235,-5.6063,-5.6381,-5.6285,-5.6312,-5.6601,-5.6601,-5.6601,-5.6601,-5.6601,-5.6601,-5.6562,-5.6406,-5.6445,-5.6562,-5.6445,-5.6523,-5.6601,-5.6601,-5.6601,-5.664,-5.664,-5.6758,-5.6875,-5.7539,-5.8086,-5.832,-5.8906,-5.9609,-6.0351,-6.0586,-6.0898,-6.1484,-6.164,-6.1676,-6.1647,-6.1715,-6.1982,-6.2494,-6.2249,-6.229,-6.2887,-6.2949,-6.3378,-6.4099,-6.4414,-6.4602,-6.5241,-6.5367,-6.5709,-6.6106,-6.6322,-6.6368,-6.6441,-6.6452,-6.6412,-6.6423,-6.6457,-6.6335,-6.6012,-6.5865,-6.5363,-6.4386,-6.3365,-6.2588,-6.1538,-6.1304,-6.0858,-6.0858,-6.0858,-6.0858,-6.0781,-6.0781,-6.0781,-6.0781,-6.0781,-6.0781,-6.0704,-6.0589,-6.0512,-7.1475,-7.0898,-7.0898,-7.0898,-7.0898,-7.0898,-7.0898,-7.0898,-7.0898,-7.0744,-7.0475,-6.9937,-6.9167,-6.809,-6.7359,-6.6667,-6.609,-6.5897,-6.5897,-6.5859,-6.5705,-6.5089,-6.4089,-6.2551,-6.1755,-6.1639,-6.1089,-6.0781,-6.0781,-6.0512,-6.0089,-5.9511,-5.9011,-5.8554,-5.8046,-5.7156,-5.6939,-5.7126,-5.651,-5.6351,-5.6601,-5.6601,-5.6601,-5.6601,-5.6601,-5.664,-5.6601,-5.6601,-5.6601,-5.6601,-5.6601,-5.6601,-5.664,-5.668,-5.6719,-5.6836,-5.7265,-5.7578,-5.7734,-5.8359,-5.9062,-5.9687,-5.9883,-6.043,-6.125,-6.1367,-6.1484,-6.1719,-6.1719,-6.1992,-6.2422,-6.2617,-6.3047,-6.3657,-6.356,-6.3566,-6.3826,-6.3944,-6.4256,-6.5039,-6.5104,-6.5409,-6.581,-6.6088,-6.6156,-6.6351,-6.6435,-6.6517,-6.6642,-6.6606,-6.6541,-6.6606,-6.6622,-6.6619,-6.6586,-6.6536,-6.6084,-6.5222,-6.4473,-6.3968,-6.298,-6.2178,-6.155,-6.1012,-6.1089,-6.1089,-6.0896,-6.0781,-6.0781,-6.0781,-6.0781,-6.0781,-6.0781,-6.0704,-6.0704,-7.1706,-7.0898,-7.0898,-7.0898,-7.0898,-7.0898,-7.0898,-7.0898,-7.0898,-7.0898,-7.0783,-7.0437,-6.9744,-6.8898,-6.8052,-6.7205,-6.6436,-6.6051,-6.5897,-6.5897,-6.5859,-6.5359,-6.4359,-6.2897,-6.2101,-6.2024,-6.1204,-6.0819,-6.0781,-6.0781,-6.0473,-6.005,-5.9665,-5.9303,-5.8915,-5.8114,-5.7784,-5.7892,-5.729,-5.6935,-5.7109,-5.6758,-5.6601,-5.6601,-5.664,-5.6719,-5.707,-5.7148,-5.6992,-5.6719,-5.664,-5.6758,-5.7109,-5.7148,-5.7305,-5.7656,-5.8203,-5.8437,-5.8594,-5.9219,-5.9883,-6.0351,-6.0664,-6.1172,-6.1562,-6.1719,-6.1758,-6.2226,-6.2226,-6.2695,-6.3398,-6.3867,-6.4297,-6.4765,-6.511,-6.5156,-6.4922,-6.476,-6.5146,-6.5686,-6.5939,-6.5936,-6.6454,-6.6525,-6.6588,-6.6638,-6.6652,-6.6729,-6.683,-6.6758,-6.6719,-6.6758,-6.6758,-6.6758,-6.6758,-6.6719,-6.6562,-6.5777,-6.5328,-6.4933,-6.4048,-6.3045,-6.232,-6.1704,-6.1473,-6.1254,-6.1089,-6.0896,-6.0781,-6.0781,-6.0781,-6.0793,-6.0804,-6.0781,-6.0781,-7.1668,-7.0898,-7.0898,-7.0898,-7.0898,-7.0898,-7.0898,-7.0898,-7.0898,-7.0898,-7.086,-7.0898,-7.0321,-6.9667,-6.8629,-6.7898,-6.7013,-6.6205,-6.5936,-6.5897,-6.582,-6.5474,-6.4782,-6.3397,-6.2716,-6.2447,-6.1473,-6.105,-6.1012,-6.0935,-6.0781,-6.0573,-6.0007,-5.9755,-5.9611,-5.9026,-5.8789,-5.8754,-5.8198,-5.7899,-5.789,-5.75,-5.7226,-5.7226,-5.7187,-5.7461,-5.7851,-5.8008,-5.7734,-5.6953,-5.6875,-5.7383,-5.7969,-5.8047,-5.832,-5.8906,-5.914,-5.9297,-5.9453,-6.0039,-6.0547,-6.0742,-6.1289,-6.168,-6.1758,-6.1875,-6.2226,-6.2773,-6.3047,-6.3555,-6.4336,-6.5195,-6.5586,-6.582,-6.6406,-6.6406,-6.5937,-6.5606,-6.5767,-6.6424,-6.6583,-6.6628,-6.6636,-6.6743,-6.6874,-6.667,-6.6719,-6.6836,-6.6875,-6.6836,-6.6836,-6.6836,-6.6875,-6.6875,-6.6875,-6.6875,-6.668,-6.6303,-6.598,-6.5528,-6.4706,-6.3836,-6.311,-6.2589,-6.232,-6.182,-6.1293,-6.1089,-6.1074,-6.0839,-6.0834,-6.0823,-6.0839,-6.0804,-6.0781,-7.1668,-7.0898,-7.0898,-7.0898,-7.0898,-7.0898,-7.0898,-7.0898,-7.0898,-7.0898,-7.0898,-7.0898,-7.0475,-6.9667,-6.8859,-6.7936,-6.7128,-6.632,-6.5897,-6.5897,-6.5897,-6.582,-6.5397,-6.4436,-6.4051,-6.3628,-6.2474,-6.187,-6.1678,-6.1201,-6.0793,-6.0762,-6.0741,-6.0743,-6.0723,-6.008,-5.9824,-5.9855,-5.9109,-5.8767,-5.8867,-5.8672,-5.8476,-5.8476,-5.8515,-5.8672,-5.8867,-5.8906,-5.8828,-5.8672,-5.8633,-5.8789,-5.8867,-5.8906,-5.9101,-5.9414,-5.9883,-6.0156,-6.0273,-6.0859,-6.1406,-6.1367,-6.1562,-6.1719,-6.1758,-6.2383,-6.2734,-6.3125,-6.3594,-6.4375,-6.5234,-6.6094,-6.6445,-6.6562,-6.6719,-6.6797,-6.664,-6.6561,-6.6506,-6.6602,-6.6735,-6.6785,-6.6628,-6.6787,-6.6832,-6.6737,-6.6797,-6.6875,-6.6914,-6.6914,-6.6914,-6.6914,-6.6914,-6.6914,-6.6875,-6.6875,-6.6719,-6.6572,-6.6334,-6.6174,-6.5324,-6.4754,-6.41,-6.3554,-6.3089,-6.2574,-6.2034,-6.1824,-6.1885,-6.139,-6.1036,-6.1109,-6.118,-6.102,-6.0834,-7.1668,-7.0898,-7.0898,-7.0898,-7.0898,-7.0898,-7.0898,-7.0898,-7.0898,-7.0898,-7.0898,-7.0898,-7.0629,-7.0206,-6.9398,-6.8552,-6.7552,-6.6436,-6.5897,-6.5897,-6.5897,-6.5897,-6.5859,-6.5436,-6.5051,-6.4512,-6.332,-6.261,-6.2144,-6.1762,-6.1379,-6.1048,-6.1097,-6.114,-6.1295,-6.0892,-6.0776,-6.0718,-6.0066,-5.9642,-5.9726,-5.9375,-5.9219,-5.918,-5.9136,-5.9211,-5.9687,-5.9765,-6.0,-6.0234,-6.0351,-6.0156,-5.9844,-5.9765,-5.9922,-6.043,-6.0703,-6.1015,-6.1172,-6.1406,-6.168,-6.1758,-6.2031,-6.2265,-6.25,-6.3125,-6.3789,-6.418,-6.4687,-6.5273,-6.6094,-6.6523,-6.6875,-6.6914,-6.6914,-6.6875,-6.6788,-6.6745,-6.6738,-6.6631,-6.6683,-6.6685,-6.669,-6.6791,-6.6836,-6.6797,-6.6797,-6.6914,-6.6914,-6.6914,-6.6914,-6.6914,-6.6914,-6.6875,-6.6875,-6.6797,-6.6719,-6.6588,-6.6441,-6.6341,-6.598,-6.5566,-6.5161,-6.4618,-6.4044,-6.3621,-6.3139,-6.2954,-6.2748,-6.2547,-6.2287,-6.1906,-6.1692,-6.1713,-6.1378,-7.1552,-7.0898,-7.0898,-7.0898,-7.0898,-7.0898,-7.0898,-7.0898,-7.0898,-7.0898,-7.0898,-7.0898,-7.086,-7.0667,-7.0014,-6.9167,-6.7936,-6.6705,-6.5897,-6.5897,-6.5897,-6.5897,-6.5859,-6.5743,-6.5474,-6.4743,-6.3935,-6.3268,-6.2888,-6.2391,-6.1948,-6.1558,-6.1351,-6.1334,-6.1359,-6.1478,-6.1449,-6.1346,-6.0894,-6.0586,-6.0547,-6.0039,-5.9805,-5.9765,-5.9667,-5.9903,-6.0469,-6.0664,-6.0898,-6.164,-6.1719,-6.1328,-6.0859,-6.0664,-6.0859,-6.1601,-6.1562,-6.1562,-6.1601,-6.1836,-6.1992,-6.1953,-6.2695,-6.3125,-6.3359,-6.3945,-6.4687,-6.5234,-6.5703,-6.6055,-6.6797,-6.6875,-6.6875,-6.6914,-6.6914,-6.6797,-6.669,-6.6634,-6.668,-6.6622,-6.669,-6.6738,-6.6742,-6.6797,-6.6875,-6.6914,-6.6953,-6.6914,-6.6953,-6.6914,-6.6914,-6.6914,-6.6914,-6.6914,-6.6875,-6.6914,-6.6797,-6.6758,-6.6601,-6.6523,-6.6523,-6.6283,-6.5873,-6.5468,-6.4954,-6.459,-6.4194,-6.392,-6.38,-6.3735,-6.3407,-6.2865,-6.2605,-6.2452,-6.2116,-7.1014,-7.0898,-7.0898,-7.0898,-7.0898,-7.0898,-7.0898,-7.0898,-7.0898,-7.0898,-7.0898,-7.0898,-7.0898,-7.0706,-7.009,-6.8859,-6.759,-6.6513,-6.5974,-6.5897,-6.5897,-6.5897,-6.5897,-6.5897,-6.5743,-6.5513,-6.4819,-6.4337,-6.3912,-6.3097,-6.2602,-6.2313,-6.1794,-6.1559,-6.1582,-6.1601,-6.164,-6.164,-6.1445,-6.1367,-6.1289,-6.1172,-6.1015,-6.1015,-6.0833,-6.0995,-6.1289,-6.1445,-6.1562,-6.168,-6.1719,-6.1601,-6.1445,-6.1367,-6.1484,-6.164,-6.1719,-6.1719,-6.1875,-6.2383,-6.2695,-6.2969,-6.3594,-6.4023,-6.4297,-6.4844,-6.5469,-6.5742,-6.625,-6.6719,-6.6875,-6.6914,-6.6914,-6.6914,-6.6953,-6.6953,-6.6953,-6.7031,-6.7031,-6.7034,-6.6976,-6.6914,-6.707,-6.7187,-6.7305,-6.7461,-6.7539,-6.7344,-6.7187,-6.7109,-6.6992,-6.6953,-6.6914,-6.6914,-6.6875,-6.6953,-6.6992,-6.6992,-6.6914,-6.6758,-6.6758,-6.6797,-6.6538,-6.6083,-6.5867,-6.5621,-6.5252,-6.4915,-6.4636,-6.4506,-6.4097,-6.3726,-6.3588,-6.3456,-6.3468,-7.0898,-7.0898,-7.0898,-7.0898,-7.0898,-7.0898,-7.0898,-7.0898,-7.0898,-7.0898,-7.0898,-7.0898,-7.0898,-7.0783,-7.0552,-6.936,-6.7898,-6.6898,-6.632,-6.6013,-6.5897,-6.5897,-6.5897,-6.5897,-6.5897,-6.5793,-6.5527,-6.5151,-6.4908,-6.4233,-6.3636,-6.329,-6.2674,-6.2291,-6.2136,-6.1875,-6.1758,-6.1719,-6.1719,-6.1719,-6.168,-6.1636,-6.1632,-6.1637,-6.1582,-6.158,-6.168,-6.1719,-6.1719,-6.1719,-6.1719,-6.1719,-6.1719,-6.1719,-6.1719,-6.1719,-6.1758,-6.1953,-6.2265,-6.2812,-6.3125,-6.3711,-6.4492,-6.4922,-6.5195,-6.5703,-6.6172,-6.6367,-6.6484,-6.6914,-6.6914,-6.6914,-6.6914,-6.6992,-6.7265,-6.75,-6.7656,-6.793,-6.793,-6.7734,-6.7383,-6.7344,-6.7617,-6.7734,-6.7851,-6.7969,-6.8125,-6.793,-6.7578,-6.7539,-6.75,-6.7383,-6.7422,-6.7578,-6.7578,-6.7578,-6.7578,-6.75,-6.7226,-6.7109,-6.6953,-6.6953,-6.6875,-6.6616,-6.6505,-6.6328,-6.6209,-6.5844,-6.5528,-6.5285,-6.5233,-6.5043,-6.4699,-6.4504,-6.4505,-7.0898,-7.0898,-7.0898,-7.0898,-7.0898,-7.0898,-7.0898,-7.0898,-7.0898,-7.0898,-7.0898,-7.0898,-7.0898,-7.0821,-7.0552,-6.9783,-6.8359,-6.7475,-6.6628,-6.6013,-6.5897,-6.5897,-6.5897,-6.591,-6.5909,-6.5974,-6.5979,-6.5838,-6.5485,-6.5049,-6.4844,-6.4414,-6.3672,-6.3242,-6.3125,-6.25,-6.207,-6.1914,-6.1719,-6.1719,-6.168,-6.158,-6.1575,-6.1678,-6.1577,-6.1536,-6.168,-6.1719,-6.1719,-6.1719,-6.1719,-6.1719,-6.1719,-6.1875,-6.1953,-6.1953,-6.1953,-6.2383,-6.2812,-6.3555,-6.4023,-6.4531,-6.5351,-6.5742,-6.5976,-6.6367,-6.6836,-6.6914,-6.6914,-6.6914,-6.6914,-6.6914,-6.7031,-6.7344,-6.7773,-6.8281,-6.8555,-6.8789,-6.9023,-6.8633,-6.793,-6.7969,-6.8437,-6.8437,-6.8555,-6.8633,-6.8789,-6.875,-6.8476,-6.8437,-6.8359,-6.8086,-6.8086,-6.8359,-6.8437,-6.8437,-6.8437,-6.8398,-6.789,-6.75,-6.7265,-6.707,-6.6992,-6.6914,-6.6836,-6.668,-6.668,-6.664,-6.6271,-6.6135,-6.6399,-6.6264,-6.5688,-6.5503,-6.5551,-7.0898,-7.0898,-7.0898,-7.0898,-7.0898,-7.0898,-7.0898,-7.0898,-7.0898,-7.0898,-7.0898,-7.0898,-7.0898,-7.0783,-7.0206,-6.936,-6.8436,-6.7628,-6.6821,-6.6167,-6.5936,-6.5897,-6.591,-6.5897,-6.5974,-6.6059,-6.6109,-6.6204,-6.6004,-6.5576,-6.5426,-6.5234,-6.4648,-6.414,-6.4062,-6.3281,-6.289,-6.2695,-6.2109,-6.1758,-6.168,-6.1579,-6.1626,-6.1633,-6.1587,-6.1577,-6.168,-6.1719,-6.1719,-6.1719,-6.1719,-6.1719,-6.1836,-6.2461,-6.2773,-6.2851,-6.2851,-6.293,-6.3359,-6.4258,-6.5117,-6.5508,-6.6172,-6.6601,-6.668,-6.668,-6.6914,-6.6914,-6.6914,-6.6992,-6.7031,-6.6953,-6.7305,-6.7812,-6.8359,-6.8828,-6.9219,-6.9844,-7.0039,-6.9961,-6.9375,-6.9297,-6.9492,-6.9375,-6.9297,-6.9375,-6.9414,-6.9414,-6.9297,-6.918,-6.9023,-6.8711,-6.8906,-6.9219,-6.9297,-6.9297,-6.9297,-6.9297,-6.8672,-6.8047,-6.789,-6.7695,-6.7148,-6.707,-6.6992,-6.6914,-6.6836,-6.6758,-6.6758,-6.6733,-6.6675,-6.6625,-6.6538,-6.6484,-6.6367,-7.0898,-7.0898,-7.0898,-7.0898,-7.0898,-7.0898,-7.0898,-7.0898,-7.0898,-7.0898,-7.0898,-7.0898,-7.0898,-7.0783,-7.0475,-6.9937,-6.909,-6.8244,-6.7398,-6.6551,-6.6167,-6.5897,-6.5921,-6.5963,-6.6069,-6.6146,-6.6274,-6.6418,-6.6369,-6.6287,-6.6145,-6.6133,-6.5508,-6.5039,-6.4961,-6.414,-6.3828,-6.3515,-6.289,-6.2187,-6.1836,-6.168,-6.168,-6.1719,-6.168,-6.1719,-6.1758,-6.1719,-6.1719,-6.1797,-6.207,-6.2461,-6.2656,-6.3203,-6.375,-6.3789,-6.4258,-6.4453,-6.4609,-6.5234,-6.5742,-6.625,-6.668,-6.6836,-6.6914,-6.6914,-6.6914,-6.6914,-6.6914,-6.7109,-6.75,-6.7617,-6.8125,-6.8633,-6.914,-6.9609,-7.0156,-7.0742,-7.1094,-7.0937,-7.082,-7.0625,-7.0469,-7.0273,-7.0351,-7.0625,-7.0625,-7.0547,-7.0156,-6.9609,-6.9492,-6.9297,-6.9648,-7.0156,-7.0156,-7.0156,-7.0156,-7.0039,-6.9414,-6.8906,-6.875,-6.8437,-6.7851,-6.7344,-6.7226,-6.7109,-6.6953,-6.6875,-6.6836,-6.6836,-6.6833,-6.6797,-6.6719,-6.6758,-6.668,-7.0898,-7.0898,-7.0898,-7.0898,-7.0898,-7.0898,-7.0898,-7.0898,-7.0898,-7.0898,-7.0898,-7.0898,-7.0898,-7.0898,-7.0821,-7.036,-6.9629,-6.9,-6.809,-6.7205,-6.6551,-6.6128,-6.6035,-6.6024,-6.6137,-6.6209,-6.6424,-6.661,-6.6678,-6.6653,-6.6668,-6.6875,-6.625,-6.5937,-6.5703,-6.5078,-6.4531,-6.4101,-6.3633,-6.3047,-6.2617,-6.2461,-6.2422,-6.2422,-6.2383,-6.2344,-6.2344,-6.2422,-6.2461,-6.2617,-6.3008,-6.332,-6.3437,-6.4101,-6.457,-6.4805,-6.5312,-6.5781,-6.5781,-6.6015,-6.6328,-6.664,-6.6914,-6.6914,-6.6914,-6.6914,-6.6914,-6.6914,-6.7265,-6.7617,-6.8047,-6.832,-6.8945,-6.9531,-7.0156,-7.0625,-7.1015,-7.1367,-7.1601,-7.1523,-7.1484,-7.164,-7.1445,-7.1211,-7.1367,-7.1797,-7.1836,-7.164,-7.1094,-7.0351,-7.0351,-7.0312,-7.0547,-7.0976,-7.0976,-7.1015,-7.1015,-7.0781,-7.0156,-6.9805,-6.9648,-6.9101,-6.8437,-6.8008,-6.7617,-6.7226,-6.707,-6.6953,-6.6914,-6.6875,-6.6875,-6.6875,-6.6875,-6.6914,-6.6875,-7.0898,-7.0898,-7.0898,-7.0898,-7.0898,-7.0898,-7.0898,-7.0898,-7.0898,-7.0898,-7.0898,-7.0898,-7.0898,-7.0898,-7.0821,-7.0475,-6.9744,-6.9629,-6.8667,-6.7667,-6.7026,-6.6654,-6.6403,-6.6263,-6.629,-6.6381,-6.6588,-6.6737,-6.6797,-6.6836,-6.6875,-6.6836,-6.664,-6.6758,-6.6484,-6.5859,-6.5117,-6.4687,-6.4258,-6.414,-6.3906,-6.3867,-6.3867,-6.3945,-6.4023,-6.4101,-6.4062,-6.3867,-6.3789,-6.3789,-6.4062,-6.4219,-6.4336,-6.5039,-6.5469,-6.5703,-6.6133,-6.6562,-6.6601,-6.6601,-6.6758,-6.6875,-6.6914,-6.6914,-6.6914,-6.6953,-6.6953,-6.7148,-6.7695,-6.8164,-6.8555,-6.8906,-6.9687,-7.0351,-7.0898,-7.1133,-7.1445,-7.168,-7.1875,-7.1953,-7.1992,-7.1992,-7.1992,-7.164,-7.1562,-7.1953,-7.1992,-7.1797,-7.1836,-7.1328,-7.1484,-7.1562,-7.1601,-7.1797,-7.1797,-7.1758,-7.1562,-7.1367,-7.0976,-7.0742,-7.0586,-6.9922,-6.918,-6.8672,-6.8281,-6.7695,-6.7148,-6.7031,-6.6953,-6.6914,-6.6914,-6.6914,-6.6914,-6.6914,-6.6914,-7.0898,-7.0898,-7.0898,-7.0898,-7.0898,-7.0898,-7.0898,-7.0898,-7.0898,-7.0898,-7.0912,-7.0898,-7.0898,-7.0898,-7.0898,-7.0783,-7.0398,-6.986,-6.9244,-6.8744,-6.8167,-6.7523,-6.7089,-6.6868,-6.6886,-6.6672,-6.6722,-6.6797,-6.6875,-6.6914,-6.6914,-6.6914,-6.6914,-6.6875,-6.668,-6.6484,-6.5898,-6.5312,-6.5039,-6.4922,-6.4336,-6.4297,-6.4297,-6.4297,-6.4297,-6.4297,-6.4258,-6.4297,-6.4297,-6.4453,-6.4883,-6.5039,-6.5195,-6.5898,-6.625,-6.6328,-6.6758,-6.6836,-6.6914,-6.6914,-6.6914,-6.6914,-6.6914,-6.6914,-6.7031,-6.7383,-6.7656,-6.7969,-6.8437,-6.9023,-6.9765,-7.0039,-7.0508,-7.1172,-7.1562,-7.168,-7.1797,-7.1953,-7.1992,-7.1992,-7.1992,-7.1992,-7.1992,-7.1953,-7.1953,-7.1992,-7.1992,-7.1992,-7.1992,-7.1992,-7.1992,-7.1992,-7.1992,-7.1992,-7.1992,-7.1992,-7.1992,-7.1836,-7.164,-7.1484,-7.1211,-7.0742,-7.0039,-6.9492,-6.8828,-6.8203,-6.7656,-6.7226,-6.6992,-6.6914,-6.6914,-6.6914,-6.6914,-6.6914,-6.6914,-7.0898,-7.0898,-7.0898,-7.0898,-7.0898,-7.0898,-7.0898,-7.0898,-7.0898,-7.094,-7.1005,-7.0979,-7.0979,-7.0992,-7.0925,-7.0898,-7.0706,-7.036,-6.9975,-6.9515,-6.9039,-6.8436,-6.8064,-6.7857,-6.775,-6.7214,-6.7148,-6.7305,-6.6914,-6.6914,-6.6914,-6.6914,-6.6914,-6.6914,-6.6914,-6.6836,-6.6562,-6.6133,-6.5898,-6.5742,-6.5156,-6.5156,-6.5156,-6.5195,-6.5273,-6.5273,-6.5312,-6.5312,-6.5273,-6.539,-6.5664,-6.5937,-6.6172,-6.6484,-6.6836,-6.6914,-6.6914,-6.6914,-6.6914,-6.6914,-6.6914,-6.6914,-6.7265,-6.7305,-6.75,-6.8047,-6.8555,-6.8633,-6.9297,-7.0039,-7.0781,-7.0859,-7.1172,-7.1758,-7.1797,-7.1875,-7.1914,-7.1992,-7.1992,-7.1992,-7.1992,-7.1992,-7.1992,-7.1992,-7.1992,-7.1992,-7.1992,-7.1992,-7.1992,-7.1992,-7.1992,-7.1992,-7.1992,-7.1992,-7.1992,-7.1992,-7.1992,-7.1953,-7.1836,-7.1875,-7.164,-7.1211,-7.0781,-7.0195,-6.9492,-6.8711,-6.8008,-6.7422,-6.7109,-6.6914,-6.6914,-6.6914,-6.6914,-6.6914,-6.6914,-7.0898,-7.0898,-7.0898,-7.0898,-7.0898,-7.0898,-7.0898,-7.0912,-7.0939,-7.1004,-7.1115,-7.1148,-7.1148,-7.1131,-7.0953,-7.0912,-7.0898,-7.0783,-7.0502,-6.9977,-6.9876,-6.9371,-6.9056,-6.8867,-6.8717,-6.8117,-6.8047,-6.7812,-6.7148,-6.7148,-6.707,-6.6992,-6.6992,-6.6914,-6.6914,-6.6914,-6.6875,-6.6836,-6.6758,-6.664,-6.6562,-6.6445,-6.6406,-6.6406,-6.6406,-6.6328,-6.6328,-6.6328,-6.6289,-6.6406,-6.6484,-6.664,-6.6719,-6.6758,-6.6914,-6.6914,-6.6914,-6.6914,-6.6914,-6.6914,-6.7031,-6.7148,-6.7617,-6.7969,-6.8281,-6.8867,-6.9414,-6.9453,-7.0156,-7.0586,-7.1015,-7.1367,-7.1758,-7.1953,-7.1992,-7.1992,-7.1992,-7.1992,-7.1992,-7.1992,-7.1992,-7.1992,-7.1992,-7.1992,-7.1992,-7.1992,-7.1992,-7.1992,-7.1992,-7.1992,-7.1992,-7.1992,-7.1992,-7.1992,-7.1992,-7.1992,-7.1992,-7.1992,-7.1992,-7.1992,-7.1992,-7.1758,-7.1289,-7.0859,-7.0156,-6.9375,-6.8437,-6.75,-6.7187,-6.6914,-6.6914,-6.6914,-6.6914,-6.6914,-6.6914,-7.0898,-7.0898,-7.0898,-7.0898,-7.0898,-7.0898,-7.0898,-7.09,-7.1041,-7.1062,-7.1014,-7.1115,-7.1092,-7.1016,-7.0953,-7.0898,-7.0898,-7.0912,-7.0644,-7.0733,-7.0708,-7.0401,-7.0102,-6.9896,-6.965,-6.918,-6.9023,-6.8945,-6.8672,-6.8047,-6.7773,-6.7695,-6.7265,-6.6914,-6.6914,-6.6914,-6.6875,-6.6875,-6.6875,-6.6875,-6.6914,-6.6914,-6.6914,-6.6914,-6.6914,-6.6914,-6.6914,-6.6914,-6.6914,-6.6914,-6.6914,-6.6914,-6.6914,-6.6914,-6.6914,-6.6914,-6.6914,-6.6914,-6.7109,-6.7305,-6.7734,-6.789,-6.8125,-6.8594,-6.8984,-6.9765,-7.0156,-7.039,-7.0976,-7.1367,-7.1719,-7.1758,-7.1992,-7.1992,-7.1992,-7.1992,-7.1992,-7.1992,-7.1992,-7.1992,-7.1992,-7.1992,-7.1992,-7.1992,-7.1992,-7.1992,-7.1992,-7.1992,-7.1992,-7.1992,-7.1992,-7.1992,-7.1992,-7.1992,-7.1992,-7.1992,-7.1992,-7.1992,-7.1992,-7.1992,-7.1992,-7.1992,-7.1836,-7.1406,-7.0742,-7.0,-6.8867,-6.7851,-6.7226,-6.6914,-6.6914,-6.6914,-6.6914,-6.6914,-6.6914,-7.094,-7.0991,-7.1004,-7.1038,-7.1074,-7.0966,-7.0914,-7.1041,-7.1231,-7.1213,-7.1169,-7.1252,-7.1182,-7.1026,-7.0914,-7.0898,-7.0912,-7.0966,-7.1041,-7.1203,-7.1356,-7.1102,-7.0992,-7.0899,-7.0575,-7.0117,-6.9883,-6.9765,-6.9336,-6.8867,-6.8633,-6.8398,-6.7773,-6.7539,-6.7344,-6.7187,-6.6914,-6.6914,-6.6914,-6.6914,-6.6914,-6.6914,-6.6914,-6.6914,-6.6914,-6.6914,-6.6914,-6.6914,-6.6914,-6.6914,-6.6914,-6.6914,-6.6914,-6.6914,-6.6914,-6.6914,-6.7226,-6.7305,-6.7578,-6.8164,-6.8672,-6.914,-6.9062,-6.9336,-6.9883,-7.0664,-7.1015,-7.1328,-7.1758,-7.1875,-7.1992,-7.1992,-7.1992,-7.1992,-7.1992,-7.1992,-7.1992,-7.1992,-7.1992,-7.1992,-7.1992,-7.1992,-7.1992,-7.1992,-7.1992,-7.1992,-7.1992,-7.1992,-7.1992,-7.1992,-7.1992,-7.1992,-7.1992,-7.1992,-7.1992,-7.1992,-7.1992,-7.1992,-7.1992,-7.1992,-7.1992,-7.1992,-7.1992,-7.1875,-7.1055,-7.0156,-6.914,-6.8203,-6.7578,-6.7109,-6.6914,-6.6914,-6.6914,-6.6914,-6.6914,-7.1029,-7.1201,-7.1193,-7.1326,-7.1389,-7.1081,-7.1038,-7.1213,-7.1443,-7.1471,-7.1442,-7.1427,-7.1344,-7.1148,-7.0953,-7.09,-7.0966,-7.1092,-7.1203,-7.1323,-7.151,-7.1546,-7.1678,-7.171,-7.1328,-7.0937,-7.0703,-7.0508,-6.9726,-6.9531,-6.9453,-6.918,-6.8555,-6.8281,-6.8008,-6.7578,-6.7148,-6.6953,-6.6914,-6.6914,-6.6914,-6.6914,-6.6914,-6.6914,-6.6914,-6.6914,-6.6914,-6.6914,-6.6914,-6.6914,-6.6914,-6.6914,-6.6914,-6.6914,-6.6914,-6.7187,-6.7773,-6.7969,-6.8359,-6.9023,-6.9648,-7.0156,-7.0547,-7.0703,-7.0898,-7.1328,-7.1601,-7.1719,-7.1914,-7.1953,-7.1992,-7.1992,-7.1992,-7.1992,-7.1992,-7.1992,-7.1992,-7.1992,-7.1992,-7.1992,-7.1992,-7.1992,-7.1992,-7.1992,-7.1992,-7.1992,-7.1992,-7.1992,-7.1992,-7.1992,-7.1992,-7.1992,-7.1992,-7.1992,-7.1992,-7.1992,-7.1992,-7.1992,-7.1992,-7.1992,-7.1992,-7.1992,-7.1992,-7.1758,-7.1172,-7.039,-6.9609,-6.875,-6.789,-6.75,-6.7148,-6.6914,-6.6914,-6.6914,-6.6914,-7.1148,-7.1193,-7.137,-7.1435,-7.1503,-7.1395,-7.1378,-7.142,-7.1583,-7.1549,-7.1299,-7.142,-7.1326,-7.1017,-7.09,-7.0991,-7.1097,-7.1193,-7.1358,-7.1516,-7.1663,-7.18,-7.1875,-7.1953,-7.1797,-7.168,-7.1523,-7.1367,-7.1133,-7.0703,-6.9922,-6.9375,-6.9258,-6.914,-6.8789,-6.8242,-6.7617,-6.7109,-6.7031,-6.6914,-6.6914,-6.6914,-6.6914,-6.6914,-6.6914,-6.6914,-6.6914,-6.6914,-6.6914,-6.6914,-6.6914,-6.6914,-6.6914,-6.6953,-6.7031,-6.7773,-6.8125,-6.8398,-6.9062,-6.9844,-7.0469,-7.0859,-7.125,-7.1601,-7.1719,-7.1797,-7.1992,-7.1992,-7.1992,-7.1992,-7.1992,-7.1992,-7.1992,-7.1992,-7.1992,-7.1992,-7.1992,-7.1992,-7.1992,-7.1992,-7.1992,-7.1992,-7.1992,-7.1992,-7.1992,-7.1992,-7.1992,-7.1992,-7.1992,-7.1992,-7.1992,-7.1992,-7.1992,-7.1992,-7.1992,-7.1992,-7.1992,-7.1992,-7.1992,-7.1992,-7.1992,-7.1992,-7.1992,-7.1758,-7.1328,-7.0859,-7.0312,-6.9453,-6.8555,-6.789,-6.75,-6.7148,-6.6914,-6.6914,-6.6914,-7.126,-7.1396,-7.1543,-7.1609,-7.1694,-7.1694,-7.1694,-7.1702,-7.1682,-7.1538,-7.137,-7.1435,-7.128,-7.0979,-7.0979,-7.1097,-7.1172,-7.1358,-7.1521,-7.1642,-7.1758,-7.1864,-7.1953,-7.1992,-7.1953,-7.1992,-7.1992,-7.1836,-7.1836,-7.1562,-7.0859,-7.0547,-7.0234,-6.9961,-6.9687,-6.914,-6.8515,-6.789,-6.7422,-6.7031,-6.6953,-6.6953,-6.6914,-6.6992,-6.6953,-6.6992,-6.6953,-6.6992,-6.6953,-6.6914,-6.6914,-6.6914,-6.7031,-6.7187,-6.7812,-6.8555,-6.914,-6.9453,-7.0,-7.0742,-7.1094,-7.1328,-7.168,-7.1875,-7.1953,-7.1953,-7.1992,-7.1992,-7.1992,-7.1992,-7.1992,-7.1992,-7.1992,-7.1992,-7.1992,-7.1992,-7.1992,-7.1992,-7.1992,-7.1992,-7.1992,-7.1992,-7.1992,-7.1992,-7.1992,-7.1992,-7.1992,-7.1992,-7.1992,-7.1992,-7.1992,-7.1992,-7.1992,-7.1992,-7.1992,-7.1992,-7.1992,-7.1992,-7.1992,-7.1992,-7.1992,-7.1992,-7.1992,-7.1836,-7.1601,-7.1172,-7.0742,-7.0117,-6.9336,-6.8672,-6.8086,-6.7734,-6.7383,-6.707,-6.7031,-7.1411,-7.1686,-7.1738,-7.1811,-7.1992,-7.1953,-7.1992,-7.1992,-7.1809,-7.1633,-7.1505,-7.1498,-7.1296,-7.105,-7.1126,-7.1242,-7.1342,-7.1527,-7.1659,-7.1758,-7.1864,-7.1992,-7.1992,-7.1992,-7.1992,-7.1992,-7.1992,-7.1992,-7.1992,-7.1797,-7.1719,-7.1953,-7.1211,-7.082,-7.0703,-6.9961,-6.9453,-6.9219,-6.8242,-6.75,-6.7383,-6.7226,-6.707,-6.7226,-6.7265,-6.7265,-6.7226,-6.7148,-6.7109,-6.7109,-6.7187,-6.7265,-6.7539,-6.793,-6.8672,-6.9336,-7.0,-7.043,-7.082,-7.1445,-7.1719,-7.1875,-7.1992,-7.1992,-7.1992,-7.1992,-7.1992,-7.1992,-7.1992,-7.1992,-7.1992,-7.1992,-7.1992,-7.1992,-7.1992,-7.1992,-7.1992,-7.1992,-7.1992,-7.1992,-7.1992,-7.1992,-7.1992,-7.1992,-7.1992,-7.1992,-7.1992,-7.1992,-7.2031,-7.2031,-7.1992,-7.1992,-7.1992,-7.1992,-7.1992,-7.1992,-7.1992,-7.1992,-7.1992,-7.1992,-7.1992,-7.1992,-7.1992,-7.1875,-7.1758,-7.1484,-7.1094,-7.0508,-7.0,-6.957,-6.8984,-6.8437,-6.7969,-6.75,-6.7148,-7.1603,-7.1696,-7.1861,-7.1952,-7.1992,-7.1992,-7.1992,-7.1992,-7.1951,-7.1777,-7.1549,-7.1583,-7.1452,-7.1182,-7.1314,-7.1464,-7.157,-7.1663,-7.18,-7.1875,-7.1992,-7.1992,-7.1992,-7.1992,-7.1992,-7.1992,-7.1992,-7.1992,-7.1992,-7.1992,-7.1992,-7.1992,-7.1601,-7.1562,-7.1523,-7.0781,-7.039,-7.0351,-6.9531,-6.8867,-6.8867,-6.8828,-6.8789,-6.875,-6.8711,-6.8633,-6.8633,-6.8711,-6.8789,-6.8867,-6.8828,-6.8828,-6.8867,-6.9062,-6.9609,-7.0273,-7.0664,-7.1055,-7.1484,-7.1797,-7.1953,-7.1992,-7.1992,-7.1992,-7.1992,-7.1992,-7.1992,-7.1992,-7.1992,-7.1992,-7.1992,-7.1992,-7.1992,-7.1992,-7.1992,-7.1992,-7.2031,-7.207,-7.207,-7.2109,-7.2109,-7.2148,-7.2148,-7.2109,-7.1992,-7.1992,-7.1992,-7.1992,-7.207,-7.207,-7.1992,-7.1992,-7.1992,-7.1992,-7.1992,-7.1992,-7.1992,-7.1992,-7.1992,-7.1992,-7.1992,-7.1992,-7.1992,-7.1992,-7.1875,-7.168,-7.1406,-7.1015,-7.0547,-7.0312,-6.9765,-6.914,-6.8476,-6.7969,-6.75,-7.175,-7.1856,-7.1953,-7.1992,-7.1992,-7.1992,-7.1992,-7.1992,-7.1992,-7.1852,-7.1619,-7.1651,-7.1549,-7.1373,-7.1524,-7.1619,-7.1738,-7.1807,-7.1865,-7.1953,-7.1992,-7.1992,-7.1992,-7.1992,-7.1992,-7.1992,-7.1992,-7.1992,-7.1992,-7.1992,-7.1992,-7.1992,-7.1992,-7.1992,-7.1914,-7.1484,-7.1211,-7.125,-7.0664,-7.0508,-7.0351,-7.0,-6.9492,-6.9414,-6.9453,-6.9531,-6.9453,-6.9453,-6.9453,-6.9453,-6.9375,-6.9687,-6.9765,-6.9961,-7.0469,-7.1015,-7.1367,-7.1484,-7.1836,-7.1992,-7.1992,-7.1992,-7.1992,-7.1992,-7.1992,-7.1992,-7.1992,-7.1992,-7.1992,-7.1992,-7.1992,-7.1992,-7.1992,-7.1992,-7.207,-7.2148,-7.2461,-7.2734,-7.3047,-7.3476,-7.3437,-7.3476,-7.3476,-7.3476,-7.3359,-7.3242,-7.3047,-7.2578,-7.25,-7.2226,-7.2109,-7.1992,-7.1992,-7.1992,-7.1992,-7.1992,-7.1992,-7.1992,-7.1992,-7.1992,-7.1992,-7.1992,-7.1992,-7.1992,-7.1992,-7.1953,-7.168,-7.1367,-7.1367,-7.125,-7.0547,-6.9805,-6.914,-6.8476,-6.7851,-7.1856,-7.1992,-7.1992,-7.1992,-7.1992,-7.1992,-7.1992,-7.1992,-7.1992,-7.1908,-7.1753,-7.1747,-7.1647,-7.1609,-7.1659,-7.1728,-7.18,-7.1906,-7.1992,-7.1992,-7.1992,-7.1992,-7.1992,-7.1992,-7.1992,-7.1992,-7.1992,-7.1992,-7.1992,-7.1992,-7.1992,-7.1992,-7.1992,-7.1992,-7.1992,-7.1953,-7.1875,-7.1836,-7.164,-7.1797,-7.1328,-7.0625,-7.0156,-6.9883,-6.9765,-6.9805,-6.9805,-6.9805,-6.9805,-6.9922,-7.0117,-7.039,-7.0664,-7.0898,-7.1211,-7.168,-7.1797,-7.1875,-7.1992,-7.1992,-7.1992,-7.1992,-7.1992,-7.1992,-7.1992,-7.1992,-7.1992,-7.1992,-7.1992,-7.1992,-7.1992,-7.1992,-7.1992,-7.2109,-7.2226,-7.2578,-7.3047,-7.3437,-7.3945,-7.4492,-7.4531,-7.4531,-7.4531,-7.457,-7.4531,-7.4414,-7.414,-7.3672,-7.3203,-7.2734,-7.2422,-7.2187,-7.1992,-7.1992,-7.1992,-7.1992,-7.1992,-7.1992,-7.1992,-7.1992,-7.1992,-7.1992,-7.1992,-7.1992,-7.1992,-7.1992,-7.1992,-7.1797,-7.1875,-7.1875,-7.1406,-7.0625,-6.9805,-6.9101,-6.8203,-7.1952,-7.1992,-7.1992,-7.1992,-7.1992,-7.1992,-7.1992,-7.1992,-7.1992,-7.1991,-7.1953,-7.1914,-7.1854,-7.1667,-7.1858,-7.1914,-7.1914,-7.1992,-7.1992,-7.1992,-7.1992,-7.1992,-7.1992,-7.1992,-7.1992,-7.1992,-7.1992,-7.1992,-7.1992,-7.1992,-7.1992,-7.1992,-7.1992,-7.1992,-7.1992,-7.1992,-7.1992,-7.1992,-7.1992,-7.1992,-7.1992,-7.1601,-7.164,-7.1523,-7.1523,-7.1523,-7.1523,-7.1523,-7.1523,-7.1523,-7.1406,-7.1445,-7.1523,-7.1562,-7.1758,-7.1836,-7.1992,-7.1992,-7.1992,-7.1992,-7.1992,-7.1992,-7.1992,-7.1992,-7.1992,-7.1992,-7.1992,-7.1992,-7.1992,-7.1992,-7.1992,-7.1992,-7.2031,-7.2383,-7.2578,-7.3437,-7.4101,-7.4297,-7.457,-7.4805,-7.4883,-7.4883,-7.4922,-7.4922,-7.4922,-7.4844,-7.4765,-7.4297,-7.3789,-7.3281,-7.2773,-7.2461,-7.2109,-7.1992,-7.1992,-7.1992,-7.1992,-7.1992,-7.1992,-7.1992,-7.1992,-7.1992,-7.1992,-7.1992,-7.1992,-7.1992,-7.1992,-7.1992,-7.1992,-7.1953,-7.1953,-7.1484,-7.0586,-6.9726,-6.8867]},{"header":{"parameterUnit":"m.s-1","parameterCategory":1,"la1":31.0,"la2":29.5877,"lo1":-88.7671,"lo2":-86.6584,"dy":0.0162,"dx":0.0185,"nx":115,"ny":88,"refTime":"2026-05-05T00:00:00:Z","depth":0,"parameterNumber":3,"parameterNumberName":"V-component_of_WINDS"},"data":[0.0,0.0,0.0,0.0,0.0,0.0,0.0,0.0,0.0,0.0,0.0,0.0,0.0,0.0,0.0,0.0,0.0,0.0,0.0,0.0,0.0,0.0,0.0,0.0,0.0,0.0,0.0,0.0,0.0,0.0,0.0,0.0,0.0,0.0,0.0,0.0,0.0,0.0,0.0,0.0,0.0,0.0,0.0,0.0,0.0,0.0,0.0,0.0,0.0,0.0,0.0,0.0,0.0,0.0,0.0,0.0,0.0,0.0,0.0,0.0,0.0,0.0,0.0,0.0,0.0,0.0,0.0,0.0,0.0,0.0,0.0,0.0,0.0,0.0,0.0,0.0,0.0,0.0,0.0,0.0,0.0,0.0,0.0,0.0,0.0,0.0,0.0,0.0,0.0,0.0,0.0,0.0,0.0,0.0,0.0,0.0,0.0,0.0,0.0,0.0,0.0,0.0,0.0,0.0,0.0,0.0,0.0,0.0,0.0,0.0,0.0,0.0,0.0,0.0,0.0,0.0,0.0,0.0,0.0,0.0,0.0,0.0,0.0,0.0,0.0,0.0,0.0,0.0,0.0,0.0,0.0,0.0,0.0,0.0,0.0,0.0,0.0,0.0,0.0,0.0,0.0,0.0,0.0,0.0,0.0,0.0,0.0,0.0,0.0,0.0,0.0,0.0,0.0,0.0,0.0,0.0,0.0,0.0,0.0,0.0,0.0,0.0,0.0,0.0,0.0,0.0,0.0,0.0,0.0,0.0,0.0,0.0,0.0,0.0,0.0,0.0,0.0,0.0,0.0,0.0,0.0,0.0,0.0,0.0,0.0,0.0,0.0,0.0,0.0,0.0,0.0,0.0,0.0,0.0,0.0,0.0,0.0,0.0,0.0,0.0,0.0,0.0,0.0,0.0,0.0,0.0,0.0,0.0,0.0,0.0,0.0,0.0,0.0,0.0,0.0,0.0,0.0,0.0,0.0,0.0,0.0,0.0,0.0,0.0,0.0,0.0,0.0,0.0,0.0,0.0,0.0,0.0,0.0,0.0,0.0,0.0,0.0,0.0,0.0,0.0,0.0,0.0,0.0,0.0,0.0,0.0,0.0,0.0,0.0,0.0,0.0,0.0,0.0,0.0,0.0,0.0,0.0,0.0,0.0,0.0,0.0,0.0,0.0,0.0,0.0,0.0,0.0,0.0,0.0,0.0,0.0,0.0,0.0,0.0,0.0,0.0,0.0,0.0,0.0,0.0,0.0,0.0,0.0,0.0,0.0,0.0,0.0,0.0,0.0,0.0,0.0,0.0,0.0,0.0,0.0,0.0,0.0,0.0,0.0,0.0,0.0,0.0,0.0,0.0,0.0,0.0,0.0,0.0,0.0,0.0,0.0,0.0,0.0,0.0,0.0,0.0,0.0,0.0,0.0,0.0,0.0,0.0,0.0,0.0,0.0,0.0,0.0,0.0,0.0,0.0,0.0,0.0,0.0,0.0,0.0,0.0,0.0,0.0,0.0,0.0,0.0,0.0,0.0,0.0,0.0,0.0,0.0,0.0,0.0,0.0,0.0,0.0,0.0,0.0,0.0,0.0,0.0,0.0,0.0,0.0,0.0,0.0,0.0,0.0,0.0,0.0,0.0,0.0,0.0,0.0,0.0,0.0,0.0,0.0,0.0,0.0,0.0,0.0,0.0,0.0,0.0,0.0,0.0,0.0,0.0,0.0,0.0,0.0,0.0,0.0,0.0,0.0,0.0,0.0,0.0,0.0,0.0,0.0,0.0,0.0,0.0,0.0,0.0,0.0,0.0,0.0,0.0,0.0,0.0,0.0,0.0,0.0,0.0,0.0,0.0,0.0,0.0,0.0,0.0,0.0,0.0,0.0,0.0,0.0,0.0,0.0,0.0,0.0,0.0,0.0,0.0,0.0,0.0,0.0,0.0,0.0,0.0,0.0,0.0,0.0,0.0,0.0,0.0,0.0,0.0,0.0,0.0,0.0,0.0,0.0,0.0,0.0,0.0,0.0,0.0,0.0,0.0,0.0,0.0,0.0,0.0,0.0,0.0,0.0,0.0,0.0,0.0,0.0,0.0,0.0,0.0,0.0,0.0,0.0,0.0,0.0,0.0,0.0,0.0,0.0,0.0,0.0,0.0,0.0,0.0,0.0,0.0,0.0,0.0,0.0,0.0,0.0,0.0,0.0,0.0,0.0,0.0,0.0,0.0,0.0,0.0,0.0,0.0,0.0,0.0,0.0,0.0,0.0,0.0,0.0,0.0,0.0,0.0,0.0,0.0,0.0,0.0,0.0,0.0,0.0,0.0,0.0,0.0,0.0,0.0,0.0,0.0,0.0,0.0,0.0,0.0,0.0,0.0,0.0,0.0,0.0,0.0,0.0,0.0,0.0,0.0,0.0,0.0,0.0,0.0,0.0,0.0,0.0,0.0,0.0,0.0,0.0,0.0,0.0,0.0,0.0,0.0,0.0,0.0,0.0,0.0,0.0,0.0,0.0,0.0,0.0,0.0,0.0,0.0,0.0,0.0,0.0,0.0,0.0,0.0,0.0,0.0,0.0,0.0,0.0,0.0,0.0,0.0,0.0,0.0,0.0,0.0,0.0,0.0,0.0,0.0,0.0,0.0,0.0,0.0,0.0,0.0,0.0,0.0,0.0,0.0,0.0,0.0,0.0,0.0,0.0,0.0,0.0,0.0,0.0,0.0,0.0,0.0,0.0,0.0,0.0,0.0,0.0,0.0,0.0,0.0,0.0,0.0,0.0,0.0,0.0,0.0,0.0,0.0,0.0,0.0,0.0,0.0,0.0,0.0,0.0,0.0,0.0,0.0,0.0,0.0,0.0,0.0,0.0,0.0,0.0,0.0,0.0,0.0,0.0,0.0,0.0,0.0,0.0,0.0,0.0,0.0,0.0,0.0,0.0,0.0,0.0,0.0,0.0,0.0,0.0,0.0,0.0,0.0,0.0,0.0,0.0,0.0,0.0,0.0,0.0,0.0,0.0,0.0,0.0,0.0,0.0,0.0,0.0,0.0,0.0,0.0,0.0,0.0,0.0,0.0,0.0,0.0,0.0,0.0,0.0,0.0,0.0,0.0,0.0,0.0,0.0,0.0,0.0,0.0,0.0,0.0,0.0,0.0,0.0,0.0,0.0,0.0,0.0,0.0,0.0,0.0,0.0,0.0,0.0,0.0,0.0,0.0,0.0,0.0,0.0,0.0,0.0,0.0,0.0,0.0,0.0,0.0,0.0,0.0,0.0,0.0,0.0,0.0,0.0,0.0,0.0,0.0,0.0,0.0,0.0,0.0,0.0,0.0,0.0,0.0,0.0,0.0,0.0,0.0,0.0,0.0,0.0,0.0,0.0,0.0,0.0,0.0,0.0,0.0,0.0,0.0,0.0,0.0,0.0,0.0,0.0,0.0,0.0,0.0,0.0,0.0,0.0,0.0,0.0,0.0,0.0,0.0,0.0,0.0,0.0,0.0,0.0,0.0,0.0,0.0,0.0,0.0,0.0,0.0,0.0,0.0,0.0,0.0,0.0,0.0,0.0,0.0,0.0,0.0,0.0,0.0,0.0,0.0,0.0,0.0,0.0,0.0,0.0,0.0,0.0,0.0,0.0,0.0,0.0,0.0,0.0,0.0,0.0,0.0,0.0,0.0,0.0,0.0,0.0,0.0,0.0,0.0,0.0,0.0,0.0,0.0,0.0,0.0,0.0,0.0,0.0,0.0,0.0,0.0,0.0,0.0,0.0,0.0,0.0,0.0,0.0,0.0,0.0,0.0,0.0,0.0,0.0,0.0,0.0,0.0,0.0,0.0,0.0,0.0,0.0,0.0,0.0,0.0,0.0,0.0,0.0,0.0,0.0,0.0,0.0,0.0,0.0,0.0,0.0,0.0,0.0,0.0,0.0,0.0,0.0,0.0,0.0,0.0,0.0,0.0,0.0,0.0,0.0,0.0,0.0,0.0,0.0,0.0,0.0,0.0,0.0,0.0,0.0,0.0,0.0,0.0,0.0,0.0,0.0,0.0,0.0,0.0,0.0,0.0,0.0,0.0,0.0,0.0,0.0,0.0,0.0,0.0,0.0,0.0,0.0,0.0,0.0,0.0,0.0,0.0,0.0,0.0,0.0,0.0,0.0,0.0,0.0,0.0,0.0,0.0,0.0,0.0,0.0,0.0,0.0,0.0,0.0,0.0,0.0,0.0,0.0,0.0,0.0,0.0,0.0,0.0,0.0,0.0,0.0,0.0,0.0,0.0,0.0,0.0,0.0,-0.1324,0.0,0.0,0.0,0.0,0.0,0.0,0.0,0.0,0.0,0.0,0.0,0.0,0.0,0.0,0.0,0.0,0.0,0.0,0.0,0.0,0.0,0.0,0.0,0.0,0.0,0.0,0.0,0.0,0.0,0.0,0.0,0.0,0.0,0.0,0.0,0.0,0.0,0.0,0.0,0.0,0.0,0.0,0.0,0.0,0.0,0.0,0.0,0.0,0.0,0.0,0.0,0.0,0.0,0.0,0.0,0.0,0.0,0.0,0.0,0.0,0.0,0.0,0.0,0.0,0.0,0.0,0.0,0.0,0.0,0.0,0.0,0.0,0.0,0.0,0.0,0.0,0.0,0.0,0.0,0.0,0.0,0.0,0.0,0.0,0.0,0.0,0.0,0.0,0.0,0.0,0.0,0.0,0.0,0.0,0.0,0.0,0.0,0.0,0.0,0.0,0.0,0.0,0.0,0.0,0.0,0.0,0.0,0.0,0.0,0.0,-0.5193,-0.4762,-0.3425,-0.2485,-0.2052,0.0,0.0,0.0,0.0,0.0,0.0,0.0,0.0,0.0,0.0,0.0,0.0,0.0,0.0,0.0,0.0,0.0,0.0,0.0,0.0,0.0,0.0,0.0,0.0,0.0,0.0,0.0,0.0,0.0,0.0,0.0,0.0,0.0,0.0,0.0,0.0,0.0,0.0,0.0,0.0,0.0,0.0,0.0,0.0,0.0,0.0,0.0,0.0,0.0,0.0,0.0,0.0,0.0,0.0,0.0,0.0,0.0,0.0,0.0,0.0,0.0,0.0,0.0,0.0,0.0,0.0,0.0,0.0,0.0,0.0,0.0,0.0,0.0,0.0,0.0,0.0,0.0,0.0,0.0,0.0,0.0,0.0,0.0,0.0,0.0,0.0,0.0,0.0,0.0,0.0,0.0,0.0,0.0,0.0,0.0,0.0,0.0,0.0,0.0,0.0,0.0,0.0,0.0,0.0,0.0,0.0,0.0,0.0,0.0,0.0,0.0,0.0,-0.3708,-0.2494,-0.2067,0.0,0.0,0.0,0.0,0.0,0.0,0.0,0.0,0.0,0.0,0.0,0.0,0.0,0.0,0.0,0.0,0.0,0.0,0.0,0.0,0.0,0.0,0.0,0.0,0.0,0.0,0.0,0.0,0.0,0.0,0.0,0.0,0.0,0.0,0.0,0.0,0.0,0.0,0.0,0.0,0.0,0.0,0.0,0.0,0.0,0.0,0.0,0.0,0.0,0.0,0.0,0.0,0.0,0.0,0.0,0.0,0.0,0.0,0.0,0.0,0.0,0.0,0.0,0.0,0.0,0.0,0.0,0.0,0.0,0.0,0.0,0.0,0.0,0.0,0.0,0.0,0.0,0.0,0.0,0.0,0.0,0.0,0.0,0.0,0.0,0.0,0.0,0.0,0.0,0.0,0.0,0.0,0.0,0.0,0.0,0.0,0.0,0.0,0.0,0.0,0.0,0.0,0.0,0.0,0.0,0.0,0.0,0.0,0.0,0.0,-0.559,-0.5882,-0.3828,0.0,-0.0383,0.0,0.0,0.0,0.0,0.0,0.0,0.0,0.0,0.0,0.0,0.0,0.0,0.0,0.0,0.0,0.0,0.0,0.0,0.0,0.0,0.0,0.0,0.0,0.0,0.0,0.0,0.0,0.0,0.0,0.0,0.0,0.0,0.0,0.0,0.0,0.0,0.0,0.0,0.0,0.0,0.0,0.0,0.0,0.0,0.0,0.0,0.0,0.0,0.0,0.0,0.0,0.0,0.0,0.0,0.0,0.0,0.0,0.0,0.0,0.0,0.0,0.0,0.0,0.0,0.0,0.0,0.0,0.0,0.0,0.0,0.0,0.0,0.0,0.0,0.0,0.0,0.0,0.0,0.0,0.0,0.0,0.0,0.0,0.0,0.0,0.0,0.0,0.0,0.0,0.0,0.0,0.0,0.0,0.0,0.0,0.0,0.0,0.0,0.0,0.0,0.0,0.0,0.0,0.0,0.0,0.0,0.0,0.0,0.0,0.0,0.0,-0.6023,-0.4135,-0.2146,0.0,0.0,0.0,0.0,0.0,0.0,0.0,0.0,0.0,0.0,0.0,0.0,0.0,0.0,0.0,0.0,0.0,0.0,0.0,0.0,0.0,0.0,0.0,0.0,0.0,0.0,0.0,0.0,0.0,0.0,0.0,0.0,0.0,0.0,0.0,0.0,0.0,0.0,0.0,0.0,0.0,0.0,0.0,0.0,0.0,0.0,0.0,0.0,0.0,0.0,0.0,0.0,0.0,0.0,0.0,0.0,0.0,0.0,0.0,0.0,0.0,0.0,0.0,0.0,0.0,0.0,0.0,0.0,0.0,0.0,0.0,0.0,0.0,0.0,0.0,0.0,0.0,0.0,0.0,0.0,0.0,0.0,0.0,0.0,0.0,0.0,0.0,0.0,0.0,0.0,0.0,0.0,0.0,0.0,0.0,0.0,0.0,0.0,0.0,0.0,0.0,0.0,0.0,0.0,0.0,0.0,0.0,0.0,0.0,0.0,-0.5928,0.0,-0.5214,-0.3924,-0.2205,0.0,0.0,0.0,0.0,0.0,0.0,0.0,0.0,0.0,0.0,0.0,0.0,0.0,0.0,0.0,0.0,0.0,0.0,0.0,0.0,0.0,0.0,0.0,0.0,0.0,0.0,0.0,0.0,0.0,0.0,0.0,0.0,0.0,0.0,0.0,0.0,0.0,0.0,0.0,0.0,0.0,0.0,0.0,0.0,0.0,0.0,0.0,0.0,0.0,0.0,0.0,0.0,0.0,0.0,0.0,0.0,0.0,0.0,0.0,0.0,0.0,0.0,0.0,0.0,0.0,0.0,0.0,0.0,0.0,0.0,0.0,0.0,0.0,0.0,0.0,0.0,0.0,0.0,0.0,0.0,0.0,0.0,0.0,0.0,0.0,0.0,0.0,0.0,0.0,0.0,0.0,0.0,0.0,0.0,0.0,0.0,0.0,0.0,0.0,0.0,0.0,0.0,0.0,0.0,0.0,0.0,0.0,0.0,0.0,0.0,-0.6195,-0.5204,-0.3589,-0.2961,-0.1877,0.0,0.0,0.0,0.0,0.0,0.0,0.0,0.0,0.0,0.0,0.0,0.0,0.0,0.0,0.0,0.0,0.0,0.0,0.0,0.0,0.0,0.0,0.0,0.0,0.0,0.0,0.0,0.0,0.0,0.0,0.0,0.0,0.0,0.0,0.0,0.0,0.0,0.0,0.0,0.0,0.0,0.0,0.0,0.0,0.0,0.0,0.0,0.0,0.0,0.0,0.0,0.0,0.0,0.0,0.0,0.0,0.0,0.0,0.0,0.0,0.0,0.0,0.0,0.0,0.0,0.0,0.0,0.0,0.0,0.0,0.0,0.0,0.0,0.0,0.0,0.0,0.0,0.0,0.0,0.0,0.0,0.0,0.0,0.0,0.0,0.0,0.0,0.0,0.0,0.0,0.0,0.0,0.0,0.0,0.0,0.0,0.0,0.0,0.0,0.0,0.0,0.0,0.0,0.0,0.0,0.0,0.0,0.0,0.0,-0.5856,-0.5962,-0.5601,-0.4676,-0.3659,-0.2576,0.0,0.0,0.0,0.0,0.0,0.0,0.0,0.0,0.0,0.0,0.0,0.0,0.0,0.0,0.0,0.0,0.0,0.0,0.0,0.0,0.0,0.0,0.0,0.0,0.0,0.0,0.0,0.0,0.0,0.0,0.0,0.0,0.0,0.0,0.0,0.0,0.0,0.0,0.0,0.0,0.0,0.0,0.0,0.0,0.0,0.0,0.0,0.0,0.0,0.0,0.0,0.0,0.0,0.0,0.0,0.0,0.0,0.0,0.0,0.0,0.0,0.0,0.0,0.0,0.0,0.0,0.0,0.0,0.0,0.0,0.0,0.0,0.0,0.0,0.0,0.0,0.0,0.0,0.0,0.0,0.0,0.0,0.0,0.0,0.0,0.0,0.0,0.0,0.0,0.0,0.0,0.0,0.0,0.0,0.0,0.0,0.0,0.0,0.0,0.0,0.0,0.0,0.0,0.0,0.0,0.0,0.0,0.0,0.0,-0.5822,0.0,-0.6125,0.0,-0.433,-0.3136,0.0,0.0,0.0,0.0,0.0,0.0,0.0,0.0,0.0,0.0,0.0,0.0,0.0,0.0,0.0,0.0,0.0,0.0,0.0,0.0,0.0,0.0,0.0,0.0,0.0,0.0,0.0,0.0,0.0,0.0,0.0,0.0,0.0,0.0,0.0,0.0,0.0,0.0,0.0,0.0,0.0,0.0,0.0,0.0,0.0,0.0,0.0,0.0,0.0,0.0,0.0,0.0,0.0,0.0,0.0,0.0,0.0,0.0,0.0,0.0,0.0,0.0,0.0,0.0,0.0,0.0,0.0,0.0,0.0,0.0,0.0,0.0,0.0,0.0,0.0,0.0,0.0,0.0,0.0,0.0,0.0,0.0,0.0,0.0,0.0,0.0,0.0,0.0,0.0,0.0,0.0,0.0,0.0,0.0,0.0,0.0,0.0,0.0,0.0,0.0,0.0,0.0,0.0,0.0,0.0,0.0,0.0,0.0,-0.5609,-0.6634,-0.7095,-0.6742,-0.5456,-0.4844,-0.3507,0.0,0.0,0.0,0.0,0.0,0.0,0.0,0.0,0.0,0.0,0.0,0.0,0.0,0.0,0.0,0.0,0.0,0.0,0.0,0.0,0.0,0.0,0.0,0.0,0.0,0.0,0.0,0.0,0.0,0.0,0.0,0.0,0.0,0.0,0.0,0.0,0.0,0.0,0.0,0.0,0.0,0.0,0.0,0.0,0.0,0.0,0.0,0.0,0.0,0.0,0.0,0.0,0.0,0.0,0.0,0.0,0.0,0.0,0.0,0.0,0.0,0.0,0.0,0.0,0.0,0.0,0.0,0.0,0.0,0.0,0.0,0.0,0.0,0.0,0.0,0.0,0.0,0.0,0.0,0.0,0.0,0.0,0.0,0.0,0.0,0.0,0.0,0.0,0.0,0.0,0.0,0.0,0.0,0.0,0.0,0.0,0.0,0.0,0.0,0.0,0.0,0.0,0.0,0.0,0.0,0.0,0.0,0.0,0.0,-0.624,-0.6675,-0.6927,-0.6847,-0.5434,-0.4222,0.0,0.0,0.0,0.0,0.0,0.0,0.0,0.0,0.0,0.0,0.0,0.0,0.0,0.0,0.0,0.0,0.0,0.0,0.0,0.0,0.0,0.0,0.0,0.0,0.0,0.0,0.0,0.0,0.0,0.0,0.0,0.0,0.0,0.0,0.0,0.0,0.0,0.0,0.0,0.0,0.0,0.0,0.0,0.0,0.0,0.0,0.0,0.0,0.0,0.0,0.0,0.0,0.0,0.0,0.0,0.0,0.0,0.0,0.0,0.0,0.0,0.0,0.0,0.0,0.0,0.0,0.0,0.0,0.0,0.0,0.0,0.0,0.0,0.0,0.0,0.0,0.0,0.0,0.0,0.0,0.0,0.0,0.0,0.0,0.0,0.0,0.0,0.0,0.0,0.0,0.0,0.0,0.0,0.0,0.0,0.0,0.0,0.0,0.0,0.0,0.0,0.0,0.0,0.0,0.0,0.0,0.0,0.0,0.0,-0.679,-0.7163,-0.7441,-0.7597,-0.6289,-0.5035,-0.3827,0.0,0.0,0.0,0.0,0.0,0.0,0.0,0.0,0.0,0.0,0.0,0.0,0.0,0.0,0.0,0.0,0.0,0.0,0.0,0.0,0.0,0.0,0.0,0.0,0.0,0.0,0.0,0.0,0.0,0.0,0.0,0.0,0.0,0.0,0.0,0.0,0.0,0.0,0.0,0.0,0.0,0.0,0.0,0.0,0.0,0.0,0.0,0.0,0.0,0.0,0.0,0.0,0.0,0.0,0.0,0.0,0.0,0.0,0.0,0.0,0.0,0.0,0.0,0.0,0.0,0.0,0.0,0.0,0.0,0.0,0.0,0.0,0.0,0.0,0.0,0.0,0.0,0.0,0.0,0.0,0.0,0.0,0.0,0.0,0.0,0.0,0.0,0.0,0.0,0.0,0.0,0.0,0.0,0.0,0.0,0.0,0.0,0.0,0.0,0.0,0.0,0.0,0.0,0.0,0.0,0.0,0.0,0.0,-0.8015,-0.8391,-0.8282,-0.7719,-0.7301,-0.5936,0.0,0.0,0.0,0.0,0.0,0.0,0.0,0.0,0.0,0.0,0.0,0.0,0.0,0.0,0.0,0.0,0.0,0.0,0.0,0.0,0.0,0.0,0.0,0.0,0.0,0.0,0.0,0.0,0.0,0.0,0.0,0.0,0.0,0.0,0.0,0.0,0.0,0.0,0.0,0.0,0.0,0.0,0.0,0.0,0.0,0.0,0.0,0.0,0.0,0.0,0.0,0.0,0.0,0.0,0.0,0.0,0.0,0.0,0.0,0.0,0.0,0.0,0.0,0.0,0.0,0.0,0.0,0.0,0.0,0.0,0.0,0.0,0.0,0.0,0.0,0.0,0.0,0.0,0.0,0.0,0.0,0.0,0.0,0.0,0.0,0.0,0.0,0.0,0.0,0.0,0.0,0.0,0.0,0.0,0.0,0.0,0.0,0.0,0.0,0.0,0.0,0.0,0.0,0.0,0.0,0.0,0.0,0.0,0.0,-0.852,-0.915,-0.9239,-0.8804,-0.7929,-0.67,0.0,0.0,0.0,0.0,0.0,0.0,0.0,0.0,0.0,0.0,0.0,0.0,0.0,0.0,0.0,0.0,0.0,0.0,0.0,0.0,0.0,0.0,0.0,0.0,0.0,0.0,0.0,0.0,0.0,0.0,0.0,0.0,0.0,0.0,0.0,0.0,0.0,0.0,0.0,0.0,0.0,0.0,0.0,0.0,0.0,0.0,0.0,0.0,0.0,0.0,0.0,0.0,0.0,0.0,0.0,0.0,0.0,0.0,0.0,0.0,0.0,0.0,0.0,0.0,0.0,0.0,0.0,0.0,0.0,0.0,0.0,0.0,0.0,0.0,0.0,0.0,0.0,0.0,0.0,0.0,0.0,0.0,0.0,0.0,0.0,0.0,0.0,0.0,0.0,0.0,0.0,0.0,0.0,0.0,0.0,0.0,0.0,0.0,0.0,0.0,0.0,0.0,0.0,0.0,0.0,0.0,0.0,0.0,-0.818,-0.8981,-0.972,-0.9951,-0.9692,-0.8737,-0.7514,0.0,0.0,0.0,0.0,0.0,0.0,0.0,0.0,0.0,0.0,0.0,0.0,0.0,0.0,0.0,0.0,0.0,0.0,0.0,0.0,0.0,0.0,0.0,0.0,0.0,0.0,0.0,0.0,0.0,0.0,0.0,0.0,0.0,0.0,0.0,0.0,0.0,0.0,0.0,0.0,0.0,0.0,0.0,0.0,0.0,0.0,0.0,0.0,0.0,0.0,0.0,0.0,0.0,0.0,0.0,0.0,0.0,0.0,0.0,0.0,0.0,0.0,0.0,0.0,0.0,0.0,0.0,0.0,0.0,0.0,0.0,0.0,0.0,0.0,0.0,0.0,0.0,0.0,0.0,0.0,0.0,0.0,0.0,0.0,0.0,0.0,0.0,0.0,0.0,0.0,0.0,0.0,0.0,0.0,0.0,0.0,0.0,0.0,0.0,0.0,0.0,0.0,0.0,0.0,0.0,0.0,0.0,0.0,-0.8533,-0.9415,-1.0107,-1.0419,-1.0283,-0.9603,-0.8098,0.0,0.0,0.0,0.0,0.0,0.0,0.0,0.0,0.0,0.0,0.0,0.0,0.0,0.0,0.0,0.0,0.0,0.0,0.0,0.0,0.0,0.0,0.0,0.0,0.0,0.0,0.0,0.0,0.0,0.0,0.0,0.0,0.0,0.0,0.0,0.0,0.0,0.0,0.0,0.0,0.0,0.0,0.0,0.0,0.0,0.0,0.0,0.0,0.0,0.0,0.0,0.0,0.0,0.0,0.0,0.0,0.0,0.0,0.0,0.0,0.0,0.0,0.0,0.0,0.0,0.0,0.0,0.0,0.0,0.0,0.0,0.0,0.0,0.0,0.0,0.0,0.0,0.0,0.0,0.0,0.0,0.0,0.0,0.0,0.0,0.0,0.0,0.0,0.0,0.0,0.0,0.0,0.0,0.0,0.0,0.0,0.0,0.0,0.0,0.0,0.0,0.0,0.0,0.0,0.0,0.0,0.0,0.0,-0.894,-0.9707,-1.012,-1.0365,-1.0439,-0.9496,-0.809,0.0,0.0,0.0,0.0,0.0,0.0,0.0,0.0,0.0,0.0,0.0,0.0,0.0,0.0,0.0,0.0,0.0,0.0,0.0,0.0,0.0,0.0,0.0,0.0,0.0,0.0,0.0,0.0,0.0,0.0,0.0,0.0,0.0,0.0,0.0,0.0,0.0,0.0,0.0,0.0,0.0,0.0,0.0,0.0,0.0,0.0,0.0,0.0,-0.5344,0.0,0.0,0.0,0.0,0.0,0.0,0.0,0.0,0.0,0.0,0.0,0.0,0.0,0.0,0.0,0.0,0.0,0.0,0.0,0.0,0.0,0.0,0.0,0.0,0.0,0.0,0.0,0.0,0.0,0.0,0.0,0.0,0.0,0.0,0.0,0.0,0.0,0.0,0.0,0.0,0.0,0.0,0.0,0.0,0.0,0.0,0.0,0.0,0.0,0.0,0.0,0.0,0.0,0.0,0.0,0.0,0.0,0.0,0.0,-0.9144,-0.9802,-1.0188,-1.0446,-1.0561,-0.9727,-0.8372,0.0,0.0,0.0,0.0,0.0,0.0,0.0,0.0,0.0,0.0,0.0,0.0,0.0,0.0,0.0,0.0,0.0,0.0,0.0,0.0,0.0,0.0,0.0,0.0,0.0,0.0,0.0,0.0,0.0,0.0,0.0,0.0,0.0,0.0,0.0,0.0,0.0,0.0,0.0,0.0,0.0,0.0,0.0,0.0,0.0,0.0,0.0,0.0,0.0,0.0,0.0,0.0,0.0,0.0,0.0,0.0,0.0,0.0,0.0,0.0,0.0,0.0,0.0,0.0,0.0,0.0,0.0,0.0,0.0,0.0,0.0,0.0,0.0,0.0,0.0,0.0,0.0,0.0,0.0,0.0,0.0,0.0,0.0,0.0,0.0,0.0,0.0,0.0,0.0,0.0,0.0,0.0,0.0,0.0,0.0,0.0,0.0,0.0,0.0,0.0,0.0,0.0,0.0,0.0,0.0,0.0,0.0,-0.8251,-0.9225,-0.9869,-1.0243,-1.0521,-1.0704,-0.9971,-0.8597,-0.6608,0.0,0.0,0.0,0.0,0.0,0.0,0.0,0.0,0.0,0.0,0.0,0.0,0.0,0.0,0.0,0.0,0.0,0.0,0.0,0.0,0.0,0.0,0.0,0.0,0.0,0.0,0.0,0.0,0.0,0.0,0.0,0.0,0.0,0.0,0.0,0.0,0.0,0.0,-0.2643,-0.4434,0.0,0.0,0.0,0.0,0.0,0.0,0.0,0.0,-0.58,0.0,0.0,0.0,0.0,0.0,0.0,0.0,0.0,0.0,0.0,0.0,0.0,0.0,0.0,0.0,0.0,0.0,0.0,0.0,0.0,0.0,0.0,0.0,0.0,0.0,0.0,0.0,0.0,0.0,0.0,0.0,0.0,0.0,0.0,0.0,0.0,0.0,0.0,0.0,0.0,0.0,0.0,0.0,0.0,0.0,0.0,0.0,0.0,0.0,0.0,0.0,0.0,0.0,0.0,0.0,0.0,-0.8081,-0.8513,-0.9218,-1.0175,-1.0148,-1.031,-1.0677,-0.9876,-0.8201,-0.576,0.0,0.0,0.0,0.0,0.0,0.0,0.0,0.0,0.0,0.0,0.0,0.0,0.0,0.0,0.0,0.0,0.0,0.0,0.0,0.0,0.0,0.0,0.0,0.0,0.0,0.0,0.0,0.0,0.0,0.0,0.0,0.0,0.0,0.0,0.0,0.0,0.0,0.0,0.0,-0.514,-0.5847,0.0,0.0,0.0,0.0,0.0,0.0,0.0,0.0,-0.5932,0.0,0.0,0.0,0.0,0.0,0.0,0.0,0.0,0.0,0.0,0.0,0.0,0.0,0.0,0.0,0.0,0.0,0.0,0.0,0.0,0.0,0.0,0.0,0.0,0.0,0.0,0.0,0.0,0.0,0.0,0.0,0.0,0.0,0.0,0.0,0.0,0.0,0.0,0.0,0.0,0.0,0.0,0.0,0.0,0.0,0.0,0.0,0.0,0.0,0.0,0.0,0.0,0.0,0.0,0.0,-0.8004,-0.8859,-0.9612,-1.0249,-1.0209,-1.0344,-1.0683,-0.9153,-0.7426,0.0,0.0,0.0,0.0,0.0,0.0,0.0,0.0,0.0,0.0,0.0,0.0,0.0,0.0,0.0,0.0,0.0,0.0,0.0,0.0,0.0,0.0,0.0,0.0,0.0,0.0,0.0,0.0,0.0,0.0,0.0,0.0,0.0,0.0,0.0,0.0,0.0,0.0,0.0,0.0,-0.5818,-0.6504,-0.7098,0.0,0.0,0.0,0.0,0.0,0.0,-0.6539,-0.6247,0.0,0.0,0.0,0.0,0.0,0.0,0.0,0.0,0.0,0.0,0.0,0.0,0.0,0.0,0.0,0.0,0.0,0.0,0.0,0.0,0.0,0.0,0.0,0.0,0.0,0.0,0.0,0.0,0.0,0.0,0.0,0.0,0.0,0.0,0.0,0.0,0.0,0.0,0.0,0.0,0.0,0.0,0.0,0.0,0.0,0.0,0.0,0.0,0.0,0.0,0.0,0.0,0.0,0.0,0.0,-0.7821,-0.9083,-0.9897,-1.0215,-1.0263,-1.0392,-1.0602,-0.8479,-0.6702,0.0,0.0,0.0,0.0,0.0,0.0,0.0,0.0,0.0,0.0,0.0,0.0,0.0,0.0,0.0,0.0,0.0,0.0,0.0,0.0,0.0,0.0,0.0,0.0,0.0,0.0,0.0,0.0,0.0,0.0,0.0,0.0,0.0,0.0,0.0,0.0,0.0,0.0,0.0,0.0,0.0,-0.7326,-0.7563,-0.7292,0.0,0.0,0.0,0.0,-0.7233,-0.7048,0.0,0.0,0.0,0.0,0.0,0.0,0.0,0.0,0.0,0.0,0.0,0.0,0.0,0.0,0.0,0.0,0.0,0.0,0.0,0.0,0.0,0.0,0.0,0.0,0.0,0.0,0.0,0.0,0.0,0.0,0.0,0.0,0.0,0.0,0.0,0.0,0.0,0.0,0.0,0.0,0.0,0.0,0.0,0.0,0.0,0.0,0.0,0.0,0.0,0.0,0.0,0.0,0.0,0.0,0.0,0.0,-0.7807,-0.8879,-0.9639,-0.999,-1.0209,-1.0297,-1.0317,-0.8231,-0.6488,0.0,0.0,0.0,0.0,0.0,0.0,0.0,0.0,0.0,0.0,0.0,0.0,0.0,0.0,0.0,0.0,0.0,0.0,0.0,0.0,0.0,0.0,0.0,0.0,0.0,0.0,0.0,0.0,0.0,0.0,0.0,0.0,0.0,0.0,0.0,0.0,0.0,0.0,0.0,0.0,0.0,-0.8133,-0.7665,-0.7556,-0.7516,0.0,0.0,-0.7597,-0.784,-0.8004,0.0,0.0,0.0,0.0,0.0,0.0,0.0,0.0,0.0,0.0,0.0,0.0,0.0,0.0,0.0,0.0,0.0,0.0,0.0,0.0,0.0,0.0,0.0,0.0,0.0,0.0,0.0,0.0,0.0,0.0,0.0,0.0,0.0,0.0,0.0,0.0,0.0,0.0,0.0,0.0,0.0,0.0,0.0,0.0,0.0,0.0,0.0,0.0,0.0,0.0,0.0,0.0,0.0,0.0,0.0,-0.7149,-0.7901,-0.9144,-0.9856,-0.9977,-1.0114,-1.0188,-1.0276,-0.8141,-0.6404,0.0,0.0,0.0,0.0,0.0,0.0,0.0,0.0,0.0,0.0,0.0,0.0,0.0,0.0,0.0,0.0,0.0,0.0,0.0,0.0,0.0,0.0,0.0,0.0,0.0,0.0,0.0,0.0,0.0,0.0,0.0,0.0,0.0,0.0,0.0,0.0,0.0,0.0,0.0,0.0,0.0,0.0,-0.8099,-0.8031,0.0,0.0,0.0,-0.8147,-0.8269,0.0,0.0,0.0,0.0,0.0,0.0,0.0,0.0,0.0,0.0,0.0,0.0,0.0,0.0,0.0,0.0,0.0,0.0,0.0,0.0,0.0,0.0,0.0,0.0,0.0,0.0,0.0,0.0,0.0,0.0,0.0,0.0,0.0,0.0,0.0,0.0,0.0,0.0,0.0,0.0,0.0,0.0,0.0,0.0,0.0,0.0,0.0,0.0,0.0,0.0,0.0,0.0,0.0,0.0,0.0,0.0,0.0,-0.7995,-0.931,-0.997,-0.993,-0.997,-0.9899,-0.9569,-0.7516,0.0,0.0,0.0,0.0,0.0,0.0,0.0,0.0,0.0,0.0,0.0,0.0,0.0,0.0,0.0,0.0,0.0,0.0,0.0,0.0,0.0,0.0,0.0,0.0,0.0,0.0,0.0,-0.1671,0.0,0.0,0.0,0.0,0.0,0.0,0.0,0.0,0.0,0.0,0.0,0.0,0.0,0.0,-0.814,-0.8445,-0.8486,-0.8613,0.0,0.0,-0.8662,-0.8757,-0.8804,-0.8547,0.0,0.0,0.0,0.0,0.0,0.0,0.0,0.0,0.0,0.0,0.0,0.0,0.0,0.0,0.0,0.0,0.0,0.0,0.0,0.0,0.0,0.0,0.0,0.0,0.0,0.0,0.0,0.0,0.0,0.0,0.0,0.0,0.0,0.0,0.0,0.0,0.0,0.0,0.0,0.0,0.0,0.0,0.0,0.0,0.0,0.0,0.0,0.0,0.0,0.0,0.0,0.0,0.0,0.0,0.0,-0.8008,-0.9303,-0.9916,-0.9842,-0.9978,-0.923,-0.7627,-0.5914,-0.432,0.0,0.0,0.0,0.0,0.0,0.0,0.0,0.0,0.0,0.0,0.0,0.0,0.0,0.0,0.0,0.0,0.0,0.0,0.0,0.0,0.0,0.0,0.0,0.0,0.0,0.0,0.0,0.0,0.0,0.0,0.0,0.0,0.0,0.0,0.0,0.0,0.0,0.0,0.0,0.0,0.0,-0.8608,-0.8499,-0.8886,-0.9255,0.0,0.0,-0.9214,-0.93,-0.9666,-0.9408,-0.7841,0.0,0.0,0.0,0.0,0.0,0.0,0.0,0.0,0.0,0.0,0.0,0.0,0.0,0.0,0.0,0.0,0.0,0.0,0.0,0.0,0.0,0.0,0.0,0.0,0.0,0.0,0.0,0.0,0.0,0.0,0.0,0.0,0.0,0.0,0.0,0.0,0.0,0.0,0.0,0.0,0.0,0.0,0.0,0.0,0.0,0.0,0.0,0.0,0.0,0.0,0.0,0.0,0.0,-0.7388,-0.7988,-0.9215,-0.9876,-0.9768,-0.9815,-0.9075,-0.7423,-0.6565,-0.5005,0.0,0.0,0.0,0.0,0.0,0.0,0.0,0.0,0.0,0.0,0.0,0.0,0.0,0.0,0.0,0.0,0.0,0.0,0.0,0.0,0.0,0.0,0.0,0.0,0.0,0.0,0.0,0.0,-0.3332,-0.3333,-0.3095,0.0,0.0,0.0,0.0,0.0,0.0,0.0,0.0,0.0,0.0,-0.8825,-0.913,-0.9401,0.0,0.0,-0.9721,-0.9659,-0.9544,-0.9585,-0.9239,-0.8058,-0.7638,0.0,0.0,0.0,0.0,0.0,0.0,0.0,0.0,0.0,0.0,0.0,0.0,0.0,0.0,0.0,0.0,0.0,0.0,0.0,0.0,0.0,0.0,0.0,0.0,0.0,0.0,0.0,0.0,0.0,0.0,0.0,0.0,0.0,0.0,0.0,0.0,0.0,0.0,0.0,0.0,0.0,0.0,0.0,0.0,0.0,0.0,0.0,0.0,0.0,0.0,0.0,0.0,-0.7388,-0.7988,-0.9211,-0.9822,-0.9822,-0.9822,-0.8775,-0.6743,-0.6455,-0.4878,0.0,0.0,0.0,0.0,0.0,0.0,0.0,0.0,0.0,0.0,0.0,0.0,0.0,0.0,0.0,0.0,0.0,0.0,0.0,0.0,0.0,0.0,0.0,0.0,0.0,0.0,0.0,0.0,-0.3998,-0.3813,-0.3625,0.0,0.0,0.0,0.0,0.0,0.0,0.0,0.0,0.0,0.0,-0.9083,-0.9544,-0.9727,-0.9829,-1.0031,-0.9964,-0.9788,-0.9632,-0.9551,-0.9191,-0.8262,0.0,0.0,0.0,0.0,0.0,0.0,0.0,0.0,0.0,0.0,0.0,0.0,0.0,0.0,0.0,0.0,0.0,0.0,0.0,0.0,0.0,0.0,0.0,0.0,0.0,0.0,0.0,0.0,0.0,0.0,-0.5405,0.0,0.0,0.0,0.0,0.0,0.0,0.0,0.0,0.0,0.0,0.0,0.0,0.0,0.0,0.0,0.0,0.0,0.0,0.0,0.0,0.0,0.0,-0.7395,-0.7995,-0.9218,-0.9822,-0.9822,-0.9822,-0.8282,-0.5158,-0.4958,-0.3441,0.0,0.0,0.0,0.0,0.0,0.0,0.0,0.0,0.0,0.0,0.0,0.0,0.0,0.0,0.0,0.0,0.0,0.0,0.0,0.0,0.0,0.0,0.0,0.0,0.0,0.0,0.0,-0.4816,-0.4125,-0.3625,0.0,0.0,0.0,0.0,0.0,0.0,0.0,0.0,0.0,0.0,-0.871,-0.9422,-0.9591,-0.9734,-0.9937,-1.0236,-0.9788,-0.9456,-0.9598,-0.9713,-0.9462,0.0,0.0,0.0,0.0,0.0,0.0,0.0,0.0,0.0,0.0,0.0,0.0,0.0,0.0,0.0,0.0,0.0,0.0,0.0,0.0,0.0,0.0,0.0,0.0,0.0,0.0,0.0,-0.7007,-0.6721,0.0,0.0,0.0,0.0,0.0,0.0,0.0,0.0,0.0,0.0,0.0,-0.8024,-0.8031,0.0,0.0,0.0,0.0,0.0,0.0,0.0,0.0,0.0,0.0,0.0,0.0,-0.759,-0.8214,-0.9266,-0.9822,-0.9822,-0.9822,-0.8242,-0.5022,-0.4889,-0.3354,0.0,0.0,0.0,0.0,0.0,0.0,0.0,0.0,0.0,0.0,0.0,0.0,0.0,0.0,0.0,0.0,0.0,0.0,0.0,0.0,0.0,0.0,0.0,0.0,0.0,0.0,-0.481,0.0,0.0,0.0,0.0,0.0,0.0,0.0,0.0,0.0,0.0,0.0,-0.7631,-0.8316,-0.8974,-0.9469,-0.9713,-0.9964,-1.0195,0.0,0.0,0.0,0.0,0.0,0.0,0.0,0.0,0.0,0.0,0.0,0.0,0.0,0.0,-0.7936,-0.6702,-0.643,-0.6417,-0.6464,0.0,0.0,0.0,0.0,0.0,0.0,0.0,0.0,0.0,0.0,0.0,0.0,0.0,0.0,-0.7841,0.0,-0.7355,0.0,0.0,0.0,0.0,0.0,0.0,0.0,0.0,-0.8228,-0.8615,-0.8791,-0.8845,-0.8743,0.0,-0.8106,-0.7455,0.0,0.0,0.0,0.0,0.0,0.0,0.0,0.0,-0.774,-0.8402,-0.9266,-0.9774,-0.9815,-0.9768,-0.8185,-0.5043,-0.3805,-0.2207,0.0,0.0,-0.038,0.0,0.0,0.0,0.0,0.0,0.0,0.0,0.0,0.0,0.0,0.0,0.0,0.0,0.0,0.0,0.0,0.0,0.0,0.0,0.0,0.0,0.0,0.0,-0.525,0.0,0.0,0.0,0.0,0.0,0.0,0.0,0.0,0.0,-0.7,-0.7631,-0.8282,-0.8866,-0.9334,-0.9666,-0.9802,0.0,0.0,0.0,0.0,0.0,0.0,0.0,-0.9367,-0.9069,-0.8994,-0.8933,-0.8818,-0.896,-0.9042,-0.8831,0.0,0.0,-0.7665,-0.7405,-0.7339,-0.7394,-0.759,-0.774,-0.7651,-0.7907,-0.818,0.0,0.0,0.0,0.0,0.0,0.0,0.0,0.0,-0.8838,-0.8676,0.0,-0.8221,0.0,0.0,0.0,0.0,0.0,-0.7604,0.0,0.0,-0.9266,-0.9673,-0.9429,-0.9551,-0.9537,-0.9381,-0.9083,-0.8581,-0.7975,-0.6948,0.0,0.0,0.0,0.0,0.0,0.0,-0.776,-0.8492,-0.9239,-0.9673,-0.9802,-0.968,-0.8099,-0.4969,-0.1779,-0.011,0.0,0.0,-0.0415,-0.1059,-0.0464,0.0,0.0,0.0,0.0,0.0,0.0,0.0,0.0,0.0,0.0,0.0,0.0,0.0,0.0,0.0,0.0,0.0,0.0,0.0,0.0,-0.5284,0.0,0.0,0.0,0.0,0.0,0.0,0.0,0.0,0.0,0.0,-0.7651,-0.8391,-0.8999,-0.934,0.0,0.0,0.0,0.0,-0.989,-0.999,-0.9822,-0.9686,-0.9822,-0.9944,-0.9869,-0.9659,0.0,0.0,-0.9503,-0.9466,-0.9273,-0.8845,-0.9022,-0.9228,-0.92,-0.875,-0.8533,-0.8662,-0.8587,-0.8574,-0.8703,-0.877,-0.8898,-1.2082,0.0,0.0,0.0,0.0,-0.9483,-0.9734,-1.0202,-1.0046,-0.972,-0.9279,-0.9198,0.0,0.0,0.0,0.0,0.0,0.0,-0.875,-0.9171,-0.9559,-0.989,-1.0019,-0.9951,-0.9842,-0.9686,-0.9503,-0.9218,-0.8818,-0.8275,-0.7373,-0.619,0.0,0.0,0.0,0.0,-0.8167,-0.8743,-0.934,-0.9632,-0.9666,-0.9632,-0.8019,-0.4817,-0.2662,-0.1109,-0.0054,-0.0998,-0.1446,-0.1246,-0.0948,0.0,0.0,0.0,0.0,0.0,0.0,0.0,0.0,0.0,0.0,0.0,0.0,0.0,0.0,0.0,0.0,0.0,0.0,0.0,-0.527,-0.5521,-0.5677,0.0,0.0,0.0,0.0,0.0,0.0,0.0,0.0,0.0,-0.8533,-0.8866,-0.9205,0.0,0.0,-0.9761,-0.9815,-0.9917,-1.0073,-1.0331,-1.0209,0.0,0.0,-1.0005,-0.9835,-0.9917,-1.0127,-1.0222,-1.0053,-0.993,-0.9754,-0.9613,-0.9646,-0.9632,-0.9612,-0.9361,-0.915,-0.9184,-0.9239,-0.9293,-0.9347,-0.9469,-0.9564,-1.3492,-1.0772,-1.0354,-1.0351,-1.0545,-1.0392,-1.0629,-1.1063,-1.0914,-1.0649,-1.0304,-1.0127,-0.9551,-0.8682,-0.8452,0.0,0.0,0.0,-0.9327,-0.9788,-0.993,-1.01,-1.027,-1.0243,-1.0114,-0.991,-0.9761,-0.9571,-0.9327,-0.9028,-0.8296,-0.7221,0.0,0.0,-0.7244,-0.7828,-0.8397,-0.8871,-0.9259,-0.9456,-0.9517,-0.8278,-0.6691,-0.4651,-0.2472,-0.117,-0.0884,-0.114,-0.1153,-0.0791,-0.0699,-0.1074,0.0,0.0,0.0,0.0,0.0,0.0,0.0,0.0,0.0,0.0,0.0,-0.1204,0.0,0.0,0.0,0.0,-0.4795,-0.5528,-0.5942,-0.6084,0.0,0.0,0.0,0.0,0.0,0.0,0.0,-0.7923,-0.8492,-0.8933,-0.9178,-0.9381,-0.9578,-0.9761,-0.9836,-0.991,-0.9992,0.0,-1.0222,-1.046,-1.0419,-1.0385,-1.0439,-1.0297,-1.0209,-1.0233,-1.0392,-1.0426,-1.0371,-1.0283,-1.0125,-1.0011,-0.9909,-0.9829,-0.9829,-0.9673,-0.9557,-0.9557,-0.9625,-0.9693,-0.9693,-0.9761,-0.9822,-1.4267,-1.2257,-1.1416,-1.1131,-1.1302,-1.1233,-1.1396,-1.164,-1.1491,-1.1409,-1.1362,-1.0941,-1.0435,-0.997,-0.9503,0.0,-0.9456,-0.9612,-0.9836,-1.0044,-1.0249,-1.0317,-1.0324,-1.0432,-1.0344,-1.0004,-0.9849,-0.9768,-0.9612,-0.9334,-0.9036,-0.8567,-0.8147,-0.7977,-0.8008,-0.8221,-0.852,-0.8892,-0.9089,-0.9168,-0.9122,-0.6102,-0.4482,-0.4474,-0.1679,-0.0839,-0.2063,-0.0937,-0.0108,0.0,0.0,-0.032,-0.1029,0.0,0.0,0.0,0.0,0.0,0.0,0.0,0.0,0.0,0.0,0.0,0.0,0.0,0.0,0.0,-0.5425,0.0,-0.6869,-0.6844,0.0,0.0,0.0,-0.6926,-0.7186,-0.7719,-0.8167,-0.8323,0.0,0.0,-0.9612,-0.9897,-1.0024,-1.0017,-1.0195,-1.0347,-1.0297,-1.029,-1.0344,-1.05,-1.0514,-1.0561,-1.067,-1.0677,-1.0663,-1.0677,-1.0717,-1.0656,-1.0534,-1.0487,-1.0371,-1.0092,-1.0017,-0.9957,-0.9869,-0.9775,-0.9775,-0.9808,-0.9808,-0.9815,-0.9808,-0.9815,-0.9822,-1.4696,-1.2596,-1.2271,-1.202,-1.185,-1.1923,-1.1891,-1.1945,-1.1789,-1.1599,-1.1375,-1.1158,-1.0751,-1.0222,-1.0188,-1.0134,-1.0073,-1.0215,-1.0378,-1.0561,-1.0602,-1.0616,-1.0616,-1.0527,-1.0399,-1.0222,-1.0004,-0.9917,-0.9768,-0.9591,-0.9449,-0.9334,-0.9117,-0.8743,-0.8248,-0.8472,-0.8771,-0.9152,-0.9193,-0.8653,-0.747,-0.4415,-0.3365,-0.447,-0.2682,-0.1835,-0.2196,-0.186,-0.1183,0.0,0.0,-0.0378,-0.1185,-0.0467,0.0,0.0,0.0,0.0,0.0,0.0,0.0,0.0,0.0,-0.3459,-0.3466,0.0,-0.4828,0.0,-0.6639,-0.7109,-0.7296,-0.7339,0.0,0.0,-0.7698,-0.7882,-0.8289,-0.8514,-0.8777,-0.8982,-0.9401,-0.9734,-0.9768,-1.0127,-1.0385,-1.0385,-1.0324,-1.0317,-1.0419,-1.0439,-1.0493,-1.0629,-1.0656,-1.0677,-1.0711,-1.0717,-1.0717,-1.0717,-1.0717,-1.0711,-1.067,-1.0568,-1.0466,-1.0392,-1.0297,-1.0175,-0.9963,-0.9936,-0.9883,-0.9849,-0.9822,-0.9822,-0.9822,-0.9822,-0.9822,-1.4069,-1.282,-1.2664,-1.2474,-1.2257,-1.2257,-1.2257,-1.2244,-1.2026,-1.1843,-1.1674,-1.1389,-1.1043,-1.0683,-1.069,-1.0649,-1.0582,-1.0588,-1.0636,-1.0717,-1.0717,-1.0717,-1.0717,-1.0636,-1.0487,-1.0276,-1.0195,-1.0039,-0.9829,-0.9741,-0.9673,-0.9612,-0.9523,-0.9245,-0.8791,-0.8859,-0.8988,-0.9207,-0.8464,-0.7354,-0.5825,-0.3479,-0.2897,-0.4254,-0.2324,-0.1812,-0.3019,-0.1874,-0.0844,0.0,0.0,-0.0239,-0.0674,-0.0288,-0.0383,0.0,0.0,0.0,0.0,0.0,0.0,0.0,0.0,0.0,0.0,0.0,-0.5844,-0.6707,-0.7251,-0.7624,-0.776,-0.7902,-0.8113,-0.8359,-0.8386,-0.8587,-0.8967,-0.9144,-0.9293,-0.9435,-0.9727,-0.9971,-1.0107,-1.0337,-1.0514,-1.0582,-1.0527,-1.0507,-1.0575,-1.0595,-1.0622,-1.0711,-1.0717,-1.0717,-1.0717,-1.0717,-1.0717,-1.0717,-1.0717,-1.0717,-1.0717,-1.0649,-1.0575,-1.0507,-1.0426,-1.0324,-1.0181,-1.0093,-0.9957,-0.9883,-0.9802,-0.9822,-0.9822,-0.9822,-0.9822,-1.3091,-1.2949,-1.2793,-1.2637,-1.2501,-1.2501,-1.2501,-1.2481,-1.221,-1.2067,-1.2006,-1.1599,-1.1335,-1.1255,-1.1063,-1.0921,-1.0873,-1.0739,-1.0738,-1.0717,-1.0717,-1.0717,-1.0717,-1.0717,-1.0568,-1.0283,-1.034,-1.012,-0.9822,-0.9822,-0.9761,-0.9639,-0.9632,-0.9571,-0.9435,-0.9323,-0.9221,-0.9123,-0.7365,-0.5806,-0.4526,-0.2794,-0.266,-0.398,-0.1475,-0.1298,-0.3955,-0.1512,0.0,0.0,0.0,0.0,0.0,0.0,-0.0377,0.0,-0.1715,0.0,0.0,0.0,0.0,0.0,0.0,0.0,0.0,-0.6533,-0.7,-0.7193,-0.7665,-0.8045,-0.8381,-0.8486,-0.8682,-0.896,-0.9015,-0.913,-0.9381,-0.9544,-0.9686,-0.9836,-0.9923,-1.0188,-1.0432,-1.05,-1.0575,-1.0683,-1.0704,-1.0697,-1.0717,-1.0711,-1.0711,-1.0717,-1.0717,-1.0717,-1.0717,-1.0717,-1.0717,-1.0717,-1.0717,-1.0717,-1.0717,-1.0717,-1.0677,-1.0555,-1.0527,-1.0473,-1.0337,-1.0188,-1.0017,-0.9977,-0.9862,-0.9822,-0.9822,-0.9822,-0.9822,-1.3091,-1.2949,-1.2793,-1.2644,-1.2501,-1.2501,-1.2501,-1.2488,-1.2318,-1.2108,-1.1864,-1.166,-1.1491,-1.1348,-1.1321,-1.1179,-1.088,-1.0853,-1.0772,-1.0717,-1.0717,-1.0717,-1.0717,-1.0717,-1.0568,-1.0354,-1.034,-1.012,-0.9822,-0.9822,-0.9808,-0.9781,-0.9781,-0.9768,-0.9727,0.0,0.0,0.0,-0.6265,-0.4749,-0.4414,-0.1847,-0.161,-0.4035,-0.1475,0.0,-0.3923,-0.1492,0.0,0.0,0.0,0.0,0.0,0.0,0.0,0.0,0.0,0.0,0.0,0.0,0.0,0.0,-0.7152,-0.702,-0.6902,-0.7537,-0.795,-0.784,-0.8275,-0.8615,-0.8791,-0.894,-0.9159,-0.9279,-0.9408,-0.951,-0.9571,-0.9693,-0.9836,-0.9923,-1.0141,-1.0304,-1.0473,-1.0595,-1.0683,-1.0711,-1.0717,-1.0717,-1.0717,-1.0717,-1.0717,-1.0717,-1.0717,-1.0717,-1.0717,-1.0717,-1.0717,-1.0717,-1.0717,-1.0717,-1.0717,-1.0717,-1.0717,-1.067,-1.0677,-1.0629,-1.048,-1.0337,-1.0202,-1.0011,-0.9869,-0.9822,-0.9822,-0.9822,-0.9822,-1.3159,0.0,-1.2874,-1.2712,0.0,-1.2501,-1.2501,-1.2494,-1.2352,-1.2121,-1.175,-1.1681,-1.1579,-1.1497,-1.1423,-1.1267,-1.105,-1.0914,-1.0799,-1.0724,-1.0717,-1.0717,-1.0717,-1.0717,-1.0602,-1.0385,-1.0374,-1.0161,-0.9876,-0.9795,-0.9822,-0.9822,-0.9822,-0.9822,-0.9808,-0.953,-0.9232,-0.8885,-0.67,-0.525,-0.447,-0.2237,-0.1721,-0.3,0.0,0.0,0.0,0.0,0.0,0.0,0.0,0.0,0.0,0.0,0.0,-0.2009,-0.2018,-0.3152,-0.5681,-0.593,-0.6553,-0.7912,-0.8106,-0.8018,-0.7726,-0.818,-0.8459,-0.8339,-0.871,-0.896,-0.9035,-0.9178,-0.9327,-0.9476,-0.9564,-0.9632,-0.9713,-0.9842,-0.993,-1.0141,-1.0297,-1.0439,-1.0588,-1.0663,-1.0717,-1.0717,-1.0717,-1.0717,-1.0717,-1.0717,-1.0717,-1.0717,-1.0717,-1.0717,-1.0717,-1.0717,-1.0717,-1.0717,-1.0717,-1.0717,-1.0717,-1.0717,-1.0717,-1.0717,-1.0717,-1.069,-1.0616,-1.0487,-1.0337,-1.0188,-1.0039,-0.9903,-0.9842,-0.9822,-0.9822,-1.3227,-1.2963,-1.3043,-1.2786,-1.2501,-1.2501,-1.2501,-1.2488,0.0,0.0,0.0,-1.1694,-1.1619,-1.1606,-1.1491,-1.1335,-1.1158,-1.1043,-1.0887,-1.0724,-1.0717,-1.0717,-1.0717,-1.0717,-1.0643,-1.0487,-1.0351,-1.0202,-0.9984,-0.9897,-0.9822,-0.9822,-0.9822,-0.9808,-0.9768,-0.9517,-0.9245,-0.8876,-0.7493,-0.6089,-0.4916,-0.3129,-0.2274,-0.2401,-0.082,-0.0646,-0.1917,-0.0718,0.0,0.0,0.0,0.0,0.0,0.0,-0.0655,-0.2014,-0.2075,-0.3171,-0.5728,-0.6175,-0.6837,-0.7969,-0.8448,-0.8648,-0.8404,-0.8635,-0.8784,-0.8791,-0.9035,-0.9262,-0.9289,-0.9405,-0.9483,-0.9632,-0.9646,-0.9707,-0.9781,-0.9903,-1.0114,-1.029,-1.0419,-1.0548,-1.069,-1.0717,-1.0717,-1.0717,-1.0717,-1.0717,-1.0717,-1.0717,-1.0717,-1.0717,-1.0717,-1.0717,-1.0717,-1.0717,-1.0717,-1.0717,-1.0717,-1.0717,-1.0717,-1.0717,-1.0717,-1.0717,-1.0717,-1.0717,-1.0711,-1.0588,-1.0446,-1.0304,-1.0154,-0.9943,-0.9863,-0.9822,-0.9822,-1.3227,-1.3043,-1.3043,-1.2786,-1.2501,-1.2501,-1.2501,-1.2481,-1.221,-1.2142,-1.2013,-1.1742,-1.1619,-1.1619,-1.1592,-1.143,-1.1234,-1.1145,-1.0989,-1.0724,-1.0717,-1.0717,-1.0717,-1.0717,-1.0643,-1.0493,-1.0351,-1.0202,-0.9984,-0.9835,-0.9822,-0.9822,-0.9822,-0.9761,-0.9632,-0.9469,-0.93,-0.9123,-0.7533,-0.6589,-0.6366,-0.3628,-0.277,-0.3708,-0.1312,-0.0646,-0.1918,-0.0735,0.0,0.0,0.0,0.0,0.0,0.0,-0.0629,-0.1866,-0.1994,-0.2717,-0.4371,-0.5683,-0.6596,-0.6952,-0.8158,-0.8831,-0.8852,-0.8994,-0.9089,-0.9152,-0.9245,-0.9401,-0.9523,-0.9557,-0.9632,-0.9761,-0.9788,-0.9849,-0.993,-0.9984,-1.0105,-1.0419,-1.048,-1.0555,-1.069,-1.0717,-1.0717,-1.0717,-1.0717,-1.0717,-1.0717,-1.0717,-1.0717,-1.0717,-1.0717,-1.0717,-1.0717,-1.0717,-1.0717,-1.0717,-1.0717,-1.0717,-1.0717,-1.0717,-1.0717,-1.0717,-1.0717,-1.0717,-1.0717,-1.0595,-1.046,-1.0324,-1.0175,-0.9957,-0.9808,-0.9829,-0.9822,-1.3152,-1.2963,-1.2874,-1.2705,-1.2501,-1.2501,-1.2501,-1.2474,-1.2189,-1.206,-1.2026,-1.1748,-1.1619,-1.1619,-1.1619,-1.1497,-1.128,-1.1199,-1.105,-1.0846,-1.0758,-1.0717,-1.0717,-1.0717,-1.0683,-1.0602,-1.0385,-1.0243,-1.0161,-0.9937,-0.9822,-0.9822,-0.9822,-0.9788,-0.972,-0.9578,-0.9429,-0.9273,-0.837,-0.7482,-0.67,-0.4578,-0.3339,-0.3148,-0.1052,-0.0274,-0.0908,-0.0323,0.0,0.0,0.0,0.0,0.0,0.0,-0.0649,-0.1945,-0.1361,-0.192,-0.425,-0.5025,-0.5762,-0.6644,-0.7377,-0.7809,-0.7803,-0.8659,-0.9248,-0.933,-0.9415,-0.953,-0.9605,-0.968,-0.9754,-0.9815,-0.989,-0.9971,-0.999,-1.0209,-1.0344,-1.0473,-1.0568,-1.0643,-1.0711,-1.0717,-1.0717,-1.0717,-1.0717,-1.0717,-1.0717,-1.0717,-1.0717,-1.0717,-1.0717,-1.0717,-1.0717,-1.0717,-1.0717,-1.0717,-1.0717,-1.0717,-1.0717,-1.0717,-1.0717,-1.0717,-1.0717,-1.0717,-1.0717,-1.067,-1.0561,-1.0426,-1.0276,-1.0127,-0.993,-0.9822,-0.9822,-1.3091,-1.3029,-1.2793,-1.2637,-1.2501,-1.2501,-1.2501,-1.2467,-1.2265,-1.206,-1.202,-1.1748,-1.1619,-1.1619,-1.1619,-1.1538,-1.1382,-1.1233,-1.1084,-1.0873,-1.0792,-1.0717,-1.0717,-1.0717,-1.0717,-1.069,-1.0453,-1.031,-1.0249,-1.0005,-0.9849,-0.9829,-0.9822,-0.9822,-0.9822,-0.968,-0.9367,-0.889,-0.8621,-0.785,-0.67,-0.525,-0.3742,-0.2235,-0.0784,0.0,0.0,0.0,0.0,0.0,0.0,0.0,0.0,0.0,-0.0498,-0.1452,-0.0616,-0.1176,-0.3689,-0.3983,-0.4494,-0.5562,-0.6096,-0.6388,-0.6532,-0.7514,-0.8429,-0.8774,-0.8966,-0.9055,-0.9127,-0.9566,-0.9829,-0.9869,-0.9916,-1.0017,-1.0098,-1.0358,-1.0507,-1.0548,-1.0649,-1.0717,-1.0717,-1.0717,-1.0717,-1.0717,-1.0717,-1.0717,-1.0717,-1.0717,-1.0717,-1.0717,-1.0717,-1.0717,-1.0717,-1.0717,-1.0717,-1.0717,-1.0717,-1.0717,-1.0717,-1.0717,-1.0717,-1.0717,-1.0717,-1.0717,-1.0717,-1.0717,-1.0649,-1.0514,-1.0392,-1.027,-1.0011,-0.9856,-0.9829,-1.3091,-1.3029,-1.2786,-1.2644,-1.2508,-1.2501,-1.2501,-1.2461,-1.2189,-1.206,-1.2033,-1.1748,-1.1619,-1.1619,-1.1619,-1.1538,-1.1389,-1.1233,-1.109,-1.088,-1.0792,-1.0717,-1.0717,-1.0717,-1.0717,-1.0697,-1.0548,-1.0399,-1.0276,-1.0038,-0.9889,-0.9836,-0.9822,-0.9822,-0.9808,-0.9686,-0.8878,-0.7363,-0.7138,-0.6971,-0.6649,-0.525,-0.3798,-0.2235,-0.0784,0.0,0.0,0.0,0.0,0.0,0.0,0.0,0.0,0.0,0.0,0.0,0.0,-0.0728,-0.2239,-0.2438,-0.2515,-0.2688,-0.3998,-0.4822,-0.5004,-0.5137,-0.5737,-0.6901,-0.7462,-0.7702,-0.7712,-0.8897,-0.9822,-0.9936,-0.999,-1.0092,-1.0385,-1.0473,-1.0541,-1.0683,-1.0704,-1.0717,-1.0518,-1.0452,-1.0585,-1.0379,-1.0585,-1.0717,-1.0717,-1.0717,-1.0717,-1.0717,-1.0717,-1.0717,-1.0717,-1.0717,-1.0717,-1.0717,-1.0717,-1.0717,-1.0717,-1.0717,-1.0717,-1.0717,-1.0717,-1.0717,-1.0717,-1.0717,-1.067,-1.0568,-1.0473,-1.0378,-1.0058,-0.9876,-0.9849,-1.3017,-1.2935,-1.2698,-1.2562,-1.2508,-1.2501,-1.2501,-1.2474,-1.2265,-1.206,-1.202,-1.1748,-1.1619,-1.1619,-1.1619,-1.1579,-1.1518,-1.1369,-1.1219,-1.107,-1.086,-1.0812,-1.0724,-1.0717,-1.0717,-1.0704,-1.0561,-1.0419,-1.0263,-1.0032,-0.9883,-0.9829,-0.9822,-0.9822,-0.9815,-0.9761,-0.884,-0.7199,-0.7049,-0.6103,-0.4202,-0.3482,-0.285,-0.2124,-0.0784,0.0,0.0,0.0,0.0,0.0,0.0,0.0,0.0,0.0,0.0,0.0,0.0,-0.0625,-0.2099,-0.1383,-0.128,-0.2151,-0.289,-0.3403,-0.3485,-0.3454,-0.3717,-0.445,-0.6176,-0.7362,-0.749,-0.8903,-0.9916,-0.9997,-1.0202,-1.0358,-1.0473,-1.0575,-1.0656,-1.0711,-1.0717,-1.0253,-0.9371,-0.9105,-0.9105,-0.9305,-0.9915,-1.0664,-1.0724,-1.0717,-1.0717,-1.0717,-1.0717,-1.0717,-1.0717,-1.0717,-1.0717,-1.0717,-1.0717,-1.0717,-1.0717,-1.0717,-1.0717,-1.0717,-1.0717,-1.0717,-1.0717,-1.0717,-1.069,-1.0609,-1.0514,-1.0405,-1.0044,-0.9936,-0.9869,-1.3043,-1.2915,-1.263,-1.2501,-1.2501,-1.2501,-1.2501,-1.2467,-1.223,-1.2101,-1.2033,-1.1789,-1.1653,-1.1619,-1.1619,-1.1619,-1.1599,-1.1463,-1.1307,-1.1227,-1.1016,-1.0799,-1.0731,-1.0717,-1.0717,-1.0704,-1.0609,-1.046,-1.027,-1.0019,-0.9863,-0.9829,-0.9822,-0.9822,-0.9822,-0.9822,-0.8733,-0.6649,-0.6497,-0.4868,-0.2093,-0.1601,-0.1581,-0.1513,-0.056,0.0,0.0,0.0,0.0,0.0,0.0,0.0,0.0,0.0,0.0,0.0,0.0,-0.0463,-0.1501,-0.0587,-0.0474,-0.1481,-0.1741,-0.1998,-0.2305,-0.208,-0.2093,-0.277,-0.5118,-0.6733,-0.6922,-0.8729,-0.9948,-1.0105,-1.0378,-1.05,-1.0555,-1.0663,-1.0717,-1.0717,-1.0717,-1.0246,-0.9039,-0.8501,-0.8296,-0.9033,-0.9946,-1.0718,-1.0785,-1.0785,-1.0785,-1.0778,-1.0751,-1.0717,-1.0717,-1.0717,-1.0717,-1.0717,-1.0717,-1.0717,-1.0717,-1.0717,-1.0717,-1.0717,-1.0717,-1.0717,-1.0717,-1.0717,-1.0717,-1.069,-1.0595,-1.0426,-1.0181,-1.0038,-0.9923,-1.3043,-1.2988,-1.2623,-1.2501,-1.2501,-1.2501,-1.2501,-1.2488,-1.2338,-1.2196,-1.2054,-1.1884,-1.1748,-1.1619,-1.1619,-1.1619,-1.1599,-1.147,-1.1328,-1.1241,-1.1023,-1.0806,-1.0724,-1.0717,-1.0717,-1.0717,-1.0704,-1.0555,-1.029,-1.0114,-0.9903,-0.9836,-0.9822,-0.9822,-0.9822,-0.9822,-0.8221,-0.551,-0.5147,-0.3482,0.0,0.0,0.0,0.0,0.0,0.0,0.0,0.0,0.0,0.0,0.0,0.0,0.0,0.0,0.0,0.0,0.0,0.0,0.0,0.0,0.0,0.0,0.0,-0.08,-0.2026,-0.111,-0.0989,-0.2341,-0.4051,-0.5143,-0.5655,-0.8255,-1.0062,-1.0405,-1.0473,-1.0568,-1.069,-1.0704,-1.0717,-1.0518,-1.0114,-0.9643,-0.9981,-0.9039,-0.8712,-0.9613,-1.0578,-1.0867,-1.0867,-1.0873,-1.0934,-1.0907,-1.0772,-1.0731,-1.0724,-1.0717,-1.0717,-1.0717,-1.0717,-1.0717,-1.0717,-1.0717,-1.0717,-1.0717,-1.0717,-1.0717,-1.0717,-1.0717,-1.0717,-1.0683,-1.0609,-1.0446,-1.0297,-1.0148,-0.997,-1.284,-1.2657,-1.2549,-1.2501,-1.2501,-1.2501,-1.2501,-1.2488,-1.2352,-1.2203,-1.2054,-1.1898,-1.1748,-1.1619,-1.1619,-1.1619,-1.1613,-1.1558,-1.1457,-1.1307,-1.1151,-1.1009,-1.0867,-1.0772,-1.0717,-1.0717,-1.0717,-1.0616,-1.0412,-1.0105,-0.9963,-0.9896,-0.9802,-0.9822,-0.9822,-0.9822,-0.816,-0.528,-0.4889,-0.334,0.0,0.0,0.0,0.0,0.0,0.0,0.0,0.0,0.0,0.0,0.0,0.0,0.0,0.0,0.0,0.0,0.0,0.0,0.0,0.0,0.0,0.0,0.0,0.0,-0.068,-0.0374,-0.0313,-0.1066,-0.2467,-0.3835,-0.5672,-0.8328,-1.0371,-1.0473,-1.0582,-1.0584,-1.0704,-1.0717,-1.0313,-0.8972,-0.7165,-0.5563,-0.6243,-0.6072,-0.6715,-0.754,-0.9541,-1.0865,-1.1084,-1.109,-1.1084,-1.1084,-1.1036,-1.0968,-1.0867,-1.0772,-1.0724,-1.0717,-1.0717,-1.0717,-1.0717,-1.0717,-1.0717,-1.0717,-1.0717,-1.0717,-1.0717,-1.0717,-1.0717,-1.0704,-1.0629,-1.0555,-1.0446,-1.0283,-1.0141,-1.2739,-1.2522,-1.2501,-1.2501,-1.2501,-1.2501,-1.2501,-1.2488,-1.24,-1.225,-1.2067,-1.1952,-1.1803,-1.164,-1.1619,-1.1619,-1.1619,-1.1613,-1.1538,-1.1389,-1.1233,-1.1084,-1.0873,-1.0792,-1.0717,-1.0717,-1.0717,-1.0643,-1.048,-1.0243,-1.0038,-0.9977,-0.9897,-0.9822,-0.9822,-0.9822,-0.816,-0.5529,-0.492,-0.3302,0.0,0.0,0.0,0.0,0.0,0.0,0.0,0.0,0.0,0.0,0.0,0.0,0.0,0.0,0.0,0.0,0.0,0.0,0.0,0.0,0.0,0.0,0.0,0.0,0.0,0.0,0.0,0.0,-0.1543,-0.3382,-0.537,-0.7963,-0.9901,-1.0313,-1.0122,-1.0114,-1.0518,-0.9649,-0.844,-0.7098,-0.476,-0.3562,-0.4252,-0.5169,-0.6293,-0.7146,-0.9814,-1.1157,-1.124,-1.124,-1.1233,-1.1226,-1.1179,-1.1111,-1.1016,-1.0847,-1.0705,-1.0618,-1.0717,-1.0717,-1.0717,-1.0717,-1.0717,-1.0717,-1.0717,-1.0717,-1.0717,-1.0717,-1.0717,-1.0717,-1.069,-1.0629,-1.0521,-1.0419,-1.0276,-1.2644,-1.2508,-1.2501,-1.2501,-1.2501,-1.2501,-1.2501,-1.2501,-1.2494,-1.2332,-1.2108,-1.2128,-1.1891,-1.1674,-1.1626,-1.1619,-1.1619,-1.1619,-1.1545,-1.1409,-1.1253,-1.1104,-1.0962,-1.0819,-1.0731,-1.0717,-1.0717,-1.0649,-1.0507,-1.0358,-1.0215,-0.9997,-0.9917,-0.9842,-0.9822,-0.97,-0.8166,-0.559,-0.492,-0.3259,0.0,0.0,0.0,0.0,0.0,0.0,0.0,0.0,0.0,0.0,0.0,0.0,0.0,0.0,0.0,0.0,0.0,0.0,0.0,0.0,0.0,0.0,0.0,0.0,0.0,0.0,0.0,0.0,-0.1435,-0.3222,-0.5004,-0.6638,-0.8552,-1.0174,-0.9371,-0.8967,-0.951,-0.7503,-0.5432,-0.5171,-0.3768,-0.4386,-0.6537,-0.6791,-0.7039,-0.9134,-1.0728,-1.1036,-1.0677,-1.0677,-1.1177,-1.1157,-1.0467,-0.984,-1.0385,-1.0906,-1.0698,-1.0578,-1.0671,-1.0717,-1.0717,-1.0717,-1.0717,-1.0717,-1.0717,-1.0717,-1.0717,-1.0717,-1.0717,-1.0717,-1.0704,-1.069,-1.0595,-1.0493,-1.0412,-1.2644,-1.2508,-1.2501,-1.2501,-1.2501,-1.2501,-1.2501,-1.2501,-1.2501,-1.2393,-1.2223,-1.2108,-1.1952,-1.1775,-1.1667,-1.1619,-1.1619,-1.1619,-1.1592,-1.1525,-1.1389,-1.1233,-1.1084,-1.0941,-1.0826,-1.0738,-1.0717,-1.0697,-1.0629,-1.0493,-1.0351,-1.0209,-1.0053,-0.9862,-0.9829,-0.97,-0.816,-0.5345,-0.492,-0.3323,0.0,0.0,0.0,0.0,0.0,0.0,0.0,0.0,0.0,0.0,0.0,0.0,0.0,0.0,0.0,0.0,0.0,0.0,0.0,0.0,0.0,0.0,0.0,0.0,0.0,0.0,0.0,0.0,0.0,-0.1601,-0.3204,-0.3944,-0.6231,-1.0253,-0.9105,-0.7969,-0.8041,-0.57,-0.3842,-0.3534,-0.3133,-0.3493,-0.471,-0.558,-0.7305,-0.7771,-0.9729,-1.0597,-0.8504,-0.8929,-0.9512,-0.9506,-0.8739,-0.8333,-0.8836,-0.9045,-0.874,-0.9358,-0.9954,-1.0538,-1.0591,-1.0717,-1.0717,-1.0717,-1.0717,-1.0717,-1.0717,-1.0717,-1.0717,-1.0717,-1.0711,-1.0683,-1.0643,-1.0582,-1.05,-1.2589,-1.2501,-1.2501,-1.2501,-1.2501,-1.2501,-1.2501,-1.2501,-1.2501,-1.2427,-1.2284,-1.2189,-1.2026,-1.185,-1.1735,-1.1667,-1.1619,-1.1619,-1.1619,-1.1592,-1.1463,-1.1307,-1.1151,-1.0955,-1.0819,-1.0738,-1.0717,-1.0717,-1.0711,-1.0568,-1.0446,-1.0344,-1.0154,-0.9943,-0.9903,-0.9727,-0.816,-0.5406,-0.4858,-0.3321,0.0,0.0,0.0,0.0,0.0,0.0,0.0,0.0,0.0,0.0,0.0,0.0,0.0,0.0,0.0,0.0,0.0,0.0,0.0,0.0,0.0,0.0,0.0,0.0,0.0,0.0,0.0,0.0,0.0,-0.074,-0.235,-0.2685,-0.4635,-0.8164,-0.6987,-0.5845,-0.4986,-0.3785,-0.2452,-0.1995,-0.1728,-0.2157,-0.3375,-0.4529,-0.6492,-0.6166,-0.7796,-0.9069,-0.6677,-0.6962,-0.7327,-0.7544,-0.7017,-0.6909,-0.7241,-0.7048,-0.6708,-0.7788,-0.9036,-0.9875,-1.0405,-1.0591,-1.0717,-1.0717,-1.0717,-1.0717,-1.0717,-1.0717,-1.0717,-1.0717,-1.0717,-1.0704,-1.0677,-1.0649,-1.0588,-1.2515,-1.2501,-1.2501,-1.2501,-1.2501,-1.2501,-1.2501,-1.2501,-1.2501,-1.2433,-1.2325,-1.2284,-1.2121,-1.1898,-1.1823,-1.1742,-1.164,-1.1619,-1.1619,-1.1586,-1.1477,-1.1348,-1.1185,-1.0921,-1.0718,-1.0758,-1.0731,-1.0717,-1.0711,-1.0595,-1.05,-1.0446,-1.0236,-0.9886,-0.9728,-0.9726,-0.8066,-0.4995,-0.4739,-0.3259,0.0,0.0,0.0,0.0,0.0,0.0,0.0,0.0,0.0,0.0,0.0,0.0,0.0,0.0,0.0,0.0,0.0,0.0,0.0,0.0,0.0,0.0,0.0,0.0,0.0,0.0,0.0,0.0,0.0,-0.0673,-0.2018,-0.229,-0.3316,-0.4507,-0.408,-0.2584,-0.0617,-0.158,-0.159,-0.0559,-0.0141,-0.0987,-0.3062,-0.364,-0.4451,-0.542,-0.6094,-0.6025,-0.5156,-0.5011,-0.5518,-0.5373,-0.4939,-0.5002,-0.5123,-0.4461,-0.4356,-0.6625,-0.7991,-0.9075,-1.0229,-1.0672,-1.0731,-1.0731,-1.0731,-1.0731,-1.0717,-1.0717,-1.0717,-1.0717,-1.0717,-1.0717,-1.0704,-1.0683,-1.067,-1.2603,-1.2501,-1.2501,-1.2501,-1.2501,-1.2501,-1.2501,-1.2501,-1.2501,-1.2474,-1.2427,-1.2332,-1.2196,-1.2006,-1.1877,-1.1755,-1.1653,-1.1619,-1.1619,-1.1613,-1.1586,-1.1477,-1.1301,-1.1029,-1.082,-1.0799,-1.0772,-1.0717,-1.0717,-1.067,-1.0595,-1.0493,-1.0405,-0.9602,-0.8546,-0.9436,-0.7433,-0.3995,-0.4385,-0.3262,0.0,0.0,0.0,0.0,0.0,0.0,0.0,0.0,0.0,0.0,0.0,0.0,0.0,0.0,0.0,0.0,0.0,0.0,0.0,0.0,0.0,0.0,0.0,0.0,0.0,0.0,0.0,0.0,0.0,0.0,0.0,0.0,0.0,-0.1389,-0.2081,-0.1873,-0.0557,-0.0349,-0.0491,-0.0213,-0.1278,-0.2784,-0.4097,-0.4621,-0.4771,-0.5295,-0.5229,-0.4651,-0.3201,-0.3127,-0.3633,-0.3127,-0.2763,-0.2836,-0.2689,-0.1888,-0.2524,-0.5205,-0.6919,-0.8209,-0.9623,-1.0894,-1.0853,-1.0758,-1.0772,-1.0772,-1.0738,-1.0717,-1.0717,-1.0717,-1.0717,-1.0717,-1.0717,-1.0704,-1.0704,-1.2644,-1.2501,-1.2501,-1.2501,-1.2501,-1.2501,-1.2501,-1.2501,-1.2501,-1.2501,-1.2481,-1.242,-1.2298,-1.2149,-1.1999,-1.185,-1.1714,-1.1647,-1.1619,-1.1619,-1.1613,-1.1525,-1.1348,-1.109,-1.088,-1.0867,-1.0792,-1.0724,-1.0717,-1.0717,-1.0663,-1.0588,-1.0521,-0.9857,-0.9068,-0.862,-0.7287,-0.4239,-0.3881,-0.2548,0.0,0.0,0.0,0.0,0.0,0.0,0.0,0.0,0.0,0.0,0.0,0.0,0.0,0.0,0.0,0.0,0.0,0.0,0.0,0.0,0.0,0.0,0.0,0.0,0.0,0.0,0.0,0.0,0.0,0.0,0.0,0.0,0.0,0.0,-0.0923,0.0,0.0,-0.0848,-0.1137,-0.1505,-0.2231,-0.3239,-0.4428,-0.3923,-0.349,-0.3274,-0.2983,-0.1966,-0.0875,0.0,0.0,0.0,0.0,0.0,0.0,0.0,0.0,-0.46,-0.701,-0.8045,-0.9073,-1.0692,-1.0989,-1.088,-1.0839,-1.0732,-1.0772,-1.0738,-1.0717,-1.0717,-1.0717,-1.0651,-1.0585,-1.0717,-1.0717,-1.2637,-1.2501,-1.2501,-1.2501,-1.2501,-1.2501,-1.2501,-1.2501,-1.2501,-1.2501,-1.2494,-1.2501,-1.24,-1.2284,-1.2101,-1.1972,-1.1816,-1.1674,-1.1626,-1.1619,-1.1606,-1.1545,-1.1423,-1.1179,-1.0988,-1.0941,-1.0839,-1.0765,-1.0758,-1.0744,-1.0717,-1.0545,-1.0379,-1.0,-0.8909,-0.8033,-0.6438,-0.4237,-0.3114,-0.1895,0.0,0.0,0.0,0.0,0.0,0.0,0.0,0.0,0.0,0.0,0.0,0.0,0.0,0.0,0.0,0.0,0.0,0.0,0.0,0.0,0.0,0.0,0.0,0.0,0.0,0.0,0.0,0.0,0.0,0.0,0.0,0.0,0.0,0.0,0.0,0.0,0.0,-0.1575,-0.2656,-0.2828,-0.2762,-0.2618,-0.24,-0.1384,-0.0292,-0.2547,0.0,0.0,0.0,0.0,0.0,0.0,0.0,0.0,0.0,0.0,0.0,-0.4346,-0.7153,-0.8627,-0.8878,-0.9968,-1.0773,-1.1036,-1.0989,-1.09,-1.0739,-1.0772,-1.0632,-1.0386,-1.018,-1.0246,-1.0386,-1.0585,-1.0717,-1.2637,-1.2501,-1.2501,-1.2501,-1.2501,-1.2501,-1.2501,-1.2501,-1.2501,-1.2501,-1.2501,-1.2501,-1.2427,-1.2284,-1.2142,-1.1979,-1.1837,-1.1694,-1.1619,-1.1619,-1.1619,-1.1606,-1.1531,-1.1362,-1.1294,-1.1219,-1.1016,-1.084,-1.0806,-1.0585,-1.0651,-1.0373,-0.901,-0.7862,-0.6717,-0.6116,-0.4052,-0.1829,-0.1935,-0.1603,0.0,0.0,0.0,0.0,0.0,0.0,0.0,0.0,0.0,0.0,0.0,0.0,0.0,0.0,0.0,0.0,0.0,0.0,0.0,0.0,0.0,0.0,0.0,0.0,0.0,0.0,0.0,0.0,0.0,0.0,0.0,0.0,0.0,0.0,0.0,0.0,0.0,-0.0436,-0.1524,-0.2253,-0.1748,-0.1239,-0.2618,-0.1166,-0.0729,-0.1675,0.0,0.0,0.0,0.0,0.0,0.0,0.0,0.0,0.0,0.0,0.0,-0.378,-0.6387,-0.8198,-0.8383,-0.9101,-0.9794,-1.0493,-1.1124,-1.0893,-1.0103,-1.0415,-1.0287,-0.9929,-0.9667,-0.9952,-1.0238,-1.0485,-1.018,-1.2637,-1.2501,-1.2501,-1.2501,-1.2501,-1.2501,-1.2501,-1.2501,-1.2501,-1.2501,-1.2501,-1.2501,-1.2454,-1.2379,-1.2237,-1.2088,-1.1911,-1.1714,-1.1619,-1.1619,-1.1619,-1.1619,-1.1613,-1.1538,-1.147,-1.1375,-1.1165,-1.0688,-0.9912,-0.9575,-0.8968,-0.824,-0.7231,-0.6494,-0.5295,-0.4458,-0.3185,-0.1723,-0.118,-0.0846,0.0,0.0,0.0,0.0,-0.071,-0.0969,0.0,0.0,0.0,0.0,0.0,0.0,0.0,0.0,0.0,0.0,0.0,0.0,0.0,0.0,0.0,0.0,0.0,0.0,0.0,0.0,0.0,0.0,0.0,0.0,0.0,0.0,0.0,0.0,0.0,0.0,-0.1093,-0.1311,-0.1602,-0.2545,-0.2183,-0.211,-0.1965,-0.0874,0.0,0.0,0.0,0.0,0.0,0.0,0.0,0.0,0.0,0.0,0.0,0.0,0.0,-0.349,-0.5156,-0.6315,-0.6789,-0.7688,-0.8723,-0.9225,-0.9643,-0.9296,-0.8803,-0.9268,-0.9588,-0.9348,-0.9239,-0.9667,-0.9771,-0.9636,-0.9242,-1.2617,-1.2501,-1.2501,-1.2501,-1.2501,-1.2501,-1.2501,-1.2501,-1.2501,-1.2501,-1.2501,-1.2501,-1.2494,-1.2461,-1.2345,-1.2196,-1.1979,-1.1762,-1.1619,-1.1619,-1.1619,-1.1619,-1.1613,-1.1592,-1.1545,-1.1416,-1.1274,-1.0304,-0.8908,-0.8214,-0.7675,-0.586,-0.5098,-0.4827,-0.4492,-0.3222,-0.2079,-0.1606,-0.0731,0.0,0.0,0.0,0.0,0.0,-0.1562,-0.1503,0.0,0.0,0.0,0.0,0.0,0.0,0.0,0.0,0.0,0.0,0.0,0.0,0.0,0.0,0.0,0.0,0.0,0.0,0.0,0.0,0.0,0.0,0.0,0.0,0.0,0.0,0.0,0.0,0.0,0.0,-0.1965,-0.2472,-0.2256,-0.2763,-0.1965,-0.1602,-0.1456,0.0,0.0,0.0,0.0,0.0,0.0,0.0,0.0,0.0,0.0,0.0,0.0,0.0,0.0,0.0,0.0,0.0,0.0,-0.4635,-0.5401,-0.717,-0.7544,-0.7288,-0.7314,-0.7636,-0.7975,-0.8179,-0.8277,-0.8207,-0.8381,-0.8638,-0.7902,-1.2522,-1.2501,-1.2501,-1.2501,-1.2501,-1.2501,-1.2501,-1.2501,-1.2501,-1.2501,-1.2501,-1.2501,-1.2501,-1.2467,-1.2359,-1.2142,-1.1918,-1.1728,-1.1633,-1.1619,-1.1619,-1.1619,-1.1619,-1.1619,-1.1592,-1.1552,-1.1211,-1.0046,-0.8627,-0.8237,-0.6787,-0.5315,-0.3847,-0.3159,-0.2689,0.0,0.0,0.0,0.0,0.0,0.0,0.0,0.0,-0.0266,-0.1792,-0.1597,0.0,0.0,0.0,0.0,0.0,0.0,0.0,0.0,0.0,0.0,0.0,0.0,0.0,0.0,0.0,0.0,0.0,0.0,0.0,0.0,0.0,0.0,0.0,0.0,0.0,0.0,0.0,0.0,0.0,0.0,0.0,0.0,0.0,-0.2194,-0.1461,0.0,0.0,0.0,0.0,0.0,0.0,0.0,0.0,0.0,0.0,0.0,0.0,0.0,0.0,0.0,0.0,0.0,0.0,0.0,0.0,0.0,-0.1815,-0.4114,-0.5473,-0.5597,-0.5781,-0.6036,-0.6081,-0.6211,-0.6384,-0.6557,-0.6753,-0.688,-0.5553,-1.2501,-1.2501,-1.2501,-1.2501,-1.2501,-1.2501,-1.2501,-1.2501,-1.2501,-1.2501,-1.2501,-1.2501,-1.2501,-1.2481,-1.244,-1.223,-1.1972,-1.1796,-1.1694,-1.164,-1.1619,-1.1619,-1.1619,-1.1619,-1.1619,-1.1305,-1.0525,-0.9084,-0.7252,-0.6964,-0.5428,-0.2971,-0.1641,-0.1291,-0.122,0.0,0.0,0.0,0.0,0.0,0.0,-0.074,-0.1009,-0.0672,-0.1545,-0.1613,0.0,0.0,0.0,0.0,0.0,0.0,0.0,0.0,0.0,0.0,0.0,0.0,0.0,0.0,0.0,0.0,0.0,0.0,0.0,0.0,0.0,0.0,0.0,0.0,0.0,0.0,0.0,0.0,0.0,0.0,0.0,0.0,0.0,0.0,0.0,0.0,0.0,0.0,0.0,0.0,0.0,0.0,0.0,0.0,0.0,0.0,0.0,0.0,0.0,0.0,0.0,0.0,0.0,0.0,0.0,0.0,0.0,-0.1817,-0.2758,0.0,-0.3977,-0.4171,-0.4223,-0.4351,-0.5062,-0.5476,-0.5376,-0.4864,-0.3663,-1.2501,-1.2501,-1.2501,-1.2501,-1.2501,-1.2501,-1.2501,-1.2501,-1.2501,-1.2501,-1.2501,-1.2501,-1.2501,-1.2488,-1.244,-1.2305,-1.2054,-1.1898,-1.1748,-1.164,-1.1619,-1.1619,-1.1619,-1.1548,-1.1325,-1.0449,-0.964,-0.772,-0.6233,-0.5405,-0.3186,0.0,0.0,0.0,0.0,0.0,0.0,0.0,0.0,0.0,0.0,-0.1613,-0.1814,-0.0404,-0.1747,-0.1813,0.0,0.0,0.0,0.0,0.0,0.0,0.0,0.0,0.0,0.0,0.0,0.0,0.0,0.0,0.0,0.0,0.0,0.0,0.0,0.0,0.0,0.0,0.0,0.0,0.0,0.0,0.0,0.0,0.0,0.0,0.0,0.0,0.0,0.0,0.0,0.0,0.0,0.0,0.0,0.0,0.0,0.0,0.0,0.0,0.0,0.0,0.0,0.0,0.0,0.0,0.0,0.0,0.0,0.0,0.0,0.0,0.0,0.0,0.0,0.0,0.0,0.0,-0.2749,-0.3177,-0.4061,-0.4343,-0.4162,-0.329,-0.2146,-1.2501,-1.2501,-1.2501,-1.2501,-1.2501,-1.2501,-1.2501,-1.2501,-1.2501,-1.2501,-1.2501,-1.2501,-1.2501,-1.2481,-1.2379,-1.223,-1.2067,-1.1925,-1.1782,-1.1667,-1.1626,-1.1619,-1.1548,-1.1619,-1.0449,-0.9357,-0.8703,-0.7616,-0.5702,-0.4083,-0.2356,0.0,0.0,0.0,0.0,0.0,0.0,0.0,0.0,0.0,0.0,-0.168,-0.1345,-0.0941,-0.1344,-0.1747,0.0,0.0,0.0,0.0,0.0,0.0,0.0,0.0,0.0,0.0,0.0,0.0,0.0,0.0,0.0,0.0,0.0,0.0,0.0,0.0,0.0,0.0,0.0,0.0,0.0,0.0,0.0,0.0,0.0,0.0,0.0,0.0,0.0,0.0,0.0,0.0,0.0,0.0,0.0,0.0,0.0,0.0,0.0,0.0,0.0,0.0,0.0,0.0,0.0,0.0,0.0,0.0,0.0,0.0,0.0,0.0,0.0,0.0,0.0,0.0,0.0,0.0,0.0,-0.182,-0.2401,-0.2691,-0.2905,0.0,0.0,-1.2501,-1.2501,-1.2501,-1.2501,-1.2501,-1.2501,-1.2501,-1.2501,-1.2501,-1.2501,-1.2501,-1.2501,-1.2501,-1.2481,-1.2427,-1.2332,-1.2182,-1.2033,-1.1884,-1.1735,-1.1667,-1.1619,-1.1253,-1.0521,-0.9285,-0.8415,-0.66,-0.4936,-0.3914,-0.3256,-0.1876,0.0,0.0,0.0,0.0,0.0,0.0,0.0,0.0,0.0,0.0,0.0,0.0,0.0,0.0,0.0,0.0,0.0,0.0,0.0,0.0,0.0,0.0,0.0,0.0,0.0,0.0,0.0,0.0,0.0,0.0,0.0,0.0,0.0,0.0,0.0,0.0,0.0,0.0,0.0,0.0,0.0,0.0,0.0,0.0,0.0,0.0,0.0,0.0,0.0,0.0,0.0,0.0,0.0,0.0,0.0,0.0,0.0,0.0,0.0,0.0,0.0,0.0,0.0,0.0,0.0,0.0,0.0,0.0,0.0,0.0,0.0,0.0,0.0,0.0,0.0,0.0,0.0,0.0,0.0,-0.0583,0.0,0.0,0.0,0.0,-1.2501,-1.2501,-1.2501,-1.2501,-1.2501,-1.2501,-1.2501,-1.2501,-1.2501,-1.2501,-1.2501,-1.2501,-1.2501,-1.2501,-1.2488,-1.2406,-1.2277,-1.2244,-1.2006,-1.185,-1.1735,-1.166,-1.105,-0.9867,-0.8487,-0.791,-0.4863,-0.3054,-0.2328,-0.1891,-0.1236,0.0,0.0,0.0,0.0,0.0,0.0,0.0,0.0,0.0,0.0,0.0,0.0,0.0,0.0,0.0,0.0,0.0,0.0,0.0,0.0,0.0,0.0,0.0,0.0,0.0,0.0,0.0,0.0,0.0,0.0,0.0,0.0,0.0,0.0,0.0,0.0,0.0,0.0,0.0,0.0,0.0,0.0,0.0,0.0,0.0,0.0,0.0,0.0,0.0,0.0,0.0,0.0,0.0,0.0,0.0,0.0,0.0,0.0,0.0,0.0,0.0,0.0,0.0,0.0,0.0,0.0,0.0,0.0,0.0,0.0,0.0,0.0,0.0,0.0,0.0,0.0,0.0,0.0,0.0,0.0,0.0,0.0,0.0,0.0,-1.2501,-1.2501,-1.2501,-1.2501,-1.2501,-1.2501,-1.2501,-1.2501,-1.2501,-1.2501,-1.2501,-1.2501,-1.2501,-1.2501,-1.2488,-1.2427,-1.2298,-1.2277,-1.2108,-1.1932,-1.1743,-1.1603,-1.074,-0.9313,-0.7553,-0.5881,-0.349,-0.1675,0.0,0.0,0.0,0.0,0.0,0.0,0.0,0.0,0.0,0.0,0.0,0.0,0.0,0.0,0.0,0.0,0.0,0.0,0.0,0.0,0.0,0.0,0.0,0.0,0.0,0.0,0.0,0.0,0.0,0.0,0.0,0.0,0.0,0.0,0.0,0.0,0.0,0.0,0.0,0.0,0.0,0.0,0.0,0.0,0.0,0.0,0.0,0.0,0.0,0.0,0.0,0.0,0.0,0.0,0.0,0.0,0.0,0.0,0.0,0.0,0.0,0.0,0.0,0.0,0.0,0.0,0.0,0.0,0.0,0.0,0.0,0.0,0.0,0.0,0.0,0.0,0.0,0.0,0.0,0.0,0.0,0.0,0.0,0.0,0.0,0.0,0.0,-1.2501,-1.2501,-1.2501,-1.2501,-1.2501,-1.2501,-1.2501,-1.2501,-1.2501,-1.2501,-1.2424,-1.2501,-1.2501,-1.2501,-1.2501,-1.2481,-1.2413,-1.2318,-1.221,-1.2121,-1.202,-1.1148,-0.9877,-0.7988,-0.5925,-0.4078,-0.2184,0.0,0.0,0.0,0.0,0.0,0.0,0.0,0.0,0.0,0.0,0.0,0.0,0.0,0.0,0.0,0.0,0.0,0.0,0.0,0.0,0.0,0.0,0.0,0.0,0.0,0.0,0.0,0.0,0.0,0.0,0.0,0.0,0.0,0.0,0.0,0.0,0.0,0.0,0.0,0.0,0.0,0.0,0.0,0.0,0.0,0.0,0.0,0.0,0.0,0.0,0.0,0.0,0.0,0.0,0.0,0.0,0.0,0.0,0.0,0.0,0.0,0.0,0.0,0.0,0.0,0.0,0.0,0.0,0.0,0.0,0.0,0.0,0.0,0.0,0.0,0.0,0.0,0.0,0.0,0.0,0.0,0.0,0.0,0.0,0.0,0.0,0.0,0.0,-1.2501,-1.2501,-1.2501,-1.2501,-1.2501,-1.2501,-1.2501,-1.2501,-1.2501,-1.203,-1.1643,-1.156,-1.156,-1.1721,-1.2347,-1.2501,-1.2467,-1.2406,-1.2338,-1.2023,-1.1321,-1.038,-0.8508,-0.6459,-0.4366,-0.2641,0.0,0.0,0.0,0.0,0.0,0.0,0.0,0.0,0.0,0.0,0.0,0.0,0.0,0.0,0.0,0.0,0.0,0.0,0.0,0.0,0.0,0.0,0.0,0.0,0.0,0.0,0.0,0.0,0.0,0.0,0.0,0.0,0.0,0.0,0.0,0.0,0.0,0.0,0.0,0.0,0.0,0.0,0.0,0.0,0.0,0.0,0.0,0.0,0.0,0.0,0.0,0.0,0.0,0.0,0.0,0.0,0.0,0.0,0.0,0.0,0.0,0.0,0.0,0.0,0.0,0.0,0.0,0.0,0.0,0.0,0.0,0.0,0.0,0.0,0.0,0.0,0.0,0.0,0.0,0.0,0.0,0.0,0.0,0.0,0.0,0.0,0.0,0.0,0.0,-1.2501,-1.2501,-1.2501,-1.2501,-1.2501,-1.2501,-1.2501,-1.2424,-1.2269,-1.1405,-1.0153,-0.992,-0.992,-1.0314,-1.1953,-1.2424,-1.2501,-1.2481,-1.2273,-1.1632,-1.0521,-0.9364,-0.741,-0.5193,-0.315,-0.2528,0.0,0.0,0.0,0.0,0.0,0.0,0.0,0.0,0.0,0.0,0.0,0.0,0.0,0.0,0.0,0.0,0.0,0.0,0.0,0.0,0.0,0.0,0.0,0.0,0.0,0.0,0.0,0.0,0.0,0.0,0.0,0.0,0.0,0.0,0.0,0.0,0.0,0.0,0.0,0.0,0.0,0.0,0.0,0.0,0.0,0.0,0.0,0.0,0.0,0.0,0.0,0.0,0.0,0.0,0.0,0.0,0.0,0.0,0.0,0.0,0.0,0.0,0.0,0.0,0.0,0.0,0.0,0.0,0.0,0.0,0.0,0.0,0.0,0.0,0.0,0.0,0.0,0.0,0.0,0.0,0.0,0.0,0.0,0.0,0.0,0.0,0.0,0.0,0.0,-1.2501,-1.2501,-1.2501,-1.2501,-1.2501,-1.2501,-1.2501,-1.2263,-1.1172,-1.0779,-1.1089,-1.0153,-1.0308,-1.1327,-1.1953,-1.2501,-1.2501,-1.2424,-1.2139,-1.0335,-0.9387,-0.7322,-0.544,-0.3816,-0.228,0.0,0.0,0.0,0.0,0.0,0.0,0.0,0.0,0.0,0.0,0.0,0.0,0.0,0.0,0.0,0.0,0.0,0.0,0.0,0.0,0.0,0.0,0.0,0.0,0.0,0.0,0.0,0.0,0.0,0.0,0.0,0.0,0.0,0.0,0.0,0.0,0.0,0.0,0.0,0.0,0.0,0.0,0.0,0.0,0.0,0.0,0.0,0.0,0.0,0.0,0.0,0.0,0.0,0.0,0.0,0.0,0.0,0.0,0.0,0.0,0.0,0.0,0.0,0.0,0.0,0.0,0.0,0.0,0.0,0.0,0.0,0.0,0.0,0.0,0.0,0.0,0.0,0.0,0.0,0.0,0.0,0.0,0.0,0.0,0.0,0.0,0.0,0.0,0.0,0.0,-1.203,-1.1482,-1.1405,-1.0934,-1.0701,-1.1876,-1.2185,-1.1172,-0.9299,-0.9138,-0.9765,-0.8828,-0.9371,-1.1011,-1.2185,-1.2501,-1.2424,-1.1637,-1.1172,-0.9216,-0.7579,-0.5674,-0.3798,-0.2321,-0.1232,0.0,0.0,0.0,0.0,0.0,0.0,0.0,0.0,0.0,0.0,0.0,0.0,0.0,0.0,0.0,0.0,0.0,0.0,0.0,0.0,0.0,0.0,0.0,0.0,0.0,0.0,0.0,0.0,0.0,0.0,0.0,0.0,0.0,0.0,0.0,0.0,0.0,0.0,0.0,0.0,0.0,0.0,0.0,0.0,0.0,0.0,0.0,0.0,0.0,0.0,0.0,0.0,0.0,0.0,0.0,0.0,0.0,0.0,0.0,0.0,0.0,0.0,0.0,0.0,0.0,0.0,0.0,0.0,0.0,0.0,0.0,0.0,0.0,0.0,0.0,0.0,0.0,0.0,0.0,0.0,0.0,0.0,0.0,0.0,0.0,0.0,0.0,0.0,0.0,0.0,-1.125,-0.9532,-0.9294,-0.8205,-0.7267,-1.0385,-1.0934,-0.9138,-0.7115,-0.641,-0.6722,-0.6878,-0.805,-0.992,-1.1714,-1.2263,-1.1876,-1.0308,-0.9216,-0.789,-0.5471,-0.3671,-0.2425,-0.1095,0.0,0.0,0.0,0.0,0.0,0.0,0.0,0.0,0.0,0.0,0.0,0.0,0.0,0.0,0.0,0.0,0.0,0.0,0.0,0.0,0.0,0.0,0.0,0.0,0.0,0.0,0.0,0.0,0.0,0.0,0.0,0.0,0.0,0.0,0.0,0.0,0.0,0.0,0.0,0.0,0.0,0.0,0.0,0.0,0.0,0.0,0.0,0.0,0.0,0.0,0.0,0.0,0.0,0.0,0.0,0.0,0.0,0.0,0.0,0.0,0.0,0.0,0.0,0.0,0.0,0.0,0.0,0.0,0.0,0.0,0.0,0.0,0.0,0.0,0.0,0.0,0.0,0.0,0.0,0.0,0.0,0.0,0.0,0.0,0.0,0.0,0.0,0.0,0.0,0.0,0.0,-0.992,-0.9294,-0.7816,-0.68,-0.6492,-0.7583,-0.7738,-0.6956,-0.5006,-0.5474,-0.8439,-0.6956,-0.8205,-1.1566,-1.2263,-1.1482,-1.0546,-0.9294,-0.7185,-0.5393,-0.3677,-0.2272,0.0,0.0,0.0,0.0,0.0,0.0,0.0,0.0,0.0,0.0,0.0,0.0,0.0,0.0,0.0,0.0,0.0,0.0,0.0,0.0,0.0,0.0,0.0,0.0,0.0,0.0,0.0,0.0,0.0,0.0,0.0,0.0,0.0,0.0,0.0,0.0,0.0,0.0,0.0,0.0,0.0,0.0,0.0,0.0,0.0,0.0,0.0,0.0,0.0,0.0,0.0,0.0,0.0,0.0,0.0,0.0,0.0,0.0,0.0,0.0,0.0,0.0,0.0,0.0,0.0,0.0,0.0,0.0,0.0,0.0,0.0,0.0,0.0,0.0,0.0,0.0,0.0,0.0,0.0,0.0,0.0,0.0,0.0,0.0,0.0,0.0,0.0,0.0,0.0,0.0,0.0,0.0,0.0,-0.8434,-0.6796,-0.5552,-0.4615,-0.3836,-0.3836,-0.3836,-0.3679,-0.3286,-0.5081,-0.7816,-0.68,-0.8594,-1.1798,-1.156,-1.0546,-0.9449,-0.7185,-0.5315,-0.4068,-0.2349,-0.1254,0.0,0.0,0.0,0.0,0.0,0.0,0.0,0.0,0.0,0.0,0.0,0.0,0.0,0.0,0.0,0.0,0.0,0.0,0.0,0.0,0.0,0.0,0.0,0.0,0.0,0.0,0.0,0.0,0.0,0.0,0.0,0.0,0.0,0.0,0.0,0.0,0.0,0.0,0.0,0.0,0.0,0.0,0.0,0.0,0.0,0.0,0.0,0.0,0.0,0.0,0.0,0.0,0.0,0.0,0.0,0.0,0.0,0.0,0.0,0.0,0.0,0.0,0.0,0.0,0.0,0.0,0.0,0.0,0.0,0.0,0.0,0.0,0.0,0.0,0.0,0.0,0.0,0.0,0.0,0.0,0.0,0.0,0.0,0.0,0.0,0.0,0.0,0.0,0.0,0.0,0.0,0.0,0.0,-0.664,-0.3208,-0.2897,-0.188,0.0,0.0,0.0,0.0,-0.1959,-0.4224,-0.602,-0.6098,-0.8123,-1.0856,-1.0075,-0.8905,-0.7341,-0.5237,-0.3756,0.0,-0.1254,0.0,0.0,0.0,0.0,0.0,0.0,0.0,0.0,0.0,0.0,0.0,0.0,0.0,0.0,0.0,0.0,0.0,0.0,0.0,0.0,0.0,0.0,0.0,0.0,0.0,0.0,0.0,0.0,0.0,0.0,0.0,0.0,0.0,0.0,0.0,0.0,0.0,0.0,0.0,0.0,0.0,0.0,0.0,0.0,0.0,0.0,0.0,0.0,0.0,0.0,0.0,0.0,0.0,0.0,0.0,0.0,0.0,0.0,0.0,0.0,0.0,0.0,0.0,0.0,0.0,0.0,0.0,0.0,0.0,0.0,0.0,0.0,0.0,0.0,0.0,0.0,0.0,0.0,0.0,0.0,0.0,0.0,0.0,0.0,0.0,0.0,0.0,0.0,0.0,0.0,0.0,0.0,0.0,0.0,-0.4066,-0.2974,-0.1411,-0.0392,0.0,0.0,0.0,0.0,-0.0471,-0.2899,-0.5474,-0.5006,-0.6173,-0.9371,-0.7968,-0.6488,-0.4613,-0.3677,-0.2272,0.0,0.0,0.0,0.0,0.0,0.0,0.0,0.0,0.0,0.0,0.0,0.0,0.0,0.0,0.0,0.0,0.0,0.0,0.0,0.0,0.0,0.0,0.0,0.0,0.0,0.0,0.0,0.0,0.0,0.0,0.0,0.0,0.0,0.0,0.0,0.0,0.0,0.0,0.0,0.0,0.0,0.0,0.0,0.0,0.0,0.0,0.0,0.0,0.0,0.0,0.0,0.0,0.0,0.0,0.0,0.0,0.0,0.0,0.0,0.0,0.0,0.0,0.0,0.0,0.0,0.0,0.0,0.0,0.0,0.0,0.0,0.0,0.0,0.0,0.0,0.0,0.0,0.0,0.0,0.0,0.0,0.0,0.0,0.0,0.0,0.0,0.0,0.0,0.0,0.0,0.0,0.0,0.0,0.0,0.0,0.0,-0.2584,-0.1646,0.0,0.0,0.0,0.0,0.0,0.0,0.0,-0.1803,-0.4459,-0.3912,-0.4925,-0.7423,-0.5786,-0.4459,-0.2897,-0.2037,-0.1176,0.0,0.0,0.0,0.0,0.0,0.0,0.0,0.0,0.0,0.0,0.0,0.0,0.0,0.0,0.0,0.0,0.0,0.0,0.0,0.0,0.0,0.0,0.0,0.0,0.0,0.0,0.0,0.0,0.0,0.0,0.0,0.0,0.0,0.0,0.0,0.0,0.0,0.0,0.0,0.0,0.0,0.0,0.0,0.0,0.0,0.0,0.0,0.0,0.0,0.0,0.0,0.0,0.0,0.0,0.0,0.0,0.0,0.0,0.0,0.0,0.0,0.0,0.0,0.0,0.0,0.0,0.0,0.0,0.0,0.0,0.0,0.0,0.0,0.0,0.0,0.0,0.0,0.0,0.0,0.0,0.0,0.0,0.0,0.0,0.0,0.0,0.0,0.0,0.0,0.0,0.0,0.0,0.0,0.0,0.0,0.0,-0.1646,0.0,0.0,0.0,0.0,0.0,0.0,0.0,0.0,-0.0941,-0.2506,-0.2662,-0.399,-0.4615,-0.3756,-0.3132,-0.2272,-0.1098,-0.0236,0.0,0.0,0.0,0.0,0.0,0.0,0.0,0.0,0.0,0.0,0.0,0.0,0.0,0.0,0.0,0.0,0.0,0.0,0.0,0.0,0.0,0.0,0.0,0.0,0.0,0.0,0.0,0.0,0.0,0.0,0.0,0.0,0.0,0.0,0.0,0.0,0.0,0.0,0.0,0.0,0.0,0.0,0.0,0.0,0.0,0.0,0.0,0.0,0.0,0.0,0.0,0.0,0.0,0.0,0.0,0.0,0.0,0.0,0.0,0.0,0.0,0.0,0.0,0.0,0.0,0.0,0.0,0.0,0.0,0.0,0.0,0.0,0.0,0.0,0.0,0.0,0.0,0.0,0.0,0.0,0.0,0.0,0.0,0.0,0.0,0.0,0.0,0.0,0.0,0.0,0.0,0.0,0.0,0.0,0.0,0.0,-0.0392,0.0,0.0,0.0,0.0,0.0,0.0,0.0,0.0,-0.0314,0.0,0.0,-0.1725,-0.3599,-0.1568,0.0,0.0,0.0,0.0,0.0,0.0,0.0,0.0,0.0,0.0,0.0,0.0,0.0,0.0,0.0,0.0,0.0,0.0,0.0,0.0,0.0,0.0,0.0,0.0,0.0,0.0,0.0,0.0,0.0,0.0,0.0,0.0,0.0,0.0,0.0,0.0,0.0,0.0,0.0,0.0,0.0,0.0,0.0,0.0,0.0,0.0,0.0,0.0,0.0,0.0,0.0,0.0,0.0,0.0,0.0,0.0,0.0,0.0,0.0,0.0,0.0,0.0,0.0,0.0,0.0,0.0,0.0,0.0,0.0,0.0,0.0,0.0,0.0,0.0,0.0,0.0,0.0,0.0,0.0,0.0,0.0,0.0,0.0,0.0,0.0,0.0,0.0,0.0,0.0,0.0,0.0,0.0,0.0,0.0,0.0,0.0,0.0,0.0,0.0,0.0]}]]